[[{"header":{"parameterUnit":"m.s-1","parameterCategory":1,"la1":30.6,"la2":28.766,"lo1":-90.7593,"lo2":-88.6598,"dy":0.0162,"dx":0.0183,"nx":116,"ny":114,"refTime":"2024-03-18T18:00:00:Z","depth":0,"parameterNumber":2,"parameterNumberName":"U-component_of_WINDS"},"data":[0.0,0.0,0.0,0.0,0.0,0.0,0.0,0.0,0.0,0.0,0.0,0.0,0.0,0.0,0.0,0.0,0.0,0.0,0.0,0.0,0.0,0.0,0.0,0.0,0.0,0.0,0.0,0.0,0.0,0.0,0.0,0.0,0.0,0.0,0.0,0.0,0.0,0.0,0.0,0.0,0.0,0.0,0.0,0.0,0.0,0.0,0.0,0.0,0.0,0.0,0.0,0.0,0.0,0.0,0.0,0.0,0.0,0.0,0.0,0.0,0.0,0.0,0.0,0.0,0.0,0.0,0.0,0.0,0.0,0.0,0.0,0.0,0.0,0.0,0.0,0.0,0.0,0.0,0.0,0.0,0.0,0.0,0.0,0.0,0.0,0.0,0.0,0.0,0.0,0.0,0.0,0.0,0.0,0.0,0.0,0.0,0.0,0.0,0.0,0.0,0.0,0.0,0.0,0.0,0.0,0.0,0.0,0.0,0.0,0.0,0.0,0.0,0.0,0.0,0.0,0.0,0.0,0.0,0.0,0.0,0.0,0.0,0.0,0.0,0.0,0.0,0.0,0.0,0.0,0.0,0.0,0.0,0.0,0.0,0.0,0.0,0.0,0.0,0.0,0.0,0.0,0.0,0.0,0.0,0.0,0.0,0.0,0.0,0.0,0.0,0.0,0.0,0.0,0.0,0.0,0.0,0.0,0.0,0.0,0.0,0.0,0.0,0.0,0.0,0.0,0.0,0.0,0.0,0.0,0.0,0.0,0.0,0.0,0.0,0.0,0.0,0.0,0.0,0.0,0.0,0.0,0.0,0.0,0.0,0.0,0.0,0.0,0.0,0.0,0.0,0.0,0.0,0.0,0.0,0.0,0.0,0.0,0.0,0.0,0.0,0.0,0.0,0.0,0.0,0.0,0.0,0.0,0.0,0.0,0.0,0.0,0.0,0.0,0.0,0.0,0.0,0.0,0.0,0.0,0.0,0.0,0.0,0.0,0.0,0.0,0.0,0.0,0.0,0.0,0.0,0.0,0.0,0.0,0.0,0.0,0.0,0.0,0.0,0.0,0.0,0.0,0.0,0.0,0.0,0.0,0.0,0.0,0.0,0.0,0.0,0.0,0.0,0.0,0.0,0.0,0.0,0.0,0.0,0.0,0.0,0.0,0.0,0.0,0.0,0.0,0.0,0.0,0.0,0.0,0.0,0.0,0.0,0.0,0.0,0.0,0.0,0.0,0.0,0.0,0.0,0.0,0.0,0.0,0.0,0.0,0.0,0.0,0.0,0.0,0.0,0.0,0.0,0.0,0.0,0.0,0.0,0.0,0.0,0.0,0.0,0.0,0.0,0.0,0.0,0.0,0.0,0.0,0.0,0.0,0.0,0.0,0.0,0.0,0.0,0.0,0.0,0.0,0.0,0.0,0.0,0.0,0.0,0.0,0.0,0.0,0.0,0.0,0.0,0.0,0.0,0.0,0.0,0.0,0.0,0.0,0.0,0.0,0.0,0.0,0.0,0.0,0.0,0.0,0.0,0.0,0.0,0.0,0.0,0.0,0.0,0.0,0.0,0.0,0.0,0.0,0.0,0.0,0.0,0.0,0.0,0.0,0.0,0.0,0.0,0.0,0.0,0.0,0.0,0.0,0.0,0.0,0.0,0.0,0.0,0.0,0.0,0.0,0.0,0.0,0.0,0.0,0.0,0.0,0.0,0.0,0.0,0.0,0.0,0.0,0.0,0.0,0.0,0.0,0.0,0.0,0.0,0.0,0.0,0.0,0.0,0.0,0.0,0.0,0.0,0.0,0.0,0.0,0.0,0.0,0.0,0.0,0.0,0.0,0.0,0.0,0.0,0.0,0.0,0.0,0.0,0.0,0.0,0.0,0.0,0.0,0.0,0.0,0.0,0.0,0.0,0.0,0.0,0.0,0.0,0.0,0.0,0.0,0.0,0.0,0.0,0.0,0.0,0.0,0.0,0.0,0.0,0.0,0.0,0.0,0.0,0.0,0.0,0.0,0.0,0.0,0.0,0.0,0.0,0.0,0.0,0.0,0.0,0.0,0.0,0.0,0.0,0.0,0.0,0.0,0.0,0.0,0.0,0.0,0.0,0.0,0.0,0.0,0.0,0.0,0.0,0.0,0.0,0.0,0.0,0.0,0.0,0.0,0.0,0.0,0.0,0.0,0.0,0.0,0.0,0.0,0.0,0.0,0.0,0.0,0.0,0.0,0.0,0.0,0.0,0.0,0.0,0.0,0.0,0.0,0.0,0.0,0.0,0.0,0.0,0.0,0.0,0.0,0.0,0.0,0.0,0.0,0.0,0.0,0.0,0.0,0.0,0.0,0.0,0.0,0.0,0.0,0.0,0.0,0.0,0.0,0.0,0.0,0.0,0.0,0.0,0.0,0.0,0.0,0.0,0.0,0.0,0.0,0.0,0.0,0.0,0.0,0.0,0.0,0.0,0.0,0.0,0.0,0.0,0.0,0.0,0.0,0.0,0.0,0.0,0.0,0.0,0.0,0.0,0.0,0.0,0.0,0.0,0.0,0.0,0.0,0.0,0.0,0.0,0.0,0.0,0.0,0.0,0.0,0.0,0.0,0.0,0.0,0.0,0.0,0.0,0.0,0.0,0.0,0.0,0.0,0.0,0.0,0.0,0.0,0.0,0.0,0.0,0.0,0.0,0.0,0.0,0.0,0.0,0.0,0.0,0.0,0.0,0.0,0.0,0.0,0.0,0.0,0.0,0.0,0.0,0.0,0.0,0.0,0.0,0.0,0.0,0.0,0.0,0.0,0.0,0.0,0.0,0.0,0.0,0.0,0.0,0.0,0.0,0.0,0.0,0.0,0.0,0.0,0.0,0.0,0.0,0.0,0.0,0.0,0.0,0.0,0.0,0.0,0.0,0.0,0.0,0.0,0.0,0.0,0.0,0.0,0.0,0.0,0.0,0.0,0.0,0.0,0.0,0.0,0.0,0.0,0.0,0.0,0.0,0.0,0.0,0.0,0.0,0.0,0.0,0.0,0.0,0.0,0.0,0.0,0.0,0.0,0.0,0.0,0.0,0.0,0.0,0.0,0.0,0.0,0.0,0.0,0.0,0.0,0.0,0.0,0.0,0.0,0.0,0.0,0.0,0.0,0.0,0.0,0.0,0.0,0.0,0.0,0.0,0.0,0.0,0.0,0.0,0.0,0.0,0.0,0.0,0.0,0.0,0.0,0.0,0.0,0.0,0.0,0.0,0.0,0.0,0.0,0.0,0.0,0.0,0.0,0.0,0.0,0.0,0.0,0.0,0.0,0.0,0.0,0.0,0.0,0.0,0.0,0.0,0.0,0.0,0.0,0.0,0.0,0.0,0.0,0.0,0.0,0.0,0.0,0.0,0.0,0.0,0.0,0.0,0.0,0.0,0.0,0.0,0.0,0.0,0.0,0.0,0.0,0.0,0.0,0.0,0.0,0.0,0.0,0.0,0.0,0.0,0.0,0.0,0.0,0.0,0.0,0.0,0.0,0.0,0.0,0.0,0.0,0.0,0.0,0.0,0.0,0.0,0.0,0.0,0.0,0.0,0.0,0.0,0.0,0.0,0.0,0.0,0.0,0.0,0.0,0.0,0.0,0.0,0.0,0.0,0.0,0.0,0.0,0.0,0.0,0.0,0.0,0.0,0.0,0.0,0.0,0.0,0.0,0.0,0.0,0.0,0.0,0.0,0.0,0.0,0.0,0.0,0.0,0.0,0.0,0.0,0.0,0.0,0.0,0.0,0.0,0.0,0.0,0.0,0.0,0.0,0.0,0.0,0.0,0.0,0.0,0.0,0.0,0.0,0.0,0.0,0.0,0.0,0.0,0.0,0.0,0.0,0.0,0.0,0.0,0.0,0.0,0.0,0.0,0.0,0.0,0.0,0.0,0.0,0.0,0.0,0.0,0.0,0.0,0.0,0.0,0.0,0.0,0.0,0.0,0.0,0.0,0.0,0.0,0.0,0.0,0.0,0.0,0.0,0.0,0.0,0.0,0.0,0.0,0.0,0.0,0.0,0.0,0.0,0.0,0.0,0.0,0.0,0.0,0.0,0.0,0.0,0.0,0.0,0.0,0.0,0.0,0.0,0.0,0.0,0.0,0.0,0.0,0.0,0.0,0.0,0.0,0.0,0.0,0.0,0.0,0.0,0.0,0.0,0.0,0.0,0.0,0.0,0.0,0.0,0.0,0.0,0.0,0.0,0.0,0.0,0.0,0.0,0.0,0.0,0.0,0.0,0.0,0.0,0.0,0.0,0.0,0.0,0.0,0.0,0.0,0.0,0.0,0.0,0.0,0.0,0.0,0.0,0.0,0.0,0.0,0.0,0.0,0.0,0.0,0.0,0.0,0.0,0.0,0.0,0.0,0.0,0.0,0.0,0.0,0.0,0.0,0.0,0.0,0.0,0.0,0.0,0.0,0.0,0.0,0.0,0.0,0.0,0.0,0.0,0.0,0.0,0.0,0.0,0.0,0.0,0.0,0.0,0.0,0.0,0.0,0.0,0.0,0.0,0.0,0.0,0.0,0.0,0.0,0.0,0.0,0.0,0.0,0.0,0.0,0.0,0.0,0.0,0.0,0.0,0.0,0.0,0.0,0.0,0.0,0.0,0.0,0.0,0.0,0.0,0.0,0.0,0.0,0.0,0.0,0.0,0.0,0.0,0.0,0.0,0.0,0.0,0.0,0.0,0.0,0.0,0.0,0.0,0.0,0.0,0.0,0.0,0.0,0.0,0.0,0.0,0.0,0.0,0.0,0.0,0.0,0.0,0.0,0.0,0.0,0.0,0.0,0.0,0.0,0.0,0.0,0.0,0.0,0.0,0.0,0.0,0.0,0.0,0.0,0.0,0.0,0.0,0.0,0.0,0.0,0.0,0.0,0.0,0.0,0.0,0.0,0.0,0.0,0.0,0.0,0.0,0.0,0.0,0.0,0.0,0.0,0.0,0.0,0.0,0.0,0.0,0.0,0.0,0.0,0.0,0.0,0.0,0.0,0.0,0.0,0.0,0.0,0.0,0.0,0.0,0.0,0.0,0.0,0.0,0.0,0.0,0.0,0.0,0.0,0.0,0.0,0.0,0.0,0.0,0.0,0.0,0.0,0.0,0.0,0.0,0.0,0.0,0.0,0.0,0.0,0.0,0.0,0.0,0.0,0.0,0.0,0.0,0.0,0.0,0.0,0.0,0.0,0.0,0.0,0.0,0.0,0.0,0.0,0.0,0.0,0.0,0.0,0.0,0.0,0.0,0.0,0.0,0.0,0.0,0.0,0.0,0.0,0.0,0.0,0.0,0.0,0.0,0.0,0.0,0.0,0.0,0.0,0.0,0.0,0.0,0.0,0.0,0.0,0.0,0.0,0.0,0.0,0.0,0.0,0.0,0.0,0.0,0.0,0.0,0.0,0.0,0.0,0.0,0.0,0.0,0.0,0.0,0.0,0.0,0.0,0.0,0.0,0.0,0.0,0.0,0.0,0.0,0.0,0.0,0.0,0.0,0.0,0.0,0.0,0.0,0.0,0.0,0.0,0.0,0.0,0.0,0.0,0.0,0.0,0.0,0.0,0.0,0.0,0.0,0.0,0.0,0.0,0.0,0.0,0.0,0.0,0.0,0.0,0.0,0.0,0.0,0.0,0.0,0.0,0.0,0.0,0.0,0.0,0.0,0.0,0.0,0.0,0.0,0.0,0.0,0.0,0.0,0.0,0.0,0.0,0.0,0.0,0.0,0.0,0.0,0.0,0.0,0.0,0.0,0.0,0.0,0.0,0.0,0.0,0.0,0.0,0.0,0.0,0.0,0.0,0.0,0.0,0.0,0.0,0.0,0.0,0.0,0.0,0.0,0.0,0.0,0.0,0.0,0.0,0.0,0.0,0.0,0.0,0.0,0.0,0.0,0.0,0.0,0.0,0.0,0.0,0.0,0.0,0.0,0.0,0.0,0.0,0.0,0.0,0.0,0.0,0.0,0.0,0.0,0.0,0.0,0.0,0.0,0.0,0.0,0.0,0.0,0.0,0.0,0.0,0.0,0.0,0.0,0.0,0.0,0.0,0.0,0.0,0.0,0.0,0.0,0.0,0.0,0.0,0.0,0.0,0.0,5.686,0.0,0.0,0.0,0.0,0.0,0.0,0.0,0.0,0.0,0.0,0.0,0.0,0.0,0.0,0.0,0.0,0.0,0.0,0.0,0.0,0.0,0.0,0.0,0.0,0.0,0.0,0.0,0.0,0.0,0.0,0.0,0.0,0.0,0.0,0.0,0.0,0.0,4.4303,4.6465,4.6767,4.8216,5.0692,5.0438,0.0,0.0,0.0,0.0,0.0,0.0,0.0,0.0,0.0,0.0,0.0,0.0,0.0,0.0,0.0,0.0,0.0,0.0,0.0,0.0,0.0,0.0,0.0,0.0,0.0,0.0,0.0,0.0,0.0,0.0,0.0,0.0,0.0,0.0,0.0,0.0,0.0,0.0,0.0,0.0,0.0,0.0,0.0,0.0,0.0,0.0,0.0,0.0,0.0,0.0,0.0,0.0,0.0,0.0,0.0,0.0,0.0,0.0,0.0,0.0,0.0,0.0,0.0,0.0,0.0,0.0,0.0,0.0,0.0,0.0,0.0,0.0,0.0,5.9626,0.0,0.0,0.0,0.0,0.0,0.0,0.0,0.0,0.0,0.0,0.0,0.0,0.0,0.0,0.0,0.0,0.0,0.0,0.0,0.0,0.0,0.0,0.0,3.9644,4.1152,4.2109,4.3001,4.3576,4.3769,4.4266,4.461,4.4663,4.4207,4.3995,4.4064,4.4646,4.6359,4.9174,5.0537,5.3148,5.694,0.0,0.0,0.0,0.0,0.0,0.0,0.0,0.0,0.0,0.0,0.0,0.0,0.0,0.0,0.0,0.0,0.0,0.0,0.0,0.0,0.0,0.0,0.0,0.0,0.0,0.0,0.0,0.0,0.0,0.0,0.0,0.0,0.0,0.0,0.0,0.0,0.0,0.0,0.0,0.0,0.0,0.0,0.0,0.0,0.0,0.0,0.0,0.0,0.0,0.0,0.0,0.0,0.0,0.0,0.0,0.0,0.0,0.0,0.0,0.0,0.0,0.0,0.0,0.0,0.0,0.0,0.0,0.0,7.5917,7.7664,7.7809,7.8047,7.8003,7.089,6.6927,6.5338,0.0,0.0,0.0,0.0,0.0,0.0,0.0,0.0,0.0,0.0,0.0,0.0,0.0,0.0,0.0,0.0,0.0,0.0,0.0,0.0,0.0,0.0,4.1662,4.3664,4.5166,4.5454,4.5903,4.6865,4.6363,4.6205,4.6599,4.6531,4.6668,4.7014,4.8493,4.9754,5.0725,5.7927,6.3462,6.7367,6.9025,6.9535,6.8627,5.896,0.0,0.0,0.0,0.0,0.0,0.0,0.0,0.0,0.0,0.0,0.0,0.0,0.0,0.0,0.0,0.0,0.0,0.0,0.0,0.0,0.0,0.0,0.0,0.0,0.0,0.0,0.0,0.0,0.0,0.0,0.0,0.0,0.0,0.0,0.0,0.0,0.0,0.0,0.0,0.0,0.0,0.0,0.0,5.4957,5.6407,0.0,0.0,0.0,0.0,0.0,0.0,0.0,0.0,0.0,0.0,0.0,0.0,0.0,0.0,7.3354,7.7235,7.9417,7.9869,8.2871,8.3712,8.2671,8.3431,8.4998,8.6945,8.5087,0.0,7.2125,6.9064,0.0,0.0,0.0,0.0,0.0,0.0,0.0,0.0,0.0,0.0,0.0,0.0,0.0,0.0,0.0,0.0,0.0,0.0,0.0,0.0,0.0,4.5851,4.8418,5.0508,5.2745,5.2724,4.9579,5.0281,4.951,4.6521,4.6659,4.7117,4.7746,4.9592,5.3213,5.865,6.59,7.0715,7.3147,7.4336,7.4888,7.4682,6.9901,6.5617,6.1713,5.743,0.0,0.0,0.0,0.0,0.0,0.0,0.0,0.0,0.0,0.0,0.0,0.0,0.0,0.0,0.0,0.0,0.0,0.0,0.0,0.0,0.0,0.0,0.0,0.0,0.0,0.0,0.0,0.0,0.0,0.0,0.0,0.0,0.0,0.0,0.0,0.0,0.0,0.0,0.0,5.7172,5.9975,5.7784,6.0522,6.1374,0.0,0.0,0.0,0.0,0.0,0.0,0.0,0.0,0.0,7.3342,7.5419,7.788,8.0728,8.4442,8.7217,8.9041,9.2376,9.3828,9.3593,9.498,9.6175,9.7216,9.6829,9.3569,8.7883,7.9273,7.3733,7.0263,0.0,0.0,0.0,0.0,0.0,6.716,0.0,0.0,0.0,0.0,0.0,0.0,0.0,0.0,0.0,0.0,0.0,0.0,4.7239,5.087,5.4176,5.7226,5.9642,5.9165,5.4798,5.4617,5.3044,4.9269,4.8558,4.8915,5.0365,5.34,5.9273,6.7972,7.3924,7.7765,7.9539,8.0522,8.0885,8.0665,8.0262,7.5582,6.7717,6.3328,5.9539,0.0,0.0,0.0,0.0,0.0,0.0,0.0,0.0,0.0,0.0,0.0,0.0,0.0,0.0,0.0,0.0,0.0,0.0,0.0,0.0,0.0,0.0,0.0,0.0,0.0,0.0,0.0,0.0,0.0,0.0,0.0,0.0,0.0,0.0,0.0,0.0,0.0,0.0,6.1615,6.4477,6.0009,6.4894,6.6443,0.0,0.0,0.0,0.0,0.0,0.0,7.2373,7.5265,7.8328,8.1695,8.3847,8.6228,8.8913,9.2106,9.5128,9.7933,10.0712,10.2486,10.3284,10.4597,10.5292,10.5487,10.5292,10.4102,10.1383,8.9206,8.1777,7.7737,7.3781,7.1864,7.1363,7.2022,7.3367,7.5377,0.0,0.0,0.0,0.0,0.0,0.0,0.0,0.0,0.0,0.0,0.0,4.489,5.204,5.6404,6.0701,6.5485,6.3933,6.3233,6.4484,5.8917,5.6228,5.7719,5.4383,5.3946,5.7024,6.2997,6.9715,7.7157,8.1799,8.5682,8.8776,9.0331,9.0665,8.9849,8.8312,8.3169,7.5191,6.9897,6.6246,6.347,0.0,0.0,0.0,0.0,0.0,0.0,0.0,0.0,0.0,0.0,0.0,0.0,0.0,0.0,0.0,0.0,0.0,0.0,0.0,0.0,0.0,0.0,0.0,0.0,0.0,0.0,0.0,0.0,0.0,0.0,0.0,0.0,0.0,0.0,0.0,0.0,0.0,0.0,0.0,6.4943,7.0465,0.0,0.0,0.0,0.0,6.9515,7.2711,7.6018,7.9327,8.2709,8.6007,8.9235,9.2584,9.5937,9.9324,10.1897,10.409,10.5782,10.6785,10.7711,10.848,10.8598,10.9101,10.9793,10.8985,10.86,10.76,9.6492,8.9988,8.6529,8.2329,8.0739,8.0709,7.9937,8.126,8.3399,0.0,0.0,0.0,0.0,0.0,0.0,0.0,0.0,3.7848,4.1336,4.5741,5.1722,6.0077,6.5949,7.0874,7.4705,7.5682,7.4096,6.9468,6.5525,6.2628,6.0917,5.7973,5.89,6.4226,6.8572,7.4748,8.2936,8.717,9.0886,9.4107,9.4662,9.4813,9.4478,9.3386,9.0417,8.5764,7.8099,7.2424,6.8014,6.1925,5.7577,0.0,0.0,0.0,0.0,0.0,0.0,0.0,0.0,0.0,0.0,0.0,0.0,0.0,0.0,0.0,0.0,0.0,0.0,0.0,0.0,0.0,0.0,0.0,0.0,0.0,0.0,0.0,0.0,0.0,0.0,0.0,0.0,0.0,0.0,0.0,0.0,0.0,7.488,8.0635,0.0,7.5018,7.4109,7.5362,7.8667,8.0499,8.3858,8.9343,9.2915,9.625,9.956,10.1984,10.4292,10.6605,10.81,10.9403,11.0516,11.1288,11.1906,11.2214,11.2794,11.3181,11.3489,11.3181,11.2717,11.1791,10.6787,10.0791,9.4394,9.031,8.8032,8.7095,8.691,8.8035,8.9803,0.0,0.0,0.0,0.0,0.0,0.0,0.0,0.0,3.9145,4.3726,4.9742,5.7339,6.706,7.414,7.9686,8.3516,8.3834,8.1293,7.5348,7.041,6.662,6.416,6.323,6.4955,6.9613,7.5475,8.1967,8.9055,9.3093,9.6176,9.8342,9.8594,9.8594,9.8269,9.7466,9.6071,9.3905,8.7142,8.0527,7.4036,6.7577,6.4099,6.2016,0.0,0.0,0.0,0.0,0.0,0.0,0.0,0.0,0.0,0.0,0.0,0.0,0.0,0.0,0.0,0.0,0.0,0.0,0.0,0.0,0.0,0.0,0.0,0.0,0.0,0.0,0.0,0.0,0.0,0.0,0.0,0.0,0.0,0.0,0.0,8.2939,8.2763,8.9118,9.0765,8.3813,8.3296,8.4697,8.7775,8.9506,9.29,9.8521,10.1486,10.4412,10.7216,10.8903,11.0483,11.1912,11.3099,11.3709,11.3984,11.5215,11.5599,11.5289,11.6218,11.6602,11.6605,11.6294,11.5792,11.5215,11.3483,10.9095,10.3099,9.8976,9.6339,9.4838,9.4957,9.5841,9.703,0.0,0.0,0.0,0.0,0.0,0.0,0.0,3.6486,3.962,4.5337,5.2525,6.1444,7.2797,8.0612,8.6921,9.1698,8.7655,8.4095,8.2411,7.3204,6.7811,6.7844,7.0153,7.2054,7.3438,8.3958,9.1478,9.568,9.9627,10.1582,10.1614,10.2406,10.2412,10.1619,10.0801,9.9984,9.9098,9.6712,9.0661,8.2039,7.4129,7.183,7.2166,0.0,0.0,0.0,0.0,0.0,0.0,0.0,0.0,0.0,0.0,0.0,0.0,0.0,0.0,0.0,0.0,0.0,0.0,0.0,0.0,0.0,0.0,0.0,0.0,0.0,0.0,0.0,0.0,0.0,0.0,0.0,0.0,0.0,7.1462,8.182,8.8927,8.8426,9.549,9.7525,9.0204,9.3051,9.5742,9.667,9.9745,10.3092,10.6515,10.8211,10.9903,11.159,11.3288,11.4602,11.5412,11.6981,11.7404,11.6605,11.8295,11.8715,11.7905,11.8712,11.91,11.9103,11.8212,11.7786,11.7712,11.5984,11.4409,11.2404,10.8208,10.5518,10.3984,10.3984,10.4487,10.491,0.0,0.0,0.0,0.0,0.0,0.0,0.0,3.7813,4.1927,4.9341,5.8736,6.9015,8.0351,8.9165,9.5479,9.8567,9.3359,8.8435,8.5021,7.5146,6.9966,7.1138,7.3216,7.7935,8.558,8.8723,9.3414,9.9859,10.2113,10.3508,10.409,10.4981,10.5285,10.4991,10.421,10.3282,10.249,10.0613,9.775,9.3639,8.4448,7.8035,7.3588,0.0,0.0,0.0,0.0,0.0,0.0,0.0,0.0,0.0,0.0,0.0,0.0,0.0,0.0,0.0,0.0,0.0,0.0,0.0,0.0,0.0,0.0,0.0,0.0,0.0,0.0,0.0,0.0,0.0,0.0,0.0,0.0,7.9931,8.194,8.9179,9.6002,10.0702,10.4898,10.6084,10.2788,10.3011,10.4092,10.6213,10.7216,10.9213,11.2717,11.3794,11.491,11.6017,11.7097,11.7792,11.8103,11.8484,11.86,11.841,11.8908,11.8985,11.8792,11.8985,11.91,11.91,11.8789,11.8405,11.7789,11.7289,11.6097,11.4294,11.1285,10.8708,10.6713,10.6713,10.5985,10.4987,0.0,0.0,0.0,0.0,0.0,0.0,0.0,3.8364,4.3063,5.1832,6.2775,7.4041,8.5384,9.4272,9.9962,10.1399,9.5598,8.9578,8.4136,7.584,7.1831,7.3443,0.0,8.4731,9.1991,9.5134,9.9103,10.4105,10.5311,10.6192,10.6701,10.7189,10.7409,10.7414,10.6486,10.5904,10.54,10.411,10.26,10.0608,9.496,8.8696,8.22,7.715,7.4087,7.209,6.922,6.7901,6.7173,6.5084,0.0,0.0,0.0,0.0,0.0,0.0,0.0,0.0,0.0,0.0,0.0,0.0,0.0,0.0,0.0,0.0,0.0,0.0,0.0,0.0,0.0,0.0,0.0,0.0,8.1408,8.9527,9.5497,9.875,10.2784,10.8903,11.1486,11.2294,11.0983,11.0714,11.1406,11.3214,11.3717,11.5105,11.7798,11.8416,11.8987,11.9902,12.01,12.0292,12.0716,12.0292,11.9988,11.9603,11.9988,12.01,12.01,12.01,12.0292,0.0,11.9908,11.9292,11.8789,11.8482,11.76,0.0,0.0,0.0,0.0,0.0,10.929,10.7713,0.0,0.0,0.0,0.0,0.0,0.0,0.0,3.8438,4.3575,5.3371,6.5154,7.6864,8.8068,9.6511,10.1284,10.121,9.5341,8.8472,8.1077,7.5939,7.418,7.6449,8.5253,9.179,9.5442,10.1893,10.6082,10.7708,10.8615,10.9098,10.9098,10.9281,10.9312,10.9312,10.8516,10.8117,10.808,10.7304,10.5983,10.4394,10.4404,10.0518,9.3869,8.6066,8.3876,8.4399,7.9992,7.6362,7.3313,7.1219,0.0,0.0,0.0,0.0,0.0,0.0,0.0,0.0,0.0,0.0,0.0,0.0,0.0,0.0,0.0,0.0,0.0,0.0,0.0,0.0,0.0,0.0,0.0,0.0,9.023,9.8252,10.9488,10.9403,10.9901,11.4291,11.6182,11.68,11.6105,11.6682,11.7602,11.8402,11.9289,12.0488,12.2106,0.0,0.0,0.0,0.0,12.2488,12.3213,12.2488,12.1683,12.0716,12.1606,12.1991,12.1914,12.1914,12.2296,12.2787,12.1293,12.0488,12.0216,11.9485,11.8715,11.7594,11.5987,11.4794,11.4099,11.3981,11.2981,0.0,0.0,0.0,0.0,0.0,0.0,0.0,0.0,3.8905,4.459,5.4981,6.6332,7.7308,8.7329,9.5662,10.0288,9.9617,9.3643,8.6522,7.8537,7.7627,8.0163,8.6317,9.1569,9.7043,10.2915,10.5091,10.689,10.8589,11.0004,11.0696,11.0812,11.2113,11.2706,11.2585,11.1814,11.1489,11.141,11.0592,10.9307,10.7807,10.7115,10.3014,9.6883,9.3906,9.1792,8.9942,8.6372,8.6138,8.6931,8.3427,8.1357,7.9531,7.5083,0.0,0.0,0.0,0.0,0.0,0.0,0.0,0.0,0.0,0.0,0.0,0.0,0.0,0.0,0.0,0.0,0.0,0.0,0.0,0.0,9.0733,9.971,10.8213,11.5289,11.8289,11.9789,12.0106,12.0414,12.0609,12.0414,12.1219,12.1982,12.2787,12.3716,12.4604,12.5687,12.5684,0.0,12.5992,12.58,12.5492,12.4909,12.5412,12.4912,12.3405,0.0,0.0,12.3601,12.3601,12.3405,12.2902,12.2518,12.1597,12.0295,12.01,11.9215,11.7594,11.5987,11.5182,11.4989,11.4294,11.3288,11.2404,0.0,0.0,0.0,0.0,0.0,0.0,0.0,3.8689,4.4005,5.3731,6.3463,7.2896,8.1774,8.7839,9.0743,8.9532,8.4617,8.0689,7.8695,8.1958,8.7243,9.4547,9.9544,10.4016,10.8096,10.9391,11.0388,11.119,11.1998,11.2401,11.2396,11.3215,11.3587,11.3587,11.3215,11.2994,11.2994,11.2585,11.1919,11.1195,11.0797,10.871,10.529,10.0791,9.8332,9.7057,9.4997,9.4145,9.3707,9.161,8.935,8.6808,8.2944,7.88,7.4282,0.0,0.0,0.0,0.0,0.0,0.0,0.0,0.0,0.0,0.0,0.0,0.0,0.0,0.0,7.2959,7.8436,0.0,9.2758,10.079,10.8008,11.4794,12.0793,12.3405,12.4604,12.4184,12.4187,12.4187,12.4187,12.4489,12.5098,12.5903,12.6406,12.6983,12.7912,12.7989,12.8182,12.8605,12.7797,12.7294,12.7294,12.6912,12.63,12.5412,12.5797,12.5986,12.5983,12.5098,12.4793,12.4716,12.3482,12.2598,12.2098,12.1296,12.0218,11.8908,11.7215,11.6294,11.5797,11.5412,11.4714,11.3907,0.0,0.0,0.0,0.0,0.0,0.0,0.0,3.8364,4.2986,5.1602,5.938,6.694,7.4386,7.8108,7.9437,7.783,7.5363,7.5913,8.0657,8.7427,9.4542,10.1903,10.7514,11.1001,11.2097,11.3618,11.42,11.4101,11.42,11.4316,11.4316,11.4505,11.4494,11.4494,11.4494,11.461,11.4799,11.4799,11.4689,11.4494,11.4683,11.461,11.3692,10.7912,10.5311,10.4389,10.3298,10.0612,9.7546,9.7352,9.493,9.1545,8.9106,8.6604,8.3095,7.5938,7.3208,0.0,0.0,0.0,0.0,0.0,0.0,0.0,0.0,0.0,6.9694,7.424,7.7755,8.2312,8.9916,9.5596,10.1902,11.0284,11.5412,12.0106,12.5412,12.6989,12.7685,12.7915,12.7492,12.7184,12.7184,12.7297,12.7682,12.8403,12.8711,12.9214,12.991,13.0099,13.0407,13.099,12.9599,12.9099,12.9406,12.8297,12.7492,12.7184,12.7415,12.7717,12.8095,12.6601,12.6181,12.6607,12.4216,12.3598,12.4213,12.2488,12.1296,12.0411,11.8908,11.7715,11.6682,11.6608,11.6108,11.5489,0.0,0.0,0.0,0.0,0.0,0.0,0.0,0.0,4.2584,5.0102,5.6221,6.1875,6.7136,7.0576,7.1861,7.025,7.2966,7.7704,8.4654,9.323,10.1305,10.8589,11.3601,11.5982,11.5491,11.6312,11.6385,11.5705,11.6385,11.6789,11.6789,11.7492,11.7908,11.7908,11.7908,11.8317,11.8899,11.8899,11.8495,11.7902,11.8599,11.8091,11.6789,11.669,11.4409,11.1001,10.8804,10.4887,10.0818,10.0916,9.9573,9.7758,9.6722,9.4577,9.1368,8.5976,0.0,7.2547,6.8739,6.5709,6.4487,6.7968,6.8609,7.0639,0.0,0.0,8.2136,8.7796,9.108,9.4348,9.905,10.4707,11.0512,11.5984,12.11,12.5409,12.8406,13.0102,13.1416,13.2189,13.0298,12.8906,12.8906,12.9602,13.0105,13.0217,13.1605,13.2493,13.2612,13.3295,13.341,13.2686,13.2493,13.1801,13.0413,13.0913,13.0413,12.8906,12.9682,12.9717,12.8983,12.8095,12.7294,12.6607,12.4793,12.4486,12.5101,12.3405,12.2216,12.1417,12.0411,11.91,11.76,11.6797,11.6413,11.63,0.0,0.0,0.0,0.0,0.0,0.0,0.0,0.0,0.0,4.6611,5.0944,5.4871,5.8394,5.9967,6.0664,6.049,6.761,7.6203,8.5857,9.6602,10.6297,11.4488,11.7792,11.9187,11.8899,11.9187,11.9187,11.8899,11.9187,11.9407,11.9407,11.97,11.989,11.989,11.989,11.9988,12.041,12.041,12.0184,11.989,12.0214,12.0,11.9297,11.8593,11.5489,11.1109,10.9315,10.5411,0.0,0.0,10.0183,9.883,9.884,9.617,9.2087,8.7319,8.108,0.0,7.1552,7.1068,7.2083,0.0,7.7637,8.1846,8.7516,8.931,9.1146,9.6069,9.9096,10.2602,10.8406,11.2717,11.6984,0.0,12.5986,12.8909,13.041,13.1682,13.2186,13.1605,13.0987,13.1102,13.2102,13.2487,13.2487,13.1993,13.3106,13.3491,13.2994,13.3298,13.3417,13.2997,13.2493,13.1913,13.1182,13.149,13.1298,13.0682,13.0987,13.0987,13.0602,12.9794,12.8717,12.7409,12.7214,12.6406,12.5293,12.4598,12.3601,12.2216,12.0793,11.9603,11.8484,11.76,11.691,11.6492,0.0,0.0,0.0,0.0,0.0,0.0,0.0,0.0,0.0,0.0,4.6764,4.9373,5.1599,5.1856,5.2373,5.3631,6.2955,7.3777,8.5555,9.7924,10.8788,11.8006,12.1095,12.2301,12.1903,12.2307,12.2411,12.2196,12.2196,12.2196,12.2196,12.2196,12.2196,12.2196,12.2496,12.2606,12.2606,12.2784,12.279,12.2606,12.2606,12.2307,12.1591,11.8684,11.4305,10.9408,10.7683,10.3016,0.0,0.0,9.6273,9.5434,9.6104,9.4085,9.0772,8.7259,8.183,7.6403,7.3902,7.5903,0.0,8.1443,8.6946,9.264,9.5634,9.7983,10.0717,10.471,10.729,11.0796,11.6602,11.9408,12.2411,12.6992,12.949,13.1105,13.1913,13.2417,13.199,13.0294,13.041,13.1295,13.3099,13.3487,13.341,13.2994,13.3795,13.4103,13.3686,13.3917,13.3917,13.3686,13.2913,13.2298,13.2109,13.1798,13.1682,13.1682,13.1682,13.1682,13.1682,13.0913,12.9794,12.8596,12.8983,12.8217,12.6409,12.5681,12.4486,12.3098,12.1293,12.018,11.9411,11.8712,11.7792,11.6913,0.0,0.0,0.0,0.0,0.0,0.0,0.0,0.0,0.0,0.0,0.0,0.0,0.0,4.8448,4.9441,5.1874,6.0269,7.091,8.3834,9.6764,10.829,11.8012,12.3695,12.6014,12.4399,12.5904,12.6308,12.5592,12.5592,12.5592,12.5592,12.5592,12.5592,12.5592,12.6387,12.6705,12.6785,12.7605,12.7409,12.6705,12.6705,12.5794,12.3683,11.7795,11.211,10.6989,10.4493,0.0,0.0,0.0,8.6521,8.6638,8.7501,8.8254,0.0,8.7622,8.1973,7.6015,7.5899,7.894,8.3557,8.9361,9.5328,10.0794,10.5015,10.8593,11.198,11.5294,11.741,11.9715,12.3213,12.4601,12.6294,12.9794,13.1105,13.1993,13.2801,13.2301,13.1102,12.9406,12.848,12.8714,0.0,13.1298,13.2106,13.2917,13.3795,13.46,13.5411,13.618,13.6299,13.5488,13.46,13.3795,13.2997,13.2109,13.1682,13.1682,13.1682,13.1682,13.1682,13.0913,13.049,13.0413,12.9602,12.9217,12.8906,12.6409,12.4909,12.3906,12.2183,12.0991,12.0295,12.0216,11.9215,11.7789,0.0,0.0,0.0,0.0,0.0,0.0,0.0,0.0,0.0,0.0,0.0,0.0,0.0,0.0,0.0,0.0,5.8663,6.743,7.8255,9.162,10.3004,11.1704,11.9982,12.4503,12.4515,12.6601,12.7813,12.8106,12.8106,12.8406,12.8883,12.8883,12.8883,12.8883,12.9214,12.9318,12.9318,12.8981,12.8394,12.7605,12.5983,12.389,12.1297,11.6783,10.8098,9.7869,0.0,0.0,0.0,0.0,7.9894,7.9614,8.0878,8.0475,7.8857,7.5712,7.6975,7.9515,8.0054,8.5747,9.3131,9.9668,10.5287,11.0406,11.4714,11.7404,11.9097,11.8987,11.8103,11.7679,11.8795,12.0216,12.2293,12.5717,13.0294,13.3718,13.4487,13.4914,13.341,12.8903,12.9099,0.0,0.0,0.0,0.0,13.368,13.41,13.4718,13.5488,13.5795,13.5795,13.5488,13.4183,13.3301,13.2997,13.2106,13.1682,13.1682,13.1682,13.1682,13.1682,13.1413,13.1298,13.1298,13.099,13.0605,12.991,12.7906,12.6214,12.4793,12.3716,12.1985,12.0408,12.1597,12.0905,11.9292,0.0,0.0,0.0,0.0,0.0,0.0,0.0,0.0,0.0,0.0,0.0,0.0,0.0,0.0,0.0,0.0,0.0,6.3759,7.2933,8.4278,9.4524,10.3214,11.0199,11.4592,11.6208,11.7199,11.8814,12.1089,12.26,12.4289,12.6197,12.7702,12.8516,12.881,12.9097,12.9391,12.9501,12.7599,12.6308,12.5084,12.0589,11.7183,11.4179,10.7702,9.8602,0.0,0.0,0.0,0.0,0.0,7.2038,7.2824,7.2864,7.3347,7.3446,7.1289,7.6242,8.317,8.6401,9.3708,10.2017,10.8785,11.4096,11.8484,12.1796,12.3488,12.3793,12.1985,11.8913,11.6413,11.6105,11.5987,11.6984,12.0408,12.5598,13.0214,13.291,13.2718,13.1295,12.8714,12.7983,12.6714,0.0,0.0,0.0,13.2718,13.3487,13.4491,13.5911,13.6299,13.6414,13.6414,13.5109,13.4186,13.3917,13.2686,13.199,13.1682,13.1682,13.1682,13.1682,13.1682,13.1682,13.1682,13.1682,13.1105,12.991,12.848,12.6906,12.5293,12.4406,12.3098,12.1793,12.2598,12.2213,12.0985,0.0,0.0,0.0,0.0,0.0,0.0,0.0,0.0,0.0,0.0,0.0,0.0,0.0,0.0,0.0,0.0,0.0,0.0,6.7851,7.5242,8.3537,9.295,9.5364,9.7924,10.1107,9.9869,10.1494,10.6198,11.001,11.3901,11.7792,12.1683,12.3891,12.4699,12.55,12.6308,12.6718,12.2912,12.0715,11.9194,11.1089,10.6294,10.2791,9.2125,8.493,7.9493,0.0,0.0,6.3046,6.1513,6.3825,6.6941,6.4623,6.7859,7.2902,7.4859,8.0281,8.732,9.4939,10.2594,11.0098,11.6594,12.129,12.4713,12.6415,12.6684,12.6104,12.3982,11.9487,11.5608,0.0,0.0,11.1106,11.4486,11.841,12.3104,12.8906,12.6983,12.6101,0.0,0.0,0.0,0.0,0.0,0.0,13.0294,0.0,13.4109,13.6684,13.7687,13.8187,13.8187,13.7302,13.6414,13.5603,13.3917,13.2689,13.1798,13.1798,13.1801,13.1801,13.1682,13.1682,13.1682,13.1682,13.0798,12.9214,12.8285,12.6983,12.5412,12.4601,12.4213,12.3982,12.321,12.2902,12.2713,0.0,0.0,0.0,0.0,0.0,0.0,0.0,0.0,0.0,0.0,0.0,0.0,0.0,0.0,0.0,0.0,0.0,0.0,6.0779,6.8495,7.5216,8.051,8.8647,9.4295,9.6965,9.8993,10.12,10.3618,10.4687,10.6297,10.8494,10.9601,11.0482,11.13,11.1484,11.1698,11.1816,11.0692,10.8591,10.5802,10.2397,9.8253,9.3705,8.9228,8.2716,7.5482,7.1567,6.7201,6.3314,6.3549,6.6861,7.1017,7.1589,7.413,7.7984,8.352,9.0406,9.7754,10.4794,11.2711,11.9905,12.3485,12.5717,12.7015,12.748,12.7101,12.4799,11.7984,11.1986,10.5987,9.9522,10.2715,0.0,11.1788,12.2713,0.0,13.6215,13.6485,0.0,13.2417,0.0,13.0291,12.7518,12.8214,0.0,0.0,13.2186,13.3686,13.7613,13.8488,13.8985,13.8985,13.7607,13.6684,13.6491,13.4795,13.391,13.36,13.2994,13.2689,13.2609,13.199,13.1682,13.1682,13.1682,13.1105,13.0102,12.9214,12.7909,12.6297,12.6104,12.5216,12.4098,12.3906,12.3402,12.271,0.0,0.0,0.0,0.0,0.0,0.0,0.0,0.0,0.0,0.0,0.0,0.0,0.0,0.0,0.0,0.0,0.0,0.0,0.0,6.2157,6.6771,7.033,7.5984,8.0384,8.3251,8.4384,8.6489,8.9672,9.1334,9.3575,9.6348,9.8152,9.944,10.0296,10.0806,10.1206,10.1382,9.9577,9.7512,0.0,0.0,8.6927,8.3335,8.0183,7.5525,7.042,6.8737,6.7971,6.8084,7.0052,7.2594,7.5597,7.9169,8.2789,8.7064,9.391,10.0293,10.66,11.3412,11.9795,12.5101,12.7297,12.8099,12.7711,12.471,12.3101,11.949,10.9911,10.3217,9.6983,9.0364,9.548,10.1902,10.5905,0.0,0.0,13.6792,13.7712,13.7603,0.0,13.568,0.0,13.1484,13.1791,13.2913,0.0,13.3491,13.4487,13.8411,13.9408,13.9908,13.9908,13.86,13.7411,13.618,13.5295,13.46,13.4292,13.3795,13.3417,13.2997,13.2493,13.2109,13.1682,0.0,13.1182,13.041,12.9602,12.8406,12.7217,12.68,12.6104,12.5101,12.4409,12.379,12.329,0.0,0.0,0.0,0.0,0.0,0.0,0.0,0.0,0.0,0.0,0.0,0.0,0.0,0.0,0.0,0.0,0.0,0.0,0.0,0.0,5.9525,6.2524,6.2581,6.3951,6.6963,6.5885,6.7559,7.2123,7.5496,7.9135,8.3024,8.659,8.8708,8.9534,9.0559,9.1402,9.19,8.8634,8.6669,8.5139,7.8847,7.5221,7.3193,0.0,0.0,6.5785,6.5051,6.8164,7.3357,7.8096,8.0214,8.1866,8.775,9.3099,9.8488,10.5182,10.9906,11.4401,12.0914,12.4915,12.7685,12.9217,12.9406,12.7406,12.0485,11.71,11.2299,10.0911,9.402,8.8669,8.4202,8.928,9.5708,10.0411,11.3486,12.6211,13.5407,13.61,13.7292,14.1915,13.8988,13.66,13.6485,13.5795,13.5988,13.7491,13.618,13.6485,13.9289,14.0408,14.0796,14.0408,13.9789,13.8293,13.5911,13.5795,13.5488,13.4792,13.4484,13.391,13.3186,13.2917,13.2417,13.1682,0.0,0.0,13.041,12.9717,12.8788,12.7785,12.7297,12.6915,12.6492,12.4986,12.429,12.3906,0.0,0.0,0.0,0.0,0.0,0.0,0.0,0.0,0.0,0.0,5.0621,4.9419,0.0,0.0,0.0,0.0,0.0,0.0,0.0,0.0,0.0,5.927,6.0566,6.1979,6.3609,6.4741,6.6061,6.7644,6.8943,7.0332,7.1714,7.2445,7.3321,7.438,7.471,7.5103,7.5536,7.5469,7.4153,7.2021,7.1308,6.9562,6.7349,0.0,0.0,0.0,6.5747,6.6784,7.0017,8.1864,8.9133,9.4134,9.9368,10.4482,10.9788,11.5907,11.9212,12.1902,12.6598,12.9294,13.0913,13.1182,13.0217,12.7214,11.971,11.3984,10.6485,9.3371,8.7021,8.2131,7.6509,8.3322,9.3443,10.4597,11.6212,12.8288,14.1097,14.2713,14.3213,0.0,14.3713,14.2601,14.1919,14.1108,0.0,0.0,0.0,14.0489,14.0408,14.1797,14.1681,13.9597,14.0101,13.9488,13.769,13.761,13.761,13.7418,13.5295,13.4215,13.3984,13.2606,13.1798,13.1682,0.0,0.0,13.049,13.0294,12.9291,12.8019,12.8483,12.7912,12.6687,12.6415,12.5293,12.3982,0.0,0.0,0.0,0.0,0.0,0.0,0.0,4.9148,5.1421,5.63,5.6675,5.5506,5.3018,5.2535,5.2698,0.0,0.0,0.0,0.0,0.0,0.0,0.0,0.0,0.0,6.2048,6.3084,6.3795,6.4127,0.0,6.5075,6.5621,6.5673,6.6182,6.7117,6.7621,6.7945,6.8162,6.8706,6.8184,6.7137,6.7557,6.6976,0.0,0.0,0.0,0.0,0.0,6.8401,7.2864,8.0289,9.0827,10.2099,10.8983,11.4596,11.9482,12.3716,12.579,12.7486,13.0413,13.2106,13.291,13.2493,13.041,12.5406,11.3288,10.6597,9.8634,8.3253,7.8134,7.5245,7.1545,7.9898,8.9943,9.7824,10.9785,12.279,13.5908,13.8908,14.1716,14.6986,14.6909,14.599,14.5185,14.4297,14.3797,0.0,0.0,14.3297,14.1992,14.2304,14.1681,13.9985,14.0408,13.9989,13.8719,13.8303,13.8114,13.8114,13.6414,13.51,13.4295,13.341,13.2606,13.1682,13.1682,0.0,13.1105,13.0217,12.9602,12.9217,12.8297,12.7909,12.7794,12.6489,12.5797,12.5216,0.0,0.0,0.0,0.0,0.0,0.0,0.0,5.2425,5.5065,6.1404,6.3166,6.2215,5.7895,5.5424,5.4082,0.0,0.0,0.0,0.0,0.0,0.0,0.0,0.0,0.0,0.0,0.0,0.0,6.142,6.1941,0.0,0.0,0.0,0.0,0.0,6.473,6.5093,6.5206,6.5523,6.5649,0.0,0.0,6.59,0.0,0.0,0.0,0.0,0.0,6.9323,7.4401,7.8098,8.8985,10.2599,11.148,11.8985,12.4989,12.6986,12.8717,13.041,13.2417,13.3798,13.4295,13.3301,12.9987,12.3018,10.7405,9.975,9.1323,7.5247,7.094,6.9783,6.8854,7.6742,8.5243,9.0823,10.1904,11.4791,12.9413,13.3795,13.8985,14.8406,14.8987,14.8494,14.7798,14.6798,0.0,14.5294,0.0,0.0,14.3493,14.2412,14.1492,14.0604,14.0796,14.0489,13.9601,13.8992,13.8495,13.8299,13.7302,13.5911,13.4292,13.41,13.318,13.1682,13.1682,0.0,0.0,13.0294,12.9987,13.0294,12.8493,12.8412,12.8983,12.6986,12.6412,12.6415,0.0,0.0,0.0,0.0,0.0,0.0,0.0,5.3859,5.8369,6.6983,6.7617,6.6265,6.3622,6.1065,5.8131,0.0,0.0,0.0,0.0,0.0,0.0,0.0,0.0,0.0,0.0,0.0,0.0,5.9915,6.1683,0.0,0.0,0.0,0.0,0.0,0.0,6.5097,6.5375,6.5723,0.0,0.0,0.0,0.0,0.0,0.0,0.0,0.0,0.0,6.6285,6.8363,7.8519,8.4593,8.959,9.9668,11.1598,12.1991,12.2183,12.5101,12.8906,13.2109,13.4183,13.4988,13.3417,12.8682,12.079,10.6982,9.7016,8.6857,7.3745,6.9132,6.7901,6.9319,7.2355,7.8781,9.1404,9.7175,10.7216,12.7717,13.341,13.8985,14.8406,15.0102,15.041,15.041,14.8913,14.7917,14.7917,0.0,0.0,14.429,14.2797,14.1492,14.0604,14.1415,14.1415,14.0489,14.0412,13.9989,13.9216,13.7607,13.5911,13.4295,13.3494,13.2609,13.1682,13.1682,0.0,0.0,13.149,13.1105,13.0487,13.0987,13.041,12.9217,12.8906,12.7909,12.6607,0.0,0.0,0.0,0.0,0.0,0.0,5.2236,5.3849,5.8067,6.8925,7.0066,6.9706,6.9192,6.6507,6.1871,5.4693,0.0,0.0,0.0,0.0,0.0,0.0,0.0,0.0,0.0,0.0,6.0141,5.9519,6.163,0.0,0.0,0.0,0.0,0.0,0.0,6.5335,6.5527,6.5777,0.0,0.0,0.0,0.0,0.0,0.0,0.0,0.0,0.0,0.0,6.7935,7.1285,7.7515,8.3824,8.3785,9.3136,10.61,11.6292,12.229,12.6791,13.2295,13.5414,13.6491,13.4298,12.7409,11.7789,10.521,9.3903,8.2939,7.1703,6.7782,6.6901,6.8587,7.0587,7.4705,8.3174,8.6983,9.4518,11.0711,11.7215,12.5296,13.8793,14.3293,14.6798,15.041,0.0,14.9298,0.0,0.0,0.0,14.5217,14.3608,14.2492,14.2108,14.1992,14.1685,14.1415,14.0293,13.9597,13.9289,13.7603,13.5911,13.4292,13.3907,13.299,13.1682,13.1682,0.0,0.0,13.1182,13.1105,13.1182,13.049,13.041,13.0487,12.8983,12.8288,12.7909,0.0,0.0,0.0,0.0,0.0,4.5039,5.3151,5.4541,5.8541,6.9512,7.116,7.1474,7.1915,6.8563,6.3503,5.6653,5.5607,0.0,0.0,0.0,0.0,0.0,0.0,0.0,0.0,0.0,6.0688,6.0211,6.2619,6.3495,0.0,0.0,6.4552,6.4779,0.0,0.0,0.0,0.0,0.0,0.0,0.0,0.0,0.0,0.0,0.0,0.0,0.0,0.0,0.0,0.0,0.0,7.7784,7.3247,7.9094,9.071,10.6403,11.5789,12.2598,12.9406,13.4411,13.7187,13.4911,12.6406,11.5712,10.4015,9.2133,8.0789,7.0818,6.7662,6.7142,6.8517,6.9968,7.2602,7.7682,8.0637,8.6942,10.0207,10.629,11.4794,12.9214,13.4487,13.9604,0.0,14.8987,14.9718,0.0,0.0,0.0,14.6105,14.4412,14.3416,14.3111,14.23,14.1915,14.1915,14.0408,13.9601,13.9289,13.7915,13.6183,13.4292,13.4292,13.3292,13.1682,0.0,0.0,0.0,13.1105,13.1182,13.1605,13.041,13.0682,13.1413,12.9099,12.8714,12.8906,0.0,0.0,0.0,0.0,0.0,0.0,5.3151,5.6421,6.0863,6.9049,7.08,7.1158,7.0744,6.6086,6.2365,6.0946,5.7558,0.0,0.0,0.0,0.0,0.0,0.0,0.0,0.0,0.0,0.0,6.2177,6.5006,6.5966,6.5183,6.6688,6.6541,6.5095,0.0,0.0,0.0,0.0,0.0,0.0,0.0,0.0,0.0,0.0,0.0,0.0,0.0,0.0,0.0,0.0,0.0,0.0,0.0,7.3322,7.8669,9.1486,10.4217,11.5599,12.2408,13.041,13.6414,13.4715,12.5983,11.4901,10.3782,9.2133,8.0945,7.1629,6.9088,6.8796,6.954,7.047,7.271,7.7697,8.0637,8.7365,10.1791,10.61,11.1519,12.179,12.4486,12.8913,13.7379,14.5105,14.9102,0.0,0.0,0.0,14.6913,14.5294,14.3986,14.3108,14.23,14.1915,14.1915,14.0989,14.0219,13.9289,13.8495,13.6802,13.4292,13.4292,13.3292,0.0,0.0,0.0,0.0,13.1682,13.1682,13.1682,13.1682,13.1682,13.149,12.9791,12.9214,12.8986,0.0,0.0,0.0,0.0,0.0,0.0,0.0,5.0873,5.4284,6.2401,6.368,6.5162,6.8683,6.4868,6.1986,6.1745,5.8448,0.0,0.0,0.0,0.0,0.0,0.0,0.0,0.0,0.0,0.0,6.4943,6.7422,6.8631,6.8623,6.8255,6.7713,6.6966,6.5627,6.5333,0.0,0.0,0.0,0.0,0.0,0.0,0.0,0.0,0.0,0.0,0.0,0.0,0.0,0.0,0.0,0.0,0.0,0.0,0.0,7.8436,9.0938,10.4287,11.1714,11.6984,11.9715,11.6789,10.9595,10.1286,9.429,8.5288,7.6747,7.0897,6.9048,6.8721,6.9689,7.0017,7.2602,8.0098,8.1862,8.5519,9.4828,10.4287,11.3211,12.1103,13.4798,14.4605,0.0,0.0,14.9987,0.0,0.0,0.0,14.6105,14.4983,14.4294,14.3986,14.2604,14.1915,14.1915,14.0408,13.9601,13.9289,13.7296,13.5603,13.4292,13.3683,0.0,0.0,0.0,0.0,0.0,13.1682,13.1682,13.1682,13.1682,13.1416,13.0718,12.9599,12.8788,12.8214,0.0,0.0,0.0,0.0,0.0,0.0,0.0,4.8196,5.0949,5.689,5.8057,6.0186,6.5219,6.1776,5.9889,6.1827,5.9093,0.0,0.0,0.0,0.0,0.0,0.0,0.0,0.0,0.0,6.4462,6.7988,7.0314,7.1678,7.2001,7.1796,7.0373,6.7933,6.6763,6.6089,0.0,0.0,0.0,0.0,0.0,0.0,6.59,0.0,0.0,0.0,0.0,0.0,0.0,0.0,0.0,0.0,0.0,0.0,0.0,0.0,8.0089,9.0669,10.0907,10.7216,11.0288,10.8211,10.202,9.498,8.987,8.2366,7.5284,7.1012,6.9746,6.9576,7.0188,7.0525,7.2768,7.9098,8.0821,8.417,9.2291,10.2212,11.2099,12.1408,13.6918,0.0,0.0,0.0,0.0,0.0,0.0,0.0,14.6217,14.4983,14.4406,14.4406,14.2797,14.1681,14.1412,13.9985,13.9097,13.8796,13.6603,13.5103,13.4295,13.3417,0.0,0.0,0.0,0.0,0.0,13.1682,13.1682,13.1682,13.1682,13.1182,13.0413,12.9483,12.8596,12.7788,0.0,0.0,0.0,0.0,0.0,0.0,0.0,4.7848,5.0185,5.2556,5.3792,5.6095,6.0463,5.7222,5.6513,6.0981,0.0,0.0,0.0,0.0,0.0,0.0,0.0,0.0,0.0,6.2588,6.5657,7.0936,7.3326,7.4773,7.5316,7.6597,7.4017,6.8367,6.8473,0.0,0.0,0.0,0.0,0.0,6.5578,6.5664,0.0,0.0,0.0,0.0,0.0,0.0,0.0,0.0,0.0,0.0,0.0,0.0,0.0,0.0,0.0,0.0,0.0,9.9291,10.5479,10.5405,10.0094,9.3593,8.8714,8.2137,0.0,7.1745,7.1008,7.1138,7.1202,7.1864,7.3335,7.6135,7.86,8.363,9.3602,10.1104,0.0,0.0,13.3491,0.0,0.0,0.0,0.0,0.0,0.0,0.0,14.6916,14.5294,14.4409,14.429,14.2681,14.1412,14.0604,13.9716,13.8796,13.8114,13.6299,13.4984,13.4295,13.3298,0.0,0.0,0.0,0.0,0.0,13.1682,13.1682,13.1682,13.1605,13.1105,13.0294,12.9406,12.8599,12.7711,0.0,0.0,0.0,0.0,0.0,0.0,0.0,0.0,0.0,0.0,5.0488,5.1984,5.4028,5.4128,5.488,0.0,0.0,0.0,0.0,0.0,0.0,0.0,0.0,0.0,0.0,6.3753,6.6922,7.1226,7.4153,7.6414,7.7985,7.7391,7.4903,7.0857,6.9405,0.0,0.0,0.0,0.0,0.0,6.5182,6.5532,0.0,0.0,0.0,0.0,6.6593,6.7938,0.0,0.0,0.0,0.0,0.0,0.0,0.0,0.0,6.9741,7.1474,7.5478,0.0,8.4134,8.2783,8.1591,8.0131,0.0,7.5665,0.0,0.0,0.0,7.1732,7.3857,7.325,7.4572,8.1205,8.3077,8.6361,9.3948,11.0183,0.0,13.6414,0.0,0.0,0.0,0.0,0.0,0.0,0.0,14.8294,14.6105,14.4986,14.4101,14.3412,14.1797,14.0796,14.0604,13.9107,13.8303,13.8114,13.568,13.4484,13.4215,13.2679,0.0,0.0,0.0,0.0,13.1682,13.1682,13.1682,13.1605,13.0987,13.0294,12.9406,12.8519,12.7714,12.6992,0.0,0.0,0.0,0.0,0.0,0.0,0.0,0.0,0.0,0.0,0.0,0.0,0.0,0.0,0.0,0.0,0.0,0.0,0.0,0.0,0.0,0.0,0.0,0.0,6.1906,6.3916,6.7349,7.2263,7.4883,7.7502,8.0115,7.9292,7.6327,7.1593,6.8252,0.0,0.0,0.0,0.0,0.0,6.5259,0.0,0.0,0.0,0.0,0.0,6.6402,6.7901,0.0,7.1049,7.2551,7.3633,0.0,0.0,0.0,0.0,6.759,6.8053,6.8476,7.3133,7.7634,7.667,7.6786,7.6709,7.5013,7.3741,0.0,0.0,0.0,7.1718,7.3731,7.3805,7.5328,8.0832,8.3814,8.9746,10.1986,0.0,12.9682,14.1108,14.599,0.0,0.0,0.0,0.0,0.0,0.0,14.799,14.5794,14.4909,14.3794,14.2608,14.0912,13.9985,13.9985,13.8296,13.7495,13.7495,13.4914,13.391,13.4215,13.249,13.1682,0.0,0.0,0.0,13.1682,13.1682,13.1682,13.1605,13.0798,12.9987,12.9099,12.8211,12.7409,12.6684,0.0,0.0,0.0,0.0,0.0,0.0,0.0,0.0,0.0,0.0,0.0,0.0,0.0,0.0,0.0,0.0,0.0,0.0,0.0,0.0,0.0,0.0,0.0,6.0973,6.2437,6.3903,6.7417,7.3121,7.5542,7.8348,8.1498,8.1644,7.8281,7.1891,6.729,0.0,0.0,0.0,0.0,0.0,6.5446,0.0,0.0,0.0,0.0,0.0,0.0,0.0,0.0,7.2007,7.4011,7.5282,7.3317,0.0,0.0,0.0,0.0,0.0,6.6708,7.275,7.8598,7.7288,7.7442,7.748,7.5786,7.3747,0.0,0.0,0.0,0.0,0.0,7.5049,0.0,8.0021,8.5314,9.5362,11.3599,12.1713,13.0102,14.1611,14.4489,0.0,0.0,0.0,0.0,0.0,0.0,14.7494,14.5797,14.4717,14.3489,14.1915,14.0104,13.91,13.91,13.7411,13.6488,13.6414,13.4109,13.3417,13.3984,13.241,13.1682,0.0,0.0,0.0,13.1682,13.1682,13.1605,13.1413,13.0798,12.9987,12.9099,12.8211,12.7486,12.6797,0.0,0.0,0.0,0.0,0.0,0.0,0.0,0.0,0.0,0.0,0.0,0.0,0.0,0.0,0.0,0.0,0.0,0.0,0.0,0.0,0.0,0.0,6.0478,6.1547,6.4162,6.5186,6.7728,7.1968,7.6421,7.945,8.1156,8.3802,8.1093,7.3858,7.0817,6.7723,6.4744,0.0,0.0,6.515,6.515,0.0,0.0,0.0,0.0,0.0,0.0,0.0,0.0,6.9045,7.1278,7.3315,7.0161,0.0,0.0,0.0,0.0,0.0,7.0249,7.5864,7.8977,7.1741,7.2626,7.4859,7.3171,0.0,0.0,0.0,0.0,0.0,0.0,8.0145,8.2064,0.0,0.0,10.7716,0.0,0.0,13.5795,0.0,0.0,0.0,0.0,0.0,0.0,0.0,0.0,0.0,14.5797,14.4185,14.2916,14.1915,13.9492,13.8303,13.8303,13.6607,13.5411,13.4718,13.3491,13.3112,13.3186,13.2186,13.1682,0.0,0.0,13.1682,13.1682,13.1682,13.1298,13.0682,13.0487,12.9987,12.9099,12.8211,12.7785,12.748,0.0,0.0,0.0,0.0,0.0,0.0,0.0,0.0,0.0,0.0,0.0,0.0,0.0,0.0,0.0,0.0,0.0,0.0,0.0,0.0,0.0,6.3434,6.2874,6.3167,6.4583,6.7567,7.1156,7.5264,7.9893,8.3253,8.5222,8.2492,7.8534,7.3561,6.9289,6.6296,6.4482,6.4647,6.4843,6.5103,0.0,0.0,0.0,0.0,0.0,0.0,0.0,0.0,0.0,0.0,7.1701,7.3701,7.1243,0.0,0.0,0.0,0.0,0.0,6.8287,7.2822,7.628,7.3241,7.7436,8.1325,7.7825,0.0,0.0,0.0,0.0,0.0,0.0,0.0,0.0,0.0,0.0,0.0,0.0,0.0,0.0,0.0,0.0,0.0,0.0,0.0,0.0,0.0,0.0,0.0,14.5101,14.38,14.23,14.0604,13.9415,13.7911,13.6106,13.5295,13.4907,13.4907,13.3103,13.2493,13.2997,13.2109,13.1682,13.1682,0.0,13.1682,13.1682,13.1682,13.149,13.1105,13.0682,12.9987,12.8983,12.7714,12.7294,12.7101,0.0,0.0,0.0,0.0,0.0,0.0,0.0,0.0,0.0,0.0,0.0,0.0,0.0,0.0,0.0,0.0,0.0,0.0,0.0,0.0,6.0965,6.477,6.4898,6.5688,6.7442,7.1208,7.5454,8.0133,8.4368,8.7536,8.9426,8.2379,7.719,7.3545,6.8323,6.5392,6.4312,6.4513,6.4853,6.5281,0.0,0.0,0.0,0.0,0.0,0.0,0.0,0.0,0.0,0.0,0.0,0.0,0.0,0.0,0.0,6.9247,6.7439,6.6745,6.7938,7.1398,7.5011,7.6513,0.0,8.5598,0.0,0.0,0.0,0.0,0.0,0.0,0.0,0.0,0.0,0.0,0.0,0.0,0.0,0.0,0.0,0.0,0.0,0.0,0.0,0.0,0.0,0.0,0.0,0.0,14.4217,14.33,14.1681,13.9405,13.91,13.76,13.46,13.4407,13.4407,13.4603,13.2606,13.199,13.2689,13.199,13.1682,13.1682,13.1682,13.1682,13.1682,13.1682,13.1605,13.1416,13.0718,12.9791,12.8714,12.7489,12.6915,12.6489,0.0,0.0,0.0,0.0,0.0,0.0,0.0,0.0,0.0,0.0,0.0,0.0,0.0,0.0,0.0,0.0,0.0,0.0,0.0,0.0,6.0052,6.2002,6.4817,6.9393,7.5852,7.6609,7.9799,8.562,8.9251,9.1213,9.15,8.6674,8.1259,7.5355,7.1408,6.7643,6.4297,6.4319,6.4918,6.5812,6.531,0.0,0.0,0.0,0.0,0.0,0.0,0.0,0.0,0.0,0.0,0.0,0.0,0.0,7.2211,7.1904,7.0129,6.9239,7.3976,7.6672,7.8365,7.9281,0.0,0.0,0.0,0.0,0.0,0.0,0.0,0.0,0.0,0.0,0.0,0.0,0.0,0.0,0.0,0.0,0.0,0.0,0.0,0.0,0.0,0.0,0.0,0.0,0.0,0.0,14.33,14.2416,0.0,13.9405,13.8607,13.7302,13.5407,13.4718,13.3484,13.199,13.1798,13.1682,13.1801,13.1682,13.1682,13.1682,13.1682,13.1682,13.1682,13.1682,13.1298,13.0605,13.049,12.9487,12.8019,12.7903,12.7291,12.6495,0.0,0.0,0.0,0.0,0.0,0.0,0.0,0.0,0.0,0.0,0.0,0.0,0.0,0.0,0.0,0.0,0.0,0.0,0.0,0.0,6.01,6.3393,6.6093,6.9816,7.4729,7.9811,8.5229,9.0973,9.4003,9.4241,9.1711,8.5631,7.9671,7.3959,6.9675,6.7055,6.5799,6.4747,6.5603,6.7583,6.6345,6.6294,0.0,0.0,0.0,0.0,0.0,0.0,0.0,0.0,6.8436,7.0321,6.9587,7.101,7.2782,7.1706,6.9973,6.8814,7.0739,7.4439,7.8098,7.9473,0.0,0.0,0.0,0.0,0.0,0.0,0.0,0.0,0.0,0.0,0.0,0.0,0.0,0.0,0.0,0.0,0.0,0.0,0.0,0.0,0.0,0.0,0.0,0.0,0.0,0.0,0.0,0.0,0.0,13.8607,13.8303,13.6991,13.4792,13.4484,13.341,13.1682,13.1682,13.1682,13.1682,13.1682,13.1682,13.1682,13.1682,13.1682,13.1682,13.1682,13.149,13.1102,13.0102,12.8983,12.7785,12.7291,12.6989,12.6607,0.0,0.0,0.0,0.0,0.0,0.0,0.0,0.0,0.0,0.0,0.0,0.0,0.0,0.0,0.0,0.0,0.0,0.0,5.6016,5.7149,5.9428,6.3175,6.5531,6.8974,7.3727,8.1576,8.794,9.2699,9.6441,9.5699,9.061,8.4669,7.9349,7.4593,7.0,6.8187,6.8457,6.6534,6.6812,6.8457,6.7199,6.6839,0.0,0.0,0.0,0.0,0.0,0.0,0.0,0.0,6.8015,6.9783,7.0239,7.1815,7.3355,7.2705,7.1512,7.0314,7.0084,7.2972,7.6707,0.0,0.0,0.0,0.0,0.0,0.0,0.0,0.0,0.0,0.0,0.0,0.0,0.0,0.0,0.0,0.0,0.0,0.0,0.0,0.0,0.0,0.0,0.0,0.0,0.0,0.0,0.0,0.0,0.0,0.0,0.0,13.7802,13.6607,13.4292,13.3984,13.3183,13.1682,13.1682,13.1682,13.1682,13.1682,13.1682,13.1682,13.1682,13.1682,13.1682,13.1413,13.0987,13.041,12.8986,12.7909,12.7018,12.6489,12.63,12.63,0.0,0.0,0.0,0.0,0.0,0.0,0.0,0.0,0.0,0.0,0.0,0.0,0.0,0.0,0.0,0.0,0.0,0.0,5.6827,5.6758,5.7779,6.0445,6.2706,6.7137,7.4047,8.1811,8.7224,9.014,9.61,9.5281,8.8072,8.4585,8.1228,7.7958,7.3355,7.1773,7.2305,6.9854,6.8516,6.8013,6.7735,6.7251,6.6763,0.0,0.0,0.0,0.0,0.0,0.0,0.0,6.7821,6.8016,7.3049,7.4123,7.3853,7.5474,7.5359,7.4509,7.3699,7.3507,7.4547,0.0,0.0,0.0,0.0,0.0,0.0,0.0,0.0,0.0,0.0,0.0,0.0,0.0,0.0,0.0,0.0,0.0,0.0,0.0,0.0,0.0,0.0,0.0,0.0,0.0,0.0,0.0,0.0,0.0,0.0,0.0,13.7184,13.5991,13.4292,13.3414,13.2612,13.1682,13.1682,13.1682,13.1682,13.1682,13.1682,13.1682,13.1682,13.1682,13.1605,13.0798,12.9487,12.7785,12.6989,12.6184,12.5412,12.5412,12.5412,12.5296,0.0,0.0,0.0,0.0,0.0,0.0,0.0,0.0,0.0,0.0,0.0,0.0,0.0,0.0,0.0,0.0,0.0,0.0,5.5168,5.6272,5.7515,5.8907,6.1727,6.438,6.6714,7.4527,8.3605,9.391,9.3938,9.0844,8.4756,8.1571,7.8407,7.5263,7.4083,7.2734,7.1259,6.9517,6.9278,6.9993,6.9557,6.9138,6.8805,0.0,0.0,0.0,0.0,0.0,0.0,0.0,0.0,0.0,7.051,7.3049,7.5013,7.371,7.3589,7.3393,7.1395,7.386,0.0,0.0,0.0,0.0,0.0,0.0,0.0,0.0,0.0,0.0,0.0,0.0,0.0,0.0,0.0,0.0,0.0,0.0,0.0,0.0,0.0,0.0,0.0,0.0,0.0,0.0,0.0,0.0,0.0,0.0,0.0,0.0,13.5988,13.5106,13.3417,13.3109,13.2612,13.1682,13.1682,13.1682,13.1682,13.1682,13.1682,13.1682,13.1682,13.1413,13.0798,12.991,12.8903,12.7903,12.7595,12.6986,12.6181,12.5604,12.5412,12.5296,0.0,0.0,0.0,0.0,0.0,0.0,0.0,0.0,0.0,0.0,4.8729,5.0168,0.0,0.0,0.0,0.0,0.0,0.0,0.0,5.6056,5.7517,5.8701,6.0917,6.3579,6.6685,7.3384,8.0133,8.6844,8.7284,8.5086,8.0494,8.0399,7.9515,7.8024,7.9168,7.7963,7.4991,7.3248,7.2021,7.1234,7.1131,7.0717,7.0166,0.0,0.0,0.0,0.0,0.0,0.0,0.0,0.0,0.0,6.9202,7.1435,7.3399,7.286,7.332,7.3855,7.3322,7.6518,0.0,0.0,0.0,0.0,0.0,0.0,0.0,0.0,0.0,0.0,0.0,0.0,0.0,0.0,0.0,0.0,0.0,0.0,0.0,0.0,0.0,0.0,0.0,0.0,0.0,0.0,0.0,0.0,0.0,0.0,0.0,0.0,13.5215,13.4411,13.2997,13.2689,13.2186,13.1682,13.1682,13.1682,13.1682,13.1682,13.1682,13.1682,13.1416,13.0605,12.9406,12.8906,12.7983,12.6906,12.6906,12.6409,12.5604,12.5101,12.4909,12.4793,0.0,0.0,4.5577,4.559,0.0,0.0,0.0,0.0,0.0,0.0,4.8162,4.9203,0.0,0.0,0.0,0.0,0.0,0.0,0.0,0.0,5.7747,5.9433,6.0756,6.4545,7.1151,7.5618,7.6231,7.294,7.7818,7.8695,7.5876,8.0219,8.2797,8.3854,8.6094,8.4889,8.0938,7.8441,7.515,7.1623,7.2206,7.1848,7.0898,7.0898,0.0,0.0,0.0,0.0,0.0,0.0,0.0,0.0,6.8781,6.9704,7.0241,7.2393,7.3817,7.5242,7.7711,0.0,0.0,9.5711,0.0,0.0,0.0,0.0,0.0,0.0,0.0,0.0,0.0,0.0,0.0,0.0,0.0,0.0,0.0,0.0,0.0,0.0,0.0,0.0,0.0,0.0,0.0,0.0,0.0,0.0,0.0,0.0,0.0,13.5295,13.4603,13.3798,13.2881,13.199,13.1605,0.0,13.1487,13.149,13.1605,13.1686,13.1686,13.149,13.0602,12.9406,12.79,12.7785,12.6788,12.5412,12.5412,12.4909,12.4213,12.4098,12.4213,12.4098,0.0,0.0,4.5416,4.5573,0.0,0.0,0.0,0.0,0.0,0.0,0.0,0.0,0.0,0.0,0.0,0.0,0.0,0.0,0.0,0.0,5.7747,5.9433,6.3928,6.7436,6.9643,6.9915,6.908,6.7093,7.1975,7.396,7.3373,7.7528,8.0576,8.2606,8.3762,8.203,7.7941,7.3846,7.1267,6.9942,7.0929,7.118,7.0898,7.0898,6.9743,0.0,0.0,0.0,0.0,0.0,0.0,0.0,6.8087,6.9587,7.0473,6.9738,7.197,7.5128,7.7057,8.1827,0.0,0.0,11.5599,12.8297,13.4914,0.0,0.0,0.0,0.0,0.0,0.0,0.0,0.0,0.0,0.0,0.0,0.0,0.0,0.0,0.0,0.0,0.0,0.0,0.0,0.0,0.0,0.0,0.0,13.7107,0.0,0.0,13.3609,13.3417,13.2917,13.1993,13.1182,13.1105,0.0,13.041,13.0102,13.0798,13.1413,13.1416,13.0682,12.9099,12.8211,12.7903,12.7217,12.6297,12.5412,12.5412,12.5296,12.4986,12.4409,12.4483,12.4909,0.0,0.0,0.0,0.0,0.0,0.0,0.0,0.0,0.0,0.0,0.0,0.0,0.0,0.0,0.0,0.0,0.0,0.0,0.0,0.0,5.8134,6.0631,6.5369,6.7415,6.6287,6.6432,6.5162,6.2386,6.4884,6.7714,0.0,7.5322,7.9323,8.2843,8.4017,8.1921,7.7303,7.4414,7.2245,7.0822,7.1633,7.2016,7.2049,7.1206,6.959,6.7627,6.6361,0.0,0.0,0.0,0.0,0.0,0.0,0.0,6.8552,6.8933,7.1166,7.4591,7.9592,0.0,0.0,11.2099,0.0,13.4798,13.7495,13.9415,14.0219,13.8911,0.0,0.0,0.0,0.0,0.0,0.0,0.0,0.0,0.0,0.0,0.0,0.0,0.0,0.0,0.0,0.0,0.0,0.0,0.0,13.6299,13.6183,13.5411,13.4295,13.2994,13.2997,13.2609,13.1682,13.0913,13.0718,13.1105,12.9791,12.9214,12.9291,12.9714,12.941,12.8605,12.7294,12.6483,12.6018,12.5601,12.4989,12.4213,12.4598,12.4793,12.4716,12.379,12.4101,12.4486,0.0,0.0,0.0,0.0,0.0,0.0,0.0,0.0,0.0,0.0,0.0,0.0,0.0,0.0,0.0,0.0,0.0,0.0,0.0,0.0,0.0,6.217,6.5512,6.6129,6.3579,6.4281,6.2953,5.9413,5.9158,0.0,0.0,0.0,0.0,8.3458,8.4356,8.2026,7.7315,7.5382,7.3321,7.1387,7.188,7.2284,7.247,7.101,6.9053,6.6979,6.6208,6.59,6.5902,6.6054,0.0,0.0,0.0,0.0,6.6476,6.8475,7.0323,7.3477,8.1244,9.1362,10.4097,12.2296,13.1913,0.0,13.7879,13.9299,14.0219,13.9405,13.9908,14.0408,0.0,0.0,0.0,0.0,0.0,0.0,0.0,0.0,0.0,0.0,0.0,0.0,0.0,0.0,0.0,0.0,0.0,13.4484,13.4988,13.4407,13.3683,13.2801,13.2801,13.2417,13.149,13.0682,13.0294,13.0298,12.9294,12.8291,12.748,12.7211,12.6791,12.6415,12.5607,12.4793,12.4098,12.4098,12.3598,12.2982,12.3598,12.3906,12.379,12.3095,12.3405,12.3906,0.0,0.0,0.0,0.0,0.0,0.0,0.0,0.0,0.0,0.0,4.7698,4.8547,0.0,4.9588,4.9974,5.0631,5.1663,5.2504,5.316,0.0,0.0,6.3008,6.4058,6.4757,6.5268,6.3254,6.1539,6.0227,0.0,0.0,0.0,0.0,0.0,8.3312,0.0,7.8983,7.5974,7.0627,6.8051,6.7564,6.81,6.8623,6.9045,6.8814,6.805,6.6979,0.0,6.59,6.6016,6.671,6.6942,0.0,0.0,0.0,6.6864,6.6516,6.8129,7.1089,7.5899,9.252,11.1601,12.448,13.2292,13.6991,0.0,0.0,13.9405,0.0,13.9405,13.9482,13.9482,13.9405,0.0,0.0,0.0,0.0,0.0,0.0,0.0,0.0,0.0,0.0,0.0,0.0,0.0,0.0,13.4907,13.3987,13.3417,13.3186,13.2801,13.1913,13.1913,13.149,13.0682,12.9794,12.9406,12.941,12.7797,12.6604,12.5717,12.421,12.429,12.5489,12.4716,12.4213,12.4098,12.4098,12.3598,12.2902,12.3018,12.3098,12.3018,12.2902,12.3405,12.3982,0.0,0.0,0.0,0.0,0.0,0.0,0.0,0.0,0.0,0.0,0.0,4.9704,5.0091,5.013,5.0284,5.0671,5.1431,5.2465,5.3855,5.6206,5.8436,6.0392,6.0865,6.1235,6.1603,6.0257,5.9194,5.8555,0.0,0.0,0.0,7.3659,7.7476,0.0,0.0,0.0,0.0,0.0,0.0,6.7072,6.7752,6.9027,7.0321,0.0,0.0,0.0,0.0,0.0,0.0,0.0,0.0,6.6518,6.6979,0.0,0.0,0.0,6.7707,7.2589,8.5905,9.9293,11.2794,12.6601,13.2715,13.5603,13.6491,13.7299,13.76,13.6715,13.6481,13.71,13.8982,13.8485,13.8216,13.9097,13.8908,0.0,0.0,0.0,0.0,0.0,0.0,0.0,0.0,0.0,0.0,0.0,13.3603,13.2913,13.2997,13.2493,13.2109,13.1682,13.1298,13.0913,13.049,12.8682,12.7294,12.6291,12.5601,12.4793,12.3985,12.321,12.329,12.3985,12.3104,12.2719,12.2719,12.2719,12.2488,12.2219,12.2219,12.2485,12.2787,12.2411,12.2716,12.329,0.0,0.0,0.0,0.0,0.0,0.0,0.0,0.0,0.0,0.0,0.0,5.0709,5.0709,0.0,0.0,0.0,5.1241,5.2315,5.4049,5.5747,5.7055,5.7933,5.8086,5.8082,5.7862,5.7466,5.7104,0.0,0.0,0.0,7.2529,7.4136,7.7737,0.0,7.8581,0.0,0.0,0.0,0.0,0.0,0.0,6.9858,7.1363,0.0,0.0,0.0,0.0,0.0,0.0,0.0,0.0,0.0,0.0,6.6672,0.0,0.0,0.0,7.2283,9.0096,9.9406,10.7711,12.3104,12.9291,13.2292,13.4411,13.5488,13.5795,0.0,13.4292,13.51,13.76,13.718,13.6991,13.8408,13.8184,13.7802,13.7802,13.6991,0.0,0.0,0.0,0.0,0.0,0.0,0.0,0.0,13.2606,13.1993,13.2609,13.1916,13.1413,13.1413,13.0602,13.0105,12.9791,12.7489,12.5604,12.4098,12.3906,12.3482,12.2902,12.2713,12.2601,12.2482,12.1911,12.1606,12.1606,12.1606,12.1606,12.1606,12.1606,12.1988,12.2482,12.1796,12.1988,12.2485,0.0,0.0,0.0,0.0,0.0,0.0,0.0,0.0,0.0,0.0,0.0,5.0709,5.0709,5.0709,5.0709,5.0709,5.0747,5.1475,5.3162,5.4858,5.617,5.7019,5.667,0.0,5.6112,5.5858,0.0,0.0,0.0,0.0,7.2529,7.4136,7.9535,8.7655,8.3622,7.9629,7.5687,0.0,0.0,0.0,0.0,0.0,0.0,0.0,0.0,0.0,0.0,0.0,0.0,0.0,0.0,0.0,0.0,0.0,0.0,0.0,0.0,0.0,7.7934,8.578,9.455,10.9903,11.9212,12.6098,13.1801,13.3798,13.4407,13.4292,13.4292,13.4407,13.4484,13.51,13.5911,13.6799,13.6914,13.6918,13.6918,13.6103,13.5603,13.5488,0.0,0.0,0.0,0.0,0.0,0.0,13.2186,13.1682,13.1801,13.099,13.0605,13.0605,12.9714,12.8906,12.8015,12.6291,12.4986,12.4098,12.3287,12.2902,12.2905,12.1988,12.1683,12.1683,12.1606,12.1606,12.1606,12.1606,12.1606,12.1606,12.1606,12.1606,12.1686,12.1606,12.1606,12.1686,0.0,0.0,0.0,0.0,0.0,0.0,0.0,0.0,0.0,0.0,0.0,0.0,0.0,5.0709,5.0709,5.0709,5.1666,5.2547,5.3162,5.4781,5.5771,5.596,5.5688,5.5432,5.5187,5.4934,0.0,0.0,0.0,6.2655,7.0474,7.3993,7.8508,8.343,8.0416,7.8544,7.7292,7.1026,0.0,0.0,0.0,0.0,0.0,0.0,0.0,0.0,0.0,0.0,0.0,0.0,0.0,0.0,0.0,0.0,0.0,0.0,0.0,6.8779,7.6786,8.2745,8.9821,10.29,11.1983,11.8792,12.3104,12.8486,13.2295,13.1214,13.191,13.2795,13.3417,13.4183,13.4792,13.51,13.5218,13.5218,13.5218,13.4411,13.3917,13.3917,13.3103,0.0,0.0,0.0,0.0,0.0,0.0,13.0913,13.0913,13.0102,12.9717,12.9717,12.8788,12.7403,12.5483,12.4406,12.3411,12.2488,12.2219,12.2103,12.2103,12.1683,12.1606,12.1606,12.0991,12.1106,12.1606,12.1606,12.1606,12.1606,12.1606,12.1606,12.1606,12.1606,12.1606,12.1606,0.0,0.0,0.0,0.0,0.0,0.0,0.0,0.0,0.0,0.0,0.0,0.0,0.0,0.0,5.1552,5.1552,5.2818,5.3624,5.3624,5.4666,5.5318,5.5393,5.492,5.4697,5.4715,5.4503,0.0,0.0,0.0,0.0,0.0,7.2651,7.6866,8.0824,7.7289,7.7223,0.0,0.0,0.0,7.0562,0.0,0.0,7.4472,0.0,0.0,0.0,0.0,0.0,0.0,0.0,0.0,0.0,0.0,0.0,0.0,0.0,0.0,0.0,7.3287,7.7823,8.3972,9.617,10.2789,10.8713,11.7487,12.2988,12.6681,12.8406,12.991,13.1182,13.2417,13.299,13.36,13.4215,13.4292,13.4292,13.4292,13.3491,13.2997,13.2997,13.2186,13.1605,13.1298,0.0,0.0,0.0,0.0,0.0,13.0102,12.9211,12.8483,12.7906,12.7098,12.5714,12.371,12.3213,12.2485,12.1606,12.1606,12.1606,12.1606,12.1298,12.1183,12.1103,12.0295,12.0411,12.1183,12.1183,12.1183,12.1183,12.1494,12.1606,12.1606,12.1606,12.1606,12.1606,0.0,0.0,0.0,0.0,0.0,0.0,0.0,0.0,0.0,0.0,0.0,0.0,0.0,0.0,0.0,5.3276,5.4087,5.455,5.4512,5.4508,5.4807,5.5384,5.4409,5.4143,5.4704,5.4537,0.0,0.0,0.0,0.0,0.0,0.0,7.4785,8.0494,7.5021,7.6064,8.1806,0.0,7.8788,7.7635,0.0,7.6624,7.6823,0.0,0.0,0.0,8.1593,8.0212,0.0,0.0,0.0,0.0,0.0,0.0,0.0,0.0,0.0,0.0,0.0,0.0,0.0,8.8825,9.1402,9.5939,11.4984,11.6987,11.7295,12.5707,12.8211,12.9487,13.1298,13.1682,13.2298,13.3907,13.4215,13.4215,13.4215,13.3491,13.2997,13.2997,13.2186,13.1416,13.0605,13.1182,0.0,0.0,12.991,12.9987,12.9214,12.8288,12.7095,12.5489,12.4486,12.3713,12.2902,12.2787,12.2408,12.1606,12.1491,12.1491,12.1491,12.068,12.0295,12.0216,11.9408,11.9485,12.0295,12.0295,12.0295,12.0411,12.1298,12.1606,12.1606,12.1606,12.1606,12.1606,0.0,0.0,0.0,0.0,0.0,0.0,0.0,0.0,0.0,0.0,0.0,0.0,0.0,0.0,5.5012,5.5012,5.5824,5.5785,5.4589,5.4927,5.515,5.5175,5.5323,5.5378,5.5337,5.5298,0.0,0.0,0.0,0.0,0.0,0.0,0.0,0.0,7.4173,7.4705,7.5291,7.1363,0.0,0.0,7.4778,7.7016,0.0,0.0,0.0,0.0,0.0,8.548,0.0,0.0,7.9325,7.4862,0.0,0.0,0.0,0.0,0.0,0.0,6.6439,0.0,0.0,0.0,0.0,0.0,9.4713,10.0981,10.7595,11.6097,11.9982,12.3716,12.9682,13.1298,13.1913,13.2295,13.241,13.241,13.241,13.2183,13.2109,13.2109,13.1298,13.0718,13.049,13.0099,0.0,0.0,12.8297,12.7912,12.8211,12.6906,12.5909,12.5412,12.3414,12.2488,12.2902,12.11,12.06,12.1606,12.0414,12.0103,12.0603,11.9792,11.9408,11.9408,11.9215,11.9215,11.9487,12.0103,12.068,12.1298,12.1491,12.1606,12.1606,12.1606,12.1606,12.1606,0.0,0.0,5.2438,5.279,0.0,0.0,0.0,0.0,0.0,0.0,0.0,0.0,0.0,0.0,0.0,5.7398,5.7746,5.7324,5.563,5.5113,5.4916,5.5087,5.5335,5.5493,5.5599,5.6023,5.6061,0.0,0.0,0.0,0.0,0.0,0.0,0.0,6.9402,7.0197,0.0,0.0,0.0,0.0,7.7785,0.0,0.0,8.8793,9.1255,0.0,0.0,0.0,9.1171,8.9748,8.4942,0.0,0.0,0.0,0.0,0.0,0.0,0.0,0.0,0.0,0.0,0.0,0.0,0.0,8.9056,9.3937,9.9861,11.1598,11.6099,11.9911,12.6217,12.8297,12.9294,12.9987,13.041,13.0913,13.1605,13.1682,13.1605,13.1182,13.0798,13.0105,12.899,12.8794,12.8211,12.7214,12.6486,12.622,12.6288,12.5098,12.4219,12.3796,12.2414,12.1488,12.129,12.0216,11.9911,12.0488,11.9603,11.9292,11.9795,11.8905,11.86,11.8482,11.8218,11.8407,11.91,11.9215,11.9795,12.0603,12.1298,12.1414,12.1106,12.1494,12.1606,12.1606,0.0,0.0,5.3322,5.4298,5.5206,5.599,0.0,0.0,0.0,0.0,0.0,0.0,0.0,0.0,0.0,0.0,5.9935,5.9051,5.7249,5.5408,5.4626,5.5199,5.5032,5.5224,5.5864,5.6798,5.6805,5.5747,0.0,0.0,0.0,0.0,0.0,0.0,6.3019,6.4337,0.0,0.0,0.0,7.4698,8.2719,8.6413,0.0,0.0,9.9332,0.0,10.0214,10.0293,9.9098,9.5367,8.8827,0.0,0.0,0.0,0.0,0.0,6.8784,0.0,0.0,0.0,0.0,0.0,0.0,0.0,9.0054,9.0975,9.3011,10.7982,11.2486,11.5294,12.0213,12.2405,12.3985,12.5403,12.7214,12.9102,13.1298,13.1605,13.1416,13.049,13.0413,12.9413,12.6915,12.7294,12.6592,12.429,12.4793,12.4909,12.3982,12.3213,12.2408,12.1606,12.1298,12.0488,11.91,11.9603,11.9603,11.91,11.8908,11.8908,11.8908,11.81,11.7712,11.7597,11.691,11.7487,11.8908,11.8289,11.8482,11.9411,12.0798,12.0914,12.0411,12.1183,12.1491,12.1606,5.2633,5.3319,5.4357,5.5934,5.7473,0.0,0.0,0.0,0.0,0.0,0.0,0.0,0.0,0.0,0.0,0.0,6.2786,6.0593,5.8202,5.6662,5.5924,5.605,5.6348,5.6823,5.7591,5.7835,5.7502,5.6662,0.0,0.0,0.0,0.0,0.0,0.0,6.189,6.2577,0.0,0.0,0.0,7.6618,7.9583,0.0,9.3679,9.7562,10.1404,10.4707,10.5015,10.5095,10.4092,0.0,9.34,8.7823,0.0,0.0,0.0,0.0,0.0,0.0,0.0,0.0,0.0,0.0,0.0,0.0,7.5205,7.8473,8.382,9.1095,9.5021,9.9712,10.8093,11.1019,11.1983,11.1711,11.8103,12.4915,12.999,13.1298,13.1102,12.9599,12.9487,12.8717,12.6915,12.622,12.5409,12.4213,12.4293,12.3982,12.321,12.2293,12.1799,12.1606,11.96,11.8712,11.91,11.7913,11.7913,11.91,11.7679,11.741,11.802,11.7182,11.6797,11.6797,11.7292,11.7709,11.8094,11.9292,11.9908,11.9985,11.9715,11.9911,12.0295,12.0488,12.0991,12.1606,5.3528,5.4083,5.5428,5.814,0.0,0.0,0.0,0.0,0.0,0.0,0.0,0.0,0.0,0.0,0.0,0.0,0.0,0.0,0.0,5.7047,5.6115,5.5713,5.6459,5.726,5.808,5.8604,5.8648,5.8091,0.0,0.0,0.0,0.0,0.0,0.0,0.0,0.0,0.0,0.0,6.8807,7.4936,8.3412,0.0,9.8126,10.41,10.7713,10.9587,10.9985,10.9901,10.8205,9.9748,9.6057,0.0,0.0,8.0358,8.0206,0.0,7.6209,7.7434,0.0,0.0,0.0,7.5443,0.0,0.0,0.0,7.6359,7.955,8.763,8.9286,9.1633,9.9288,10.1407,10.2484,10.4207,11.1291,11.7487,11.9988,12.622,12.9987,12.8714,12.7791,12.6601,12.4989,12.4409,12.3793,12.2911,12.2911,12.2719,12.2296,12.1411,12.0798,12.0414,11.91,11.8215,11.7795,11.741,11.741,11.7795,11.6913,11.6682,11.71,11.6682,11.6492,11.649,11.6987,11.7404,11.7786,11.8215,11.8718,11.9097,11.9988,12.0295,12.0411,12.0795,12.1183,12.1606,5.4061,5.4623,5.6132,5.9376,0.0,0.0,0.0,0.0,0.0,0.0,0.0,0.0,0.0,0.0,0.0,0.0,0.0,0.0,0.0,0.0,0.0,5.5607,5.6572,5.7435,5.8158,5.9151,5.9471,5.9065,0.0,0.0,0.0,0.0,0.0,0.0,0.0,0.0,0.0,0.0,0.0,7.6071,0.0,9.5555,9.8636,10.818,11.171,11.1682,11.3807,11.3907,11.1711,10.1592,0.0,9.7714,8.5743,8.4435,0.0,0.0,0.0,0.0,0.0,0.0,0.0,0.0,0.0,7.5982,0.0,0.0,0.0,8.5861,8.5591,8.5476,9.0639,9.1603,9.2715,9.6129,10.3017,10.7593,10.7103,11.691,12.4213,12.448,12.4601,12.3912,12.1908,12.1094,12.079,12.1106,12.018,12.0106,12.1109,12.0491,11.9715,11.8908,11.8718,11.791,11.6492,11.7215,11.7215,11.6492,11.6492,11.6492,11.6492,11.6492,11.6492,11.6492,11.6492,11.691,11.7481,11.6987,11.7218,11.802,11.9914,12.0298,11.9908,12.0798,12.1183,12.1414,5.3698,5.4516,5.5701,5.7604,6.0231,6.3164,6.6253,0.0,0.0,0.0,0.0,0.0,0.0,0.0,0.0,0.0,0.0,0.0,6.7832,0.0,0.0,5.726,5.7691,5.8084,5.8356,5.9244,5.9207,5.8232,0.0,0.0,0.0,0.0,0.0,0.0,6.0522,0.0,0.0,0.0,7.309,0.0,9.1851,9.1543,0.0,9.9993,10.5205,10.7882,11.4,11.5682,11.3986,0.0,10.4402,10.1791,0.0,9.0746,9.0902,0.0,0.0,0.0,0.0,0.0,0.0,0.0,8.2716,0.0,0.0,0.0,7.7367,7.4864,0.0,7.6667,7.8904,0.0,0.0,7.9942,8.825,9.4867,9.5482,10.1407,10.7293,11.1719,11.799,12.0798,11.749,11.4519,11.4594,11.9103,11.5212,11.4596,11.91,11.9292,11.8789,11.802,11.7218,11.6682,11.6492,11.6605,11.6605,11.6492,11.6492,11.6492,11.6492,11.6492,11.6492,11.6492,11.6492,11.6608,11.6682,11.7407,11.7709,11.7789,11.7297,11.7487,11.8212,11.91,11.9792,12.0603,5.3517,5.408,5.5123,5.7676,5.9694,6.2464,6.6853,7.1267,0.0,0.0,0.0,0.0,0.0,0.0,0.0,0.0,0.0,0.0,0.0,0.0,0.0,0.0,0.0,0.0,6.059,6.0461,6.0184,5.9723,5.9618,0.0,0.0,0.0,0.0,0.0,6.2869,0.0,7.0604,0.0,7.5532,0.0,0.0,0.0,0.0,10.4217,11.1293,11.2599,11.5489,11.63,11.4912,0.0,10.5479,0.0,0.0,0.0,0.0,0.0,0.0,0.0,0.0,0.0,0.0,0.0,0.0,0.0,7.5245,0.0,7.3439,0.0,0.0,0.0,0.0,0.0,0.0,0.0,8.2287,8.6944,8.5786,9.2056,9.9558,10.7098,10.7793,0.0,11.0403,11.1596,11.3288,11.5907,11.3712,11.3596,11.6715,11.7789,11.8212,11.7786,11.699,11.6492,11.6492,11.6492,11.6492,11.6492,11.6492,11.6492,11.6492,11.6492,11.6492,11.6492,11.6492,11.6492,11.649,11.691,11.6984,11.6987,11.6605,11.7295,11.8715,11.9485,11.9988,12.0411,5.3515,0.0,0.0,0.0,0.0,6.1892,6.7264,7.2381,0.0,0.0,0.0,0.0,8.3982,8.1364,0.0,0.0,0.0,7.4233,0.0,0.0,6.5339,0.0,0.0,0.0,0.0,0.0,6.1141,6.0923,6.0181,0.0,0.0,0.0,0.0,0.0,0.0,6.9533,7.5062,0.0,0.0,8.4196,9.0836,9.3021,9.3829,10.8309,11.4912,11.6492,11.6492,11.6492,11.5489,10.8985,10.7287,0.0,10.2794,0.0,0.0,0.0,0.0,0.0,8.8207,0.0,0.0,0.0,0.0,0.0,0.0,0.0,0.0,0.0,0.0,0.0,0.0,0.0,0.0,0.0,0.0,8.0866,7.9013,8.3668,9.0323,9.8514,9.7709,0.0,0.0,10.6592,10.8788,11.1101,0.0,11.0211,11.4102,11.5596,11.6712,11.7404,11.6795,11.6492,11.6492,11.6492,11.6492,11.6492,11.6492,11.6492,11.6492,11.6492,11.6492,11.6492,11.6492,11.6492,11.6492,11.6492,11.6492,11.6492,11.6492,11.7297,11.8484,11.9603,11.9988,12.01,5.3737,5.3924,0.0,0.0,0.0,0.0,0.0,0.0,0.0,0.0,0.0,0.0,0.0,0.0,0.0,0.0,0.0,8.1859,8.1501,0.0,6.9056,0.0,0.0,0.0,0.0,0.0,0.0,6.0982,6.0435,0.0,0.0,0.0,0.0,0.0,0.0,7.1985,7.9383,8.0841,8.9744,10.2902,10.3084,10.7594,11.3596,0.0,11.0791,11.6492,11.6492,0.0,0.0,11.2481,11.1283,0.0,0.0,0.0,0.0,0.0,0.0,0.0,0.0,0.0,0.0,8.4093,0.0,0.0,0.0,0.0,7.779,0.0,0.0,0.0,0.0,0.0,0.0,0.0,0.0,0.0,0.0,7.4972,7.6048,8.1283,8.8942,9.5523,0.0,9.744,9.7976,0.0,10.0406,0.0,11.109,11.2401,11.3981,11.6492,11.6492,11.6492,11.6492,11.6492,11.6492,11.6492,11.6492,11.6492,11.6492,11.6492,11.6492,11.6492,11.6492,11.6492,11.6492,11.6492,11.6492,11.6492,11.6492,11.649,11.6797,11.8484,11.9097,11.9411,5.4363,0.0,0.0,0.0,0.0,0.0,0.0,6.9609,0.0,0.0,0.0,0.0,0.0,0.0,9.7286,0.0,0.0,9.1207,8.6494,8.1605,0.0,0.0,0.0,6.9329,0.0,0.0,0.0,0.0,0.0,0.0,6.241,0.0,0.0,0.0,0.0,7.5636,0.0,0.0,0.0,0.0,0.0,10.7998,11.4097,0.0,0.0,11.5718,11.6309,11.6492,0.0,11.5217,11.3288,11.1513,11.1793,10.8218,10.3907,10.4212,10.2902,0.0,0.0,0.0,10.2792,9.1443,0.0,0.0,0.0,0.0,0.0,0.0,0.0,0.0,0.0,0.0,0.0,0.0,0.0,0.0,0.0,7.0706,7.0746,7.4749,8.3672,8.9445,8.9216,0.0,0.0,0.0,9.7213,0.0,0.0,10.9901,11.2516,11.3904,11.5602,11.6492,11.6492,11.6492,11.6492,11.6492,11.6492,11.6492,11.6492,11.6492,11.6492,11.6492,11.6492,11.6492,11.6492,11.6492,11.6492,11.6492,11.6492,11.6492,11.6682,11.8487,11.91,11.9292,5.5764,0.0,0.0,0.0,0.0,0.0,0.0,0.0,0.0,0.0,8.9054,0.0,10.1904,0.0,10.4402,0.0,10.3212,9.8774,9.0191,8.8478,0.0,8.0576,7.7601,0.0,0.0,0.0,0.0,0.0,0.0,6.4496,6.4317,6.4079,6.5311,0.0,0.0,7.8286,8.6634,9.3745,9.8676,0.0,0.0,11.0692,0.0,0.0,11.5691,11.4805,0.0,11.6492,11.6492,11.6492,11.5105,11.3483,11.4912,11.1486,10.7098,10.7208,10.59,10.4092,10.2594,10.529,0.0,9.7021,9.5136,0.0,8.2014,0.0,0.0,0.0,0.0,0.0,0.0,0.0,0.0,0.0,0.0,0.0,0.0,6.8399,6.8592,7.1402,7.8323,8.2941,8.3135,8.6557,8.975,9.214,0.0,0.0,0.0,0.0,10.9513,11.2209,11.4714,11.6182,11.6492,11.6492,11.6492,11.6492,11.6492,11.6492,11.6492,11.6492,11.6492,11.6492,11.6492,11.6492,11.6492,11.6492,11.6492,11.6492,11.6492,11.6492,11.6682,11.8487,11.9487,12.01,5.7795,5.7963,0.0,0.0,6.0928,0.0,0.0,0.0,7.971,0.0,9.1945,9.8257,10.5105,10.7293,10.8908,11.0411,10.9716,0.0,9.3624,9.5711,0.0,0.0,8.3477,8.2894,7.9461,0.0,0.0,0.0,0.0,0.0,6.8083,6.622,6.703,7.0155,7.3907,0.0,8.7628,9.7029,10.5094,11.1802,11.5207,11.5893,11.5216,11.6108,0.0,11.3911,11.5795,11.6492,11.6492,11.6492,11.6492,11.6415,11.5605,11.4214,11.2285,10.9906,10.9716,10.9488,10.5487,10.6213,10.6713,10.0791,0.0,0.0,0.0,0.0,9.3636,0.0,0.0,0.0,0.0,0.0,0.0,8.675,8.0671,7.3785,6.8057,6.7896,6.9047,7.0744,7.3012,7.6396,8.1325,8.0514,8.1666,8.6557,8.5553,8.832,9.667,0.0,10.5095,11.1016,11.3909,11.5685,11.6492,11.6492,11.6492,11.6492,11.6492,11.6492,11.6492,11.6492,11.6492,11.6492,11.6492,11.6492,11.6492,11.6492,11.6492,11.6492,11.6492,11.6608,11.6797,11.8487,12.018,12.1606,5.929,6.071,6.1652,0.0,6.1601,6.4046,0.0,0.0,0.0,0.0,10.0907,10.7905,11.4794,11.5907,11.5794,11.4992,11.3486,0.0,0.0,0.0,0.0,9.6232,9.3091,8.9841,8.6398,8.2178,0.0,7.4811,0.0,0.0,6.9793,6.7332,6.7072,6.8828,7.3399,7.9847,8.779,9.5171,10.4116,11.3483,11.5612,11.5491,0.0,0.0,11.5315,11.3911,11.5795,11.6492,11.6492,11.6492,11.6492,11.6492,11.63,11.5489,11.4409,11.3101,11.2791,11.2794,11.1714,11.2409,11.2412,10.8295,10.541,10.2296,0.0,0.0,0.0,0.0,0.0,0.0,0.0,0.0,0.0,0.0,0.0,0.0,0.0,0.0,0.0,7.1594,7.1321,7.1974,7.4556,7.6709,7.848,7.9788,8.1248,8.4937,9.1511,0.0,0.0,10.66,11.2294,11.5685,11.6492,11.6492,11.6492,11.6492,11.6492,11.6492,11.6492,11.6492,11.6492,11.6492,11.6492,11.6492,11.6492,11.6492,11.6492,11.6492,11.6492,11.7297,11.8487,11.8908,12.018,12.1606,6.1231,0.0,0.0,6.5627,0.0,0.0,7.4404,0.0,0.0,9.5401,10.3096,0.0,11.4019,11.7886,11.9603,11.8298,11.6599,0.0,0.0,0.0,0.0,10.1809,9.9481,9.6403,9.2331,8.8005,0.0,7.787,0.0,0.0,7.0263,6.8058,6.7402,6.8264,7.3427,7.903,8.5365,9.6548,10.5817,11.3113,11.551,11.5798,0.0,11.6099,11.5798,11.5012,11.6101,11.6492,11.6492,11.6492,11.6492,11.6492,11.6492,11.6182,11.5685,11.4794,11.4794,11.4986,11.472,11.5217,11.5412,11.3412,11.1488,10.9103,10.5413,10.4987,10.51,0.0,0.0,0.0,0.0,0.0,0.0,0.0,0.0,0.0,0.0,0.0,0.0,0.0,7.0706,7.0594,7.0019,7.2056,7.4168,7.6015,0.0,0.0,0.0,0.0,0.0,10.3907,11.0598,11.491,11.6492,11.691,11.691,11.6492,11.6492,11.6492,11.6492,11.6492,11.6492,11.6492,11.6492,11.6492,11.6492,11.6492,11.6492,11.649,11.691,11.791,11.9097,11.9485,12.0491,12.1606,6.3177,0.0,0.0,0.0,0.0,0.0,0.0,8.3885,0.0,9.6402,0.0,10.8717,11.0214,11.7119,12.118,12.0411,0.0,11.5619,11.0002,11.1888,11.0191,10.3482,10.4188,10.2394,9.7347,9.3385,0.0,0.0,0.0,0.0,7.0076,6.8248,6.7636,6.8275,7.3496,7.8313,8.3558,9.9489,10.8104,11.1487,11.4918,11.6415,11.6492,11.6492,11.6492,11.6492,11.6492,11.6492,11.6492,11.6492,11.6492,11.6492,11.6492,11.6492,11.6415,11.5685,11.5992,11.6297,11.5602,11.5992,11.6492,11.6492,11.6492,11.5608,11.1989,11.0486,11.0098,11.0986,10.6295,0.0,0.0,0.0,0.0,7.5855,0.0,0.0,0.0,0.0,0.0,0.0,0.0,0.0,6.7786,6.8319,7.0278,0.0,0.0,0.0,0.0,0.0,0.0,10.2097,10.8785,11.3714,11.6492,0.0,11.7292,11.6682,11.6608,11.6492,11.6492,11.6492,11.6492,11.6492,11.6492,11.6492,11.6492,11.6492,11.6492,11.6605,11.7292,11.8212,11.9215,11.9911,12.0798,12.1606,0.0,0.0,0.0,0.0,0.0,8.5359,9.1803,9.7398,10.2198,10.5997,11.4209,11.9911,12.0216,12.1013,12.118,12.0411,11.9408,0.0,0.0,0.0,0.0,10.9889,10.9903,10.7093,10.0791,9.6087,9.0702,0.0,0.0,0.0,7.004,6.7096,6.6678,6.8581,7.2543,8.0138,9.0691,10.1005,0.0,10.9717,11.3789,11.5913,11.6492,11.6492,11.6492,11.6492,11.6492,11.6492,11.6492,11.6492,11.6492,11.6492,11.6492,11.6492,11.6492,11.6297,11.6415,11.6492,11.6297,11.6415,11.6492,11.6492,11.6492,11.649,11.6484,11.5794,11.541,11.6289,11.4407,11.1296,10.6985,0.0,0.0,0.0,0.0,0.0,0.0,0.0,0.0,0.0,0.0,7.3745,0.0,0.0,7.0975,6.9622,0.0,0.0,0.0,0.0,0.0,0.0,10.7103,0.0,0.0,0.0,11.6987,11.7597,11.6795,11.6492,11.6492,11.6492,11.6492,11.6492,11.6492,11.6492,11.6492,11.6492,11.6492,11.6492,11.6682,11.7718,11.91,11.9292,12.0295,12.1606,0.0,0.0,0.0,0.0,0.0,0.0,0.0,10.6601,0.0,10.9387,11.3883,11.6892,11.5986,11.9712,12.1517,11.9707,11.9182,11.8817,11.8393,11.7204,11.5789,11.4098,11.2286,0.0,10.5406,9.9719,9.3595,8.7036,0.0,0.0,0.0,0.0,6.6676,6.7623,7.2093,7.9999,9.0445,0.0,0.0,10.811,11.3683,11.6185,11.6492,11.6492,11.6492,11.6492,11.6492,11.6492,11.6492,11.6492,11.6797,11.71,11.6605,11.6492,11.6492,11.6492,11.6492,11.6492,11.6492,11.6492,11.6492,11.6492,11.6492,11.6682,11.7597,11.71,11.6718,11.7597,11.6487,11.2909,10.5215,9.5903,0.0,0.0,0.0,0.0,0.0,0.0,0.0,0.0,0.0,0.0,0.0,0.0,7.0979,6.7936,6.936,0.0,0.0,0.0,0.0,0.0,0.0,0.0,0.0,0.0,0.0,11.71,11.6682,11.6492,11.6492,11.6492,11.6492,11.6492,11.6492,11.6492,11.6492,11.6492,11.6492,11.6605,11.749,11.841,11.9215,12.0103,12.0914,12.1606,0.0,7.6294,0.0,0.0,9.2624,0.0,10.429,11.2091,11.6091,11.2091,11.2988,11.349,11.202,11.8188,12.1502,11.8982,11.881,11.8914,11.8892,11.7609,11.6592,11.6205,11.341,11.0792,10.8694,10.2687,9.5873,0.0,0.0,0.0,0.0,0.0,6.7322,0.0,0.0,0.0,0.0,0.0,10.2289,10.7516,11.3717,11.6297,11.6492,11.6492,11.6492,11.6492,11.6492,11.6605,11.6718,11.6608,11.6987,11.7404,11.6682,11.6492,11.6492,11.6492,11.6492,11.6492,11.6492,11.6492,11.6492,11.6492,11.6492,11.6682,11.7407,11.6987,11.6682,11.7407,11.6292,11.2912,10.4905,9.8632,0.0,0.0,0.0,0.0,0.0,0.0,0.0,0.0,0.0,0.0,7.0087,0.0,0.0,0.0,0.0,0.0,7.4547,0.0,0.0,0.0,0.0,10.8095,11.2906,0.0,11.7292,0.0,11.6605,11.6492,11.6492,11.6492,11.6492,11.6492,11.6492,11.6492,11.6492,11.6492,11.6492,11.6685,11.8215,11.8908,11.9292,12.0798,12.1414,12.1606,0.0,0.0,0.0,0.0,0.0,0.0,0.0,11.2309,11.7497,11.7688,11.9282,12.0114,11.9106,12.0616,12.0886,11.8987,11.8789,11.8796,11.8893,11.8094,11.6915,11.531,11.4192,11.1816,10.781,10.3511,9.6989,0.0,0.0,0.0,0.0,0.0,0.0,0.0,0.0,0.0,0.0,9.7546,10.4015,10.9098,11.3602,11.5797,11.6492,11.6492,11.6492,11.6492,11.6492,11.6987,11.76,11.6797,11.6608,11.6605,11.649,11.6492,11.6492,11.6492,11.6492,11.6492,11.6492,11.6492,11.6492,11.6492,11.6492,11.6492,11.6605,11.6608,11.649,11.6605,11.5913,11.3409,10.7208,10.6095,10.3599,0.0,0.0,0.0,0.0,0.0,9.1599,8.4976,0.0,0.0,7.2902,7.4866,0.0,0.0,6.7784,0.0,0.0,0.0,0.0,9.1439,0.0,10.579,10.929,11.422,11.6987,11.7712,11.691,11.6492,11.6492,11.6492,11.6492,11.6492,11.6492,11.6492,11.6492,11.6492,11.6492,11.6605,11.7481,11.8405,11.9215,12.0103,12.0911,12.1606,0.0,0.0,0.0,0.0,0.0,0.0,0.0,11.4998,11.789,11.9189,12.05,12.1193,12.0803,12.0695,12.0097,11.8688,11.8703,11.9005,11.949,11.8909,11.7986,11.6707,11.489,11.2787,11.0584,10.5488,9.9774,0.0,0.0,0.0,0.0,0.0,0.0,0.0,0.0,8.6776,9.3674,10.0094,10.5787,11.0788,11.4486,11.6182,11.6492,11.6492,11.6492,11.6492,11.6492,11.6682,11.6987,11.6605,11.6795,11.7215,11.6682,11.6492,11.6492,11.6492,11.6492,11.6492,11.6492,11.6492,11.6492,11.6492,11.6492,11.6492,11.6492,11.6492,11.6492,11.6492,11.6182,11.4989,11.1598,10.829,10.541,0.0,0.0,0.0,0.0,0.0,0.0,8.7094,0.0,8.121,7.3705,7.4205,0.0,0.0,0.0,0.0,0.0,0.0,0.0,8.8709,0.0,10.3215,10.8095,11.3217,11.6182,11.6987,11.6682,11.6492,11.6492,11.6492,11.6492,11.6492,11.6492,11.6492,11.6492,11.6492,11.6492,11.6605,11.7984,11.8792,11.9292,12.0603,12.1298,12.1606,9.3864,0.0,9.7163,0.0,10.6817,10.9805,11.4881,11.6601,11.7794,11.8882,11.9894,12.0386,12.0212,11.9615,11.8982,11.8113,11.8015,11.8585,11.9915,11.9092,11.818,11.7398,11.5283,0.0,11.1815,10.7092,10.2081,9.7052,9.0115,0.0,0.0,0.0,0.0,0.0,8.483,9.0868,9.7788,10.3099,10.7982,11.2519,11.5294,11.6492,11.6492,11.6492,11.6492,11.6492,11.6492,11.6492,11.6492,11.6492,11.691,11.7292,11.6682,11.6492,11.6492,11.6492,11.6492,11.6492,11.6492,11.6492,11.6492,11.6492,11.6492,11.6492,11.6492,11.6492,11.6492,11.6492,11.6492,11.6105,11.4989,11.0911,10.7716,10.7711,0.0,0.0,0.0,0.0,0.0,0.0,8.448,8.0014,7.4394,7.4086,0.0,0.0,0.0,0.0,0.0,0.0,0.0,0.0,0.0,0.0,0.0,11.2486,11.5682,11.6492,11.6492,11.6492,11.6492,11.6492,11.6492,11.6492,11.6492,11.6492,11.6492,11.6492,11.6492,11.6685,11.8407,11.91,11.9292,12.0991,12.1606,12.1606,9.9071,10.1494,10.4389,11.0109,11.3099,11.4683,11.4818,11.6219,11.7283,11.7401,11.8092,11.8315,11.7484,11.7409,11.7403,11.7187,11.6499,11.7185,11.9789,11.8388,11.7215,0.0,0.0,11.349,11.0092,10.7603,10.3596,9.7906,0.0,0.0,8.0676,0.0,8.3028,8.6245,9.2215,9.6797,10.0411,10.6292,11.0791,11.4099,11.5797,11.6492,11.6492,11.6492,11.6492,11.6492,11.6492,11.6492,11.6492,11.6492,11.6492,11.6492,11.6492,11.6492,11.6492,11.6492,11.6492,11.6492,11.6492,11.6492,11.6492,11.6492,11.6492,11.6492,11.6492,11.6492,11.6492,11.6492,11.6492,11.6492,11.6492,11.5105,11.2483,10.8406,0.0,0.0,0.0,0.0,0.0,8.9485,8.6401,8.2164,7.5357,7.5474,0.0,0.0,0.0,0.0,0.0,0.0,0.0,8.6015,9.5215,0.0,10.5102,11.1912,11.5682,11.6492,11.6492,11.6492,11.6492,11.6492,11.6492,11.6492,11.6492,11.6492,11.6492,11.6492,11.6492,11.6685,11.8407,11.91,11.9292,12.0991,12.1606,12.1606,10.5495,10.7398,10.9191,11.1583,11.3607,11.5002,11.5516,11.6109,11.6608,11.7208,11.7511,11.7284,11.6495,11.7016,11.761,0.0,11.7405,11.781,0.0,11.8983,11.7785,11.6515,11.5613,11.3818,11.0909,10.8982,10.6297,10.2805,0.0,0.0,0.0,8.7685,8.9926,9.2409,9.779,10.2715,10.7218,11.0791,11.3717,11.5797,11.6297,11.6492,11.6492,11.6492,11.6492,11.6492,11.6492,11.6492,11.6492,11.6492,11.6492,11.6492,11.6492,11.6492,11.6492,11.6492,11.6492,11.6492,11.6492,11.6492,11.6492,11.6492,11.6492,11.6492,11.6492,11.6492,11.6492,11.6492,11.6492,11.6492,11.6492,11.5102,11.3214,11.0708,10.8285,0.0,0.0,0.0,0.0,8.7478,8.267,7.8631,0.0,7.6363,0.0,0.0,0.0,0.0,0.0,0.0,0.0,0.0,9.5833,0.0,10.7598,11.2217,11.5102,11.6492,11.6492,11.6492,11.6492,11.6492,11.6492,11.6492,11.6492,11.6492,11.6492,11.6492,11.6913,11.7484,11.8718,11.9408,12.0103,12.1183,12.1606,12.1606,10.8987,11.0518,11.1919,11.2695,11.42,11.5406,11.5889,11.6292,11.6589,11.7193,11.7218,11.7218,11.7117,11.6889,0.0,11.7893,11.7307,11.7787,11.9909,11.9009,11.7888,11.6901,11.5985,11.431,11.17,0.0,0.0,10.6004,10.1105,9.6745,9.2977,9.4705,9.6866,9.9445,10.3599,10.76,11.1293,11.3483,11.5297,11.6492,11.6492,11.6492,11.6492,11.6492,11.6492,11.6492,11.6492,11.6492,11.6492,11.6492,11.6492,11.6492,11.6492,11.6492,11.6492,11.6492,11.6492,11.6492,11.6492,11.6492,11.6492,11.6492,11.6492,11.6492,11.6492,11.6492,11.6492,11.6492,11.6492,11.6415,11.6108,11.491,11.3288,11.1288,10.8095,10.4287,9.9752,0.0,0.0,0.0,0.0,0.0,0.0,7.8132,7.8827,0.0,0.0,0.0,0.0,0.0,0.0,9.0022,9.7526,0.0,10.9788,11.2906,11.5182,11.6492,11.6492,11.6492,11.6492,11.6492,11.6492,11.6492,11.6492,11.6492,11.6492,11.6492,11.6797,11.7404,11.86,11.9408,11.9988,12.1183,12.1606,12.1606,10.9984,11.141,0.0,0.0,11.5019,0.0,11.5999,11.669,11.7195,11.7404,11.7386,11.7789,11.8788,11.7395,11.6594,11.7294,0.0,0.0,0.0,11.83,11.7385,11.7501,11.67,11.4992,11.2503,11.1698,11.0083,10.7682,10.299,10.1103,10.1788,10.178,10.3592,10.6785,10.9293,11.1291,11.2981,11.472,11.5797,11.6492,11.6492,11.6492,11.6492,11.6492,11.6492,11.6492,11.6492,11.6492,11.6492,11.6492,11.6492,11.6492,11.6492,11.6492,11.6492,11.6492,11.6492,11.6492,11.6492,11.6492,11.6492,11.6492,11.6492,11.6492,11.6492,11.6492,11.6492,11.6492,11.6492,11.63,11.5412,11.4602,11.3099,11.0488,10.7218,10.3099,9.794,0.0,8.8049,0.0,0.0,0.0,0.0,8.0635,8.2095,0.0,0.0,0.0,0.0,0.0,8.8707,9.2905,10.0293,10.6597,11.1593,11.4102,11.5682,11.6492,11.6492,11.6492,11.6492,11.6492,11.6492,11.6492,11.6492,11.6492,11.6492,11.6492,11.6608,11.6797,11.8487,11.9215,11.9487,12.0991,12.1606,12.1606,0.0,0.0,11.3582,11.4415,11.5296,11.5999,11.5999,11.669,11.7181,11.7215,11.8303,11.9188,11.9617,11.9796,11.9785,11.9387,11.7312,11.6598,11.7897,11.7604,11.7094,11.6612,11.6303,11.4992,11.2503,11.2212,11.0891,10.851,10.7289,10.6181,10.5308,10.649,10.7905,10.9408,11.1291,11.3099,11.4794,11.5797,11.6297,11.6492,11.6492,11.6492,11.6492,11.6492,11.6492,11.6492,11.6492,11.6492,11.6492,11.6492,11.6492,11.6492,11.6492,11.6492,11.6492,11.6492,11.6492,11.6492,11.6492,11.6492,11.6492,11.6492,11.6492,11.6492,11.6492,11.6492,11.6492,11.6492,11.6492,11.63,11.5412,11.4602,11.2906,10.9713,10.579,10.1212,9.5405,9.19,0.0,0.0,8.4668,8.4668,8.4093,8.3595,8.3214,0.0,0.0,0.0,0.0,9.0705,9.5249,9.8218,10.3789,10.8908,11.3382,11.4684,11.5682,11.6492,11.6492,11.6492,11.6492,11.6492,11.6492,11.6492,11.6492,11.6492,11.6492,11.6492,11.7297,11.8484,11.8908,11.9911,12.1109,12.1494,12.1606,12.1606,11.2187,11.2983,11.3918,11.4708,11.5485,11.6103,11.6507,11.6899,11.7395,11.7794,11.8201,11.8909,11.9802,11.9187,11.9085,12.0013,11.831,11.7503,11.8003,11.7201,11.6794,11.6698,11.6311,11.5302,11.3508,11.3093,11.1783,10.9312,11.0097,10.9913,10.8682,11.0402,11.1486,11.1986,11.3291,11.4409,11.5412,11.6185,11.6492,11.6492,11.6492,11.6492,11.6492,11.6492,11.6492,11.6492,11.6492,11.6492,11.6608,11.6987,11.71,11.71,11.71,11.71,11.6987,11.6605,11.6492,11.6492,11.6492,11.6492,11.6492,11.6492,11.6492,11.6492,11.6492,11.6492,11.6492,11.6492,11.6492,11.6105,11.491,11.3714,11.148,10.7293,10.3407,9.8637,9.2291,9.0212,0.0,8.5743,8.7205,8.859,8.8977,8.925,8.8596,8.6632,0.0,0.0,8.84,9.5247,9.9445,10.0106,10.6213,11.0906,11.3994,11.5182,11.6108,11.6492,11.6492,11.669,11.7086,11.669,11.669,11.7084,11.7108,11.6913,11.649,11.691,11.7718,11.8482,11.8905,11.9911,12.1106,12.1494,12.1606,12.1606,11.2396,11.3209,11.4017,11.4813,11.5584,11.6397,11.7083,11.7413,11.7819,11.8585,11.8095,11.83,12.01,11.8117,11.7583,12.0192,11.951,11.8783,11.8607,11.711,11.6499,11.7193,11.6399,11.5595,11.4592,11.3686,11.2218,11.0204,11.1882,11.2389,11.1616,11.3396,11.4214,11.4212,11.4814,11.5287,11.5712,11.6314,11.6715,11.6916,11.6682,11.6797,11.6916,11.6605,11.6605,11.6682,11.6682,11.6605,11.6605,11.7481,11.7709,11.7597,11.7597,11.7597,11.7484,11.6682,11.6492,11.6492,11.6492,11.6492,11.6492,11.6492,11.6492,11.6492,11.6492,11.6492,11.6492,11.6492,11.6492,11.5989,11.4291,11.2593,10.9785,10.46,10.0599,9.5905,8.9252,0.0,8.8214,8.6822,8.9938,9.2631,9.3905,9.5516,9.5129,9.1857,9.4629,9.5708,0.0,9.9786,10.2597,10.1488,10.8095,11.2516,11.4409,11.5797,11.6492,11.6492,11.6605,11.7001,11.7601,11.7111,11.7191,11.7601,11.7916,11.7481,11.6797,11.7597,11.8097,11.8292,11.8985,11.9795,12.0603,12.1298,12.1606,12.1606,11.3294,11.4096,11.4898,11.5705,11.6507,11.7088,11.7193,11.8385,11.93,11.9408,11.931,11.9917,12.1692,12.0407,12.0105,12.2106,12.08,11.9194,11.7688,11.7286,11.6905,11.6202,11.6102,11.5301,11.3802,11.2286,11.1399,11.0995,11.2794,11.3303,11.2494,11.4312,11.5105,11.5082,11.442,11.5284,11.7409,11.6787,11.7416,11.86,11.7905,11.7981,11.8484,11.7105,11.6987,11.7597,11.7597,11.71,11.6605,11.7481,11.7292,11.6682,11.6682,11.6682,11.6682,11.649,11.6492,11.6492,11.6492,11.6492,11.6492,11.6492,11.6492,11.6492,11.6492,11.6492,11.6492,11.6492,11.6492,11.5989,11.4291,11.2593,10.9593,10.371,9.8747,9.3475,8.7361,0.0,8.8865,8.9242,9.3593,9.7709,10.0709,9.8786,9.7937,9.9435,9.8168,9.8093,9.9822,10.3707,10.6285,10.7482,11.0788,11.3714,11.6108,11.6415,11.6492,11.6492,11.7215,11.7295,11.6685,11.8104,11.7994,11.6806,11.8286,11.8396,11.7715,11.8482,11.9298,11.9884,12.0106,12.0603,12.1414,12.1609,12.1606,12.1606,11.4017,11.4482,11.5118,11.5894,11.669,11.7297,11.7786,11.8814,11.9602,11.9602,11.9602,11.9894,12.08,11.9784,11.98,12.1705,12.0782,11.9706,11.9004,11.7989,11.7202,11.6798,11.6315,11.5191,11.3582,11.239,11.1895,11.1908,11.3208,11.3888,11.4007,11.5286,11.5913,11.5887,11.5003,11.5498,11.6983,11.6213,11.6512,11.7679,11.7789,11.8017,11.8407,11.7984,11.8218,11.8482,11.8482,11.8215,11.7987,11.8908,11.891,11.849,11.7987,11.8218,11.8413,11.7487,11.6913,11.6492,11.6492,11.6492,11.6492,11.6492,11.6492,11.6492,11.6492,11.6492,11.6492,11.6492,11.6492,11.5989,11.4291,11.1906,10.8708,10.4597,9.8173,0.0,0.0,9.0096,9.1018,9.3667,9.7709,10.1402,10.4402,10.2789,10.1712,10.2017,10.1286,10.1289,10.2017,10.571,10.8518,11.0208,11.2791,11.491,11.6492,11.6492,11.6492,11.6492,11.691,11.71,11.7215,11.7997,11.8201,11.8007,11.9204,11.9006,11.7902,11.9215,11.9683,11.9686,12.0109,12.0801,12.1606,12.1606,12.1606,12.1606,11.4482,11.5002,11.5296,11.5889,11.6795,11.7712,11.83,11.9308,12.0006,12.0195,11.9816,11.9706,12.011,11.9113,11.9198,12.1007,12.0512,12.0097,12.0497,11.8794,11.7616,11.7404,11.6309,11.5087,11.3582,11.2805,11.2406,11.2499,11.3387,11.4284,11.5196,11.6314,11.6608,11.6212,11.5706,11.5785,11.6507,11.5807,11.6208,11.7413,11.7905,11.8289,11.8712,11.8985,11.9215,11.9408,11.9408,11.9292,11.9215,11.9988,12.0218,11.9908,11.9292,11.9485,11.9795,11.8482,11.76,11.7105,11.6913,11.6797,11.6797,11.6797,11.6797,11.6797,11.6797,11.6605,11.6492,11.6492,11.6492,11.5987,11.4602,11.1714,10.8406,10.51,0.0,0.0,0.0,9.2826,9.3862,9.7901,10.1597,10.471,10.7095,10.6715,10.5718,10.4212,10.4715,10.4907,10.4405,10.7598,11.0403,11.2285,11.4486,11.5913,11.6492,11.6492,11.6492,11.6492,11.6913,11.7215,11.7481,11.8097,11.849,11.8895,11.9899,11.9586,11.8482,11.9988,12.0216,11.9715,12.0384,12.0917,12.129,12.1488,12.1488,12.129,11.4592,11.5406,11.5883,11.5999,11.7284,11.83,11.8416,11.9816,12.1101,12.1805,12.0593,12.019,12.1689,11.9811,11.9198,12.1007,12.0512,12.0391,12.1416,11.9706,11.8283,11.7397,11.5792,11.4494,11.3582,11.2805,11.2406,11.2499,11.3387,11.4284,11.5196,11.6884,11.6789,11.5304,11.5899,11.6305,11.6487,11.6304,11.7711,11.9988,11.9292,11.9911,12.1183,11.9718,11.9603,12.0216,12.0216,11.9715,11.9215,11.9988,11.9792,11.9215,11.91,11.9097,11.9215,11.8985,11.8987,11.8712,11.7905,11.7709,11.7709,11.7709,11.7709,11.7709,11.7709,11.7102,11.6492,11.6492,11.6492,11.6182,11.5412,11.3099,10.9398,10.371,0.0,0.0,9.302,9.4518,9.7206,10.0589,10.4787,10.7982,10.9796,10.9911,10.9408,10.8482,10.8482,10.8908,10.9603,11.0711,11.2401,11.491,11.5913,11.6413,11.6492,11.6492,11.6492,11.6492,11.8103,11.8103,11.6682,11.8987,11.9292,11.7981,11.96,12.0216,12.0218,12.1103,12.1494,12.1414,12.1494,12.1094,12.0497,12.129,12.1092,12.0497,11.5301,11.5815,11.5999,11.5999,11.6905,11.7817,11.83,11.9413,12.0404,12.1205,12.0808,12.0618,12.1285,11.9994,11.971,12.1087,12.0512,12.0495,12.1482,11.9794,11.8084,11.6614,11.5393,11.4708,11.4389,11.3582,11.3499,11.4092,11.4492,11.5108,11.5988,11.6689,11.6387,11.5186,11.5387,11.5903,11.651,11.6401,11.7618,11.9603,11.9795,12.0216,12.0798,12.068,12.0795,12.1106,12.1106,12.0914,12.068,12.0991,12.0914,12.0606,11.9988,12.0218,12.0683,12.0683,12.0295,11.9795,11.9408,11.8985,11.86,11.86,11.8212,11.7786,11.7786,11.71,11.6492,11.6492,11.6492,11.63,11.5412,11.3596,11.1516,10.9208,0.0,10.0981,10.1789,10.0902,10.1709,10.5597,10.84,11.0516,11.1596,11.1791,11.1214,10.9793,11.0714,11.1211,11.1019,11.2788,11.4486,11.5989,11.6297,11.6492,11.6492,11.6492,11.6492,11.6492,11.7715,11.7718,11.6608,11.8603,11.8905,11.7905,11.9603,11.9988,11.9718,12.0991,12.1298,12.0795,12.0781,12.0893,12.1092,12.0893,12.0893,12.121,11.5705,11.5999,11.5999,11.5999,11.6911,11.7786,11.83,11.9297,12.0294,12.1217,12.1101,12.0991,12.1205,12.0508,12.0189,12.0687,12.0484,12.0602,12.1109,11.969,11.7989,11.6108,11.5485,11.5112,11.4813,11.4496,11.4795,11.5487,11.5505,11.6001,11.6907,11.6596,11.5915,11.4784,11.5198,11.552,11.5702,11.6108,11.7383,11.9087,11.9714,12.0216,12.0798,12.1417,12.1606,12.1606,12.1606,12.1606,12.1606,12.1606,12.1606,12.1494,12.0914,12.1103,12.1606,12.1606,12.1183,12.068,12.068,12.0295,11.9792,11.9485,11.8985,11.8597,11.8597,11.7907,11.7218,11.699,11.691,11.6682,11.5797,11.4486,11.3291,11.2519,10.8211,10.5713,10.779,10.629,10.6292,10.9713,11.1596,11.2788,11.3096,11.3407,11.2906,11.1486,11.2483,11.2981,11.2711,11.4602,11.5913,11.6492,11.6492,11.6492,11.6492,11.6492,11.6492,11.6492,11.7407,11.7292,11.649,11.7984,11.8405,11.7905,11.8985,11.9408,11.9215,12.0603,12.068,11.9908,12.0192,12.0308,12.0399,12.0305,12.0497,12.0893,11.581,11.5999,11.5999,11.5999,11.7314,11.8416,11.8416,11.9811,12.1211,12.1988,12.1395,12.1211,12.1988,12.1395,12.0591,11.9904,12.0603,12.0893,12.0217,11.9313,11.7984,11.6108,11.5999,11.5589,11.4813,11.5708,11.6181,11.6317,11.6403,11.7012,11.7813,11.689,11.5605,11.3991,11.5507,11.5308,11.3787,11.5585,11.7293,11.889,11.9111,12.0103,12.1606,12.1606,12.1606,12.1606,12.1606,12.1606,12.1606,12.1606,12.1606,12.1606,12.1606,12.1606,12.1606,12.1606,12.1606,12.1606,12.1606,12.1606,12.1414,12.0488,12.0295,12.0295,12.0295,11.9715,11.8908,11.802,11.7786,11.7481,11.6682,11.5797,11.4486,11.1901,11.0791,10.9908,10.9098,10.9716,11.0791,11.2519,11.4214,11.4989,11.4102,11.4794,11.491,11.4102,11.3984,11.4409,11.5297,11.6108,11.6492,11.6492,11.6492,11.6492,11.6492,11.6492,11.6492,11.6492,11.7407,11.7292,11.649,11.7404,11.7786,11.7786,11.7786,11.8289,11.9215,11.9988,11.9792,11.9212,12.0,11.9296,11.7986,11.9681,11.9784,11.9306,11.581,11.5999,11.5999,11.5999,11.6911,11.7707,11.83,11.9303,12.0294,12.1095,12.0979,12.0991,12.1205,12.0514,11.9897,11.9787,11.9505,11.9092,11.8299,11.8003,11.7284,11.611,11.5999,11.5889,11.5589,11.6609,11.7116,11.7093,11.7292,11.7483,11.7813,11.6281,11.5293,11.4808,11.51,11.532,11.5484,11.6697,11.8184,11.9782,11.9882,12.0603,12.1606,12.1606,12.1606,12.1606,12.1606,12.1606,12.1606,12.1606,12.1606,12.1606,12.1606,12.1606,12.1606,12.1606,12.1606,12.1606,12.1606,12.1606,12.1491,12.1298,12.0798,12.0295,12.0295,11.9715,11.8908,11.802,11.7786,11.7481,11.6682,11.6297,11.5682,11.4409,11.3909,11.3489,11.2599,11.2714,11.3294,11.4409,11.4989,11.5182,11.491,11.5102,11.491,11.4102,11.4602,11.5297,11.6108,11.6415,11.6492,11.6492,11.6492,11.6492,11.6492,11.6492,11.6492,11.6492,11.7407,11.7292,11.649,11.7404,11.7484,11.691,11.7481,11.7902,11.8289,11.91,11.9289,11.9088,11.8684,11.8589,11.8699,11.8603,11.9094,11.9983,11.6397,11.6601,11.6601,11.6601,11.7508,11.8306,11.8418,11.9413,12.0294,12.0802,12.0912,12.0912,12.0912,12.0398,12.0,11.968,11.9301,11.8699,11.7895,11.7905,11.7297,11.6099,11.5999,11.5999,11.5999,11.7299,11.8008,11.8007,11.8209,11.829,11.8311,11.6213,11.5085,11.5084,11.4888,11.5196,11.5687,11.6985,11.8291,11.9687,12.0083,12.0795,12.1606,12.1606,12.1799,12.2103,12.2103,12.2103,12.2103,12.2103,12.1911,12.1606,12.1606,12.1606,12.1606,12.1606,12.1606,12.1606,12.1606,12.1606,12.1606,12.1606,12.1183,12.0795,12.0795,12.0411,11.9795,11.86,11.8289,11.7905,11.6682,11.6492,11.6297,11.5915,11.5797,11.5605,11.5105,11.4986,11.5217,11.5682,11.5797,11.5797,11.5797,11.5797,11.5605,11.4986,11.5489,11.5992,11.6492,11.6492,11.6492,11.6492,11.6492,11.6492,11.6492,11.6492,11.6492,11.6492,11.6987,11.6987,11.6492,11.6984,11.6987,11.649,11.7102,11.7292,11.741,11.8215,11.8405,11.8091,11.7917,11.7906,11.7989,11.7897,11.8711,11.9919,11.7196,11.7512,11.7509,11.7409,11.8715,11.9402,11.8413,11.97,12.0802,12.0802,12.0881,12.0912,12.0912,12.0912,12.0502,11.9712,11.9595,11.9299,11.8513,11.8406,11.7705,11.6197,11.5993,11.5999,11.5999,11.7813,11.8787,11.8787,11.9097,11.9215,11.911,11.649,11.5215,11.5285,11.4995,11.4813,11.4997,11.6705,11.7895,11.89,11.9784,12.069,12.1606,12.1606,12.2103,12.279,12.279,12.2787,12.2902,12.2902,12.2293,12.1606,12.1606,12.1606,12.1606,12.1606,12.1606,12.1606,12.1606,12.1606,12.1606,12.1606,12.1606,12.1606,12.1606,12.1606,12.1103,11.9485,11.9215,11.8718,11.691,11.6605,11.6605,11.6492,11.6492,11.6492,11.6492,11.6492,11.6492,11.6492,11.6492,11.6492,11.6492,11.6492,11.6492,11.6492,11.6492,11.6492,11.6492,11.6492,11.6492,11.6492,11.6492,11.6492,11.6492,11.6492,11.6492,11.6492,11.6492,11.6492,11.6492,11.6492,11.6492,11.6492,11.6492,11.6492,11.6608,11.7407,11.7215,11.6605,11.7385,11.7198,11.6611,11.7403,11.8316,11.9212,11.7386,11.7985,11.8317,11.7502,11.8193,11.8511,11.7598,11.8814,11.9896,11.9896,12.0514,12.0912,12.0912,12.0912,12.0502,11.9712,11.8513,11.77,11.751,11.6895,11.6714,11.6911,11.6281,11.5999,11.5999,11.7813,11.8787,11.8787,11.9594,11.9985,12.0,11.7292,11.6384,11.6897,11.5487,11.5101,11.5802,11.6204,11.731,11.8785,11.9094,12.0184,12.1606,12.1606,12.1683,12.1911,12.1911,12.2293,12.2902,12.2902,12.2293,12.1606,12.1606,12.1606,12.1606,12.1606,12.1606,12.1606,12.1606,12.1606,12.1606,12.1606,12.1606,12.1606,12.1606,12.1606,12.1298,12.0295,11.9985,11.9485,11.7789,11.7481,11.7292,11.6605,11.6492,11.6492,11.6492,11.6492,11.6492,11.6492,11.6492,11.6492,11.6492,11.6492,11.6492,11.6492,11.6492,11.6492,11.6492,11.6492,11.6492,11.6492,11.6492,11.6492,11.6492,11.6492,11.6492,11.6492,11.6492,11.6492,11.6492,11.6492,11.6492,11.6492,11.6492,11.6492,11.6492,11.6682,11.6682,11.649,11.6715,11.6718,11.6492,11.669,11.7799,11.9292,11.8607,11.9094,11.9315,11.8812,11.9015,11.9012,11.8011,11.8896,11.9596,11.9604,12.0411,12.0912,12.0912,12.0912,12.0691,12.03,11.9113,11.8195,11.7786,11.7015,11.6611,11.6611,11.6611,11.6397,11.5999,11.8214,11.9189,11.8787,11.9789,12.0295,12.0189,11.7889,11.7097,11.7383,11.6,11.5589,11.6,11.6492,11.7292,11.8209,11.9117,12.0114,12.0981,12.1414,12.1914,12.2216,12.2216,12.2482,12.2787,12.2408,12.1988,12.1606,12.1606,12.1606,12.1606,12.1606,12.1606,12.1606,12.1606,12.1606,12.1606,12.1606,12.1606,12.1606,12.1606,12.1606,12.1417,12.0488,12.0295,11.9908,11.8715,11.8097,11.7712,11.7215,11.6797,11.6492,11.6492,11.6492,11.6492,11.6492,11.6492,11.6492,11.6492,11.6492,11.6492,11.6492,11.6492,11.6492,11.6492,11.6492,11.6492,11.6492,11.6492,11.6492,11.6492,11.6492,11.6492,11.6492,11.6492,11.6492,11.6492,11.6492,11.6492,11.6492,11.6492,11.6492,11.6492,11.6492,11.6492,11.6492,11.6492,11.6492,11.6492,11.6492,11.7292,11.871,11.9693,12.0207,12.0414,12.0194,11.9991,11.9494,11.8514,11.8788,11.9198,11.941,12.0106,12.0704,12.0912,12.0912,12.079,12.0704,12.0007,11.9297,11.8592,11.7888,11.7216,11.6592,11.71,11.6984,11.6208,11.8504,11.9396,11.8787,11.9984,12.0488,12.05,11.8607,11.77,11.7698,11.6487,11.5999,11.611,11.6788,11.7301,11.7512,11.9291,12.0098,12.03,12.1206,12.1988,12.2713,12.2713,12.2713,12.2598,12.2186,12.1802,12.1606,12.1606,12.1606,12.1606,12.1606,12.1606,12.1606,12.1606,12.1606,12.1606,12.1606,12.1606,12.1606,12.1606,12.1606,12.1414,12.068,12.0488,12.0295,11.9487,11.86,11.802,11.7786,11.7102,11.6492,11.6492,11.6492,11.6492,11.6492,11.6492,11.6492,11.6492,11.6492,11.6492,11.6492,11.6492,11.6492,11.6492,11.6492,11.6492,11.6492,11.6492,11.6492,11.6492,11.6492,11.6492,11.6492,11.6492,11.6492,11.6492,11.6492,11.6492,11.6492,11.6492,11.6492,11.6492,11.6492,11.6492,11.6492,11.6492,11.6492,11.6492,11.669,11.7189,11.7904,11.8895,12.03,12.1207,12.0308,11.9482,11.8602,11.7698,11.7502,11.7817,11.8483,11.9287,12.0088,12.079,12.0912,12.0582,11.9795,11.9685,11.9597,11.9406,11.8686,11.8486,11.9118,11.8596,11.7912,11.7102,11.8201,11.8793,11.8787,12.0602,12.1414,12.1388,11.9496,11.8594,11.8507,11.6799,11.5999,11.601,11.6097,11.6695,11.7487,11.8603,11.9497,12.03,12.1206,12.1683,12.1799,12.1799,12.1799,12.1994,12.3317,12.2814,12.1606,12.1606,12.1606,12.1606,12.1606,12.1606,12.1606,12.1606,12.1606,12.1606,12.1606,12.1606,12.1606,12.1606,12.1606,12.1609,12.1414,12.1414,12.1183,12.0295,11.9487,11.8715,11.7902,11.7102,11.6492,11.6492,11.6492,11.6492,11.6492,11.6492,11.6492,11.6492,11.6492,11.6492,11.6492,11.6492,11.6492,11.6492,11.6492,11.6492,11.6492,11.6492,11.6492,11.6492,11.6492,11.6492,11.6492,11.6492,11.6492,11.6492,11.6492,11.6492,11.6492,11.6492,11.6492,11.6492,11.6492,11.6492,11.6492,11.6492,11.6492,11.6611,11.7284,11.771,11.7897,12.0208,12.1019,12.1488,12.1092,11.9784,11.8689,11.8197,11.7616,11.7502,11.8316,11.9089,11.9917,12.079,12.0912,12.0704,12.0411,11.9917,11.9599,11.9602,11.8814,11.8587,11.8894,11.899,11.8507,11.7215,11.861,11.9104,11.8796,12.0184,12.1096,12.1583,11.969,11.8787,11.8704,11.6794,11.5999,11.5999,11.5999,11.6196,11.6717,11.7604,11.8592,11.951,12.0507,12.1099,12.1606,12.1606,12.1902,12.2393,12.2609,12.2189,12.1606,12.1606,12.1606,12.1606,12.1606,12.1606,12.1606,12.1606,12.1606,12.1606,12.1606,12.1606,12.1606,12.1606,12.1606,12.1606,12.1606,12.1606,12.1298,12.0491,11.96,11.8789,11.7902,11.7102,11.6492,11.6492,11.6492,11.6492,11.6492,11.6492,11.6492,11.6492,11.6492,11.6492,11.6492,11.6492,11.6492,11.6492,11.6492,11.6492,11.6492,11.6492,11.6492,11.6492,11.6492,11.6492,11.6492,11.6492,11.6492,11.6492,11.6492,11.6492,11.6492,11.6492,11.6492,11.6492,11.6492,11.6492,11.6492,11.6492,11.6492,11.6492,11.6888,11.7086,11.7086]},{"header":{"parameterUnit":"m.s-1","parameterCategory":1,"la1":30.6,"la2":28.766,"lo1":-90.7593,"lo2":-88.6598,"dy":0.0162,"dx":0.0183,"nx":116,"ny":114,"refTime":"2024-03-18T18:00:00:Z","depth":0,"parameterNumber":3,"parameterNumberName":"V-component_of_WINDS"},"data":[0.0,0.0,0.0,0.0,0.0,0.0,0.0,0.0,0.0,0.0,0.0,0.0,0.0,0.0,0.0,0.0,0.0,0.0,0.0,0.0,0.0,0.0,0.0,0.0,0.0,0.0,0.0,0.0,0.0,0.0,0.0,0.0,0.0,0.0,0.0,0.0,0.0,0.0,0.0,0.0,0.0,0.0,0.0,0.0,0.0,0.0,0.0,0.0,0.0,0.0,0.0,0.0,0.0,0.0,0.0,0.0,0.0,0.0,0.0,0.0,0.0,0.0,0.0,0.0,0.0,0.0,0.0,0.0,0.0,0.0,0.0,0.0,0.0,0.0,0.0,0.0,0.0,0.0,0.0,0.0,0.0,0.0,0.0,0.0,0.0,0.0,0.0,0.0,0.0,0.0,0.0,0.0,0.0,0.0,0.0,0.0,0.0,0.0,0.0,0.0,0.0,0.0,0.0,0.0,0.0,0.0,0.0,0.0,0.0,0.0,0.0,0.0,0.0,0.0,0.0,0.0,0.0,0.0,0.0,0.0,0.0,0.0,0.0,0.0,0.0,0.0,0.0,0.0,0.0,0.0,0.0,0.0,0.0,0.0,0.0,0.0,0.0,0.0,0.0,0.0,0.0,0.0,0.0,0.0,0.0,0.0,0.0,0.0,0.0,0.0,0.0,0.0,0.0,0.0,0.0,0.0,0.0,0.0,0.0,0.0,0.0,0.0,0.0,0.0,0.0,0.0,0.0,0.0,0.0,0.0,0.0,0.0,0.0,0.0,0.0,0.0,0.0,0.0,0.0,0.0,0.0,0.0,0.0,0.0,0.0,0.0,0.0,0.0,0.0,0.0,0.0,0.0,0.0,0.0,0.0,0.0,0.0,0.0,0.0,0.0,0.0,0.0,0.0,0.0,0.0,0.0,0.0,0.0,0.0,0.0,0.0,0.0,0.0,0.0,0.0,0.0,0.0,0.0,0.0,0.0,0.0,0.0,0.0,0.0,0.0,0.0,0.0,0.0,0.0,0.0,0.0,0.0,0.0,0.0,0.0,0.0,0.0,0.0,0.0,0.0,0.0,0.0,0.0,0.0,0.0,0.0,0.0,0.0,0.0,0.0,0.0,0.0,0.0,0.0,0.0,0.0,0.0,0.0,0.0,0.0,0.0,0.0,0.0,0.0,0.0,0.0,0.0,0.0,0.0,0.0,0.0,0.0,0.0,0.0,0.0,0.0,0.0,0.0,0.0,0.0,0.0,0.0,0.0,0.0,0.0,0.0,0.0,0.0,0.0,0.0,0.0,0.0,0.0,0.0,0.0,0.0,0.0,0.0,0.0,0.0,0.0,0.0,0.0,0.0,0.0,0.0,0.0,0.0,0.0,0.0,0.0,0.0,0.0,0.0,0.0,0.0,0.0,0.0,0.0,0.0,0.0,0.0,0.0,0.0,0.0,0.0,0.0,0.0,0.0,0.0,0.0,0.0,0.0,0.0,0.0,0.0,0.0,0.0,0.0,0.0,0.0,0.0,0.0,0.0,0.0,0.0,0.0,0.0,0.0,0.0,0.0,0.0,0.0,0.0,0.0,0.0,0.0,0.0,0.0,0.0,0.0,0.0,0.0,0.0,0.0,0.0,0.0,0.0,0.0,0.0,0.0,0.0,0.0,0.0,0.0,0.0,0.0,0.0,0.0,0.0,0.0,0.0,0.0,0.0,0.0,0.0,0.0,0.0,0.0,0.0,0.0,0.0,0.0,0.0,0.0,0.0,0.0,0.0,0.0,0.0,0.0,0.0,0.0,0.0,0.0,0.0,0.0,0.0,0.0,0.0,0.0,0.0,0.0,0.0,0.0,0.0,0.0,0.0,0.0,0.0,0.0,0.0,0.0,0.0,0.0,0.0,0.0,0.0,0.0,0.0,0.0,0.0,0.0,0.0,0.0,0.0,0.0,0.0,0.0,0.0,0.0,0.0,0.0,0.0,0.0,0.0,0.0,0.0,0.0,0.0,0.0,0.0,0.0,0.0,0.0,0.0,0.0,0.0,0.0,0.0,0.0,0.0,0.0,0.0,0.0,0.0,0.0,0.0,0.0,0.0,0.0,0.0,0.0,0.0,0.0,0.0,0.0,0.0,0.0,0.0,0.0,0.0,0.0,0.0,0.0,0.0,0.0,0.0,0.0,0.0,0.0,0.0,0.0,0.0,0.0,0.0,0.0,0.0,0.0,0.0,0.0,0.0,0.0,0.0,0.0,0.0,0.0,0.0,0.0,0.0,0.0,0.0,0.0,0.0,0.0,0.0,0.0,0.0,0.0,0.0,0.0,0.0,0.0,0.0,0.0,0.0,0.0,0.0,0.0,0.0,0.0,0.0,0.0,0.0,0.0,0.0,0.0,0.0,0.0,0.0,0.0,0.0,0.0,0.0,0.0,0.0,0.0,0.0,0.0,0.0,0.0,0.0,0.0,0.0,0.0,0.0,0.0,0.0,0.0,0.0,0.0,0.0,0.0,0.0,0.0,0.0,0.0,0.0,0.0,0.0,0.0,0.0,0.0,0.0,0.0,0.0,0.0,0.0,0.0,0.0,0.0,0.0,0.0,0.0,0.0,0.0,0.0,0.0,0.0,0.0,0.0,0.0,0.0,0.0,0.0,0.0,0.0,0.0,0.0,0.0,0.0,0.0,0.0,0.0,0.0,0.0,0.0,0.0,0.0,0.0,0.0,0.0,0.0,0.0,0.0,0.0,0.0,0.0,0.0,0.0,0.0,0.0,0.0,0.0,0.0,0.0,0.0,0.0,0.0,0.0,0.0,0.0,0.0,0.0,0.0,0.0,0.0,0.0,0.0,0.0,0.0,0.0,0.0,0.0,0.0,0.0,0.0,0.0,0.0,0.0,0.0,0.0,0.0,0.0,0.0,0.0,0.0,0.0,0.0,0.0,0.0,0.0,0.0,0.0,0.0,0.0,0.0,0.0,0.0,0.0,0.0,0.0,0.0,0.0,0.0,0.0,0.0,0.0,0.0,0.0,0.0,0.0,0.0,0.0,0.0,0.0,0.0,0.0,0.0,0.0,0.0,0.0,0.0,0.0,0.0,0.0,0.0,0.0,0.0,0.0,0.0,0.0,0.0,0.0,0.0,0.0,0.0,0.0,0.0,0.0,0.0,0.0,0.0,0.0,0.0,0.0,0.0,0.0,0.0,0.0,0.0,0.0,0.0,0.0,0.0,0.0,0.0,0.0,0.0,0.0,0.0,0.0,0.0,0.0,0.0,0.0,0.0,0.0,0.0,0.0,0.0,0.0,0.0,0.0,0.0,0.0,0.0,0.0,0.0,0.0,0.0,0.0,0.0,0.0,0.0,0.0,0.0,0.0,0.0,0.0,0.0,0.0,0.0,0.0,0.0,0.0,0.0,0.0,0.0,0.0,0.0,0.0,0.0,0.0,0.0,0.0,0.0,0.0,0.0,0.0,0.0,0.0,0.0,0.0,0.0,0.0,0.0,0.0,0.0,0.0,0.0,0.0,0.0,0.0,0.0,0.0,0.0,0.0,0.0,0.0,0.0,0.0,0.0,0.0,0.0,0.0,0.0,0.0,0.0,0.0,0.0,0.0,0.0,0.0,0.0,0.0,0.0,0.0,0.0,0.0,0.0,0.0,0.0,0.0,0.0,0.0,0.0,0.0,0.0,0.0,0.0,0.0,0.0,0.0,0.0,0.0,0.0,0.0,0.0,0.0,0.0,0.0,0.0,0.0,0.0,0.0,0.0,0.0,0.0,0.0,0.0,0.0,0.0,0.0,0.0,0.0,0.0,0.0,0.0,0.0,0.0,0.0,0.0,0.0,0.0,0.0,0.0,0.0,0.0,0.0,0.0,0.0,0.0,0.0,0.0,0.0,0.0,0.0,0.0,0.0,0.0,0.0,0.0,0.0,0.0,0.0,0.0,0.0,0.0,0.0,0.0,0.0,0.0,0.0,0.0,0.0,0.0,0.0,0.0,0.0,0.0,0.0,0.0,0.0,0.0,0.0,0.0,0.0,0.0,0.0,0.0,0.0,0.0,0.0,0.0,0.0,0.0,0.0,0.0,0.0,0.0,0.0,0.0,0.0,0.0,0.0,0.0,0.0,0.0,0.0,0.0,0.0,0.0,0.0,0.0,0.0,0.0,0.0,0.0,0.0,0.0,0.0,0.0,0.0,0.0,0.0,0.0,0.0,0.0,0.0,0.0,0.0,0.0,0.0,0.0,0.0,0.0,0.0,0.0,0.0,0.0,0.0,0.0,0.0,0.0,0.0,0.0,0.0,0.0,0.0,0.0,0.0,0.0,0.0,0.0,0.0,0.0,0.0,0.0,0.0,0.0,0.0,0.0,0.0,0.0,0.0,0.0,0.0,0.0,0.0,0.0,0.0,0.0,0.0,0.0,0.0,0.0,0.0,0.0,0.0,0.0,0.0,0.0,0.0,0.0,0.0,0.0,0.0,0.0,0.0,0.0,0.0,0.0,0.0,0.0,0.0,0.0,0.0,0.0,0.0,0.0,0.0,0.0,0.0,0.0,0.0,0.0,0.0,0.0,0.0,0.0,0.0,0.0,0.0,0.0,0.0,0.0,0.0,0.0,0.0,0.0,0.0,0.0,0.0,0.0,0.0,0.0,0.0,0.0,0.0,0.0,0.0,0.0,0.0,0.0,0.0,0.0,0.0,0.0,0.0,0.0,0.0,0.0,0.0,0.0,0.0,0.0,0.0,0.0,0.0,0.0,0.0,0.0,0.0,0.0,0.0,0.0,0.0,0.0,0.0,0.0,0.0,0.0,0.0,0.0,0.0,0.0,0.0,0.0,0.0,0.0,0.0,0.0,0.0,0.0,0.0,0.0,0.0,0.0,0.0,0.0,0.0,0.0,0.0,0.0,0.0,0.0,0.0,0.0,0.0,0.0,0.0,0.0,0.0,0.0,0.0,0.0,0.0,0.0,0.0,0.0,0.0,0.0,0.0,0.0,0.0,0.0,0.0,0.0,0.0,0.0,0.0,0.0,0.0,0.0,0.0,0.0,0.0,0.0,0.0,0.0,0.0,0.0,0.0,0.0,0.0,0.0,0.0,0.0,0.0,0.0,0.0,0.0,0.0,0.0,0.0,0.0,0.0,0.0,0.0,0.0,0.0,0.0,0.0,0.0,0.0,0.0,0.0,0.0,0.0,0.0,0.0,0.0,0.0,0.0,0.0,0.0,0.0,0.0,0.0,0.0,0.0,0.0,0.0,0.0,0.0,0.0,0.0,0.0,0.0,0.0,0.0,0.0,0.0,0.0,0.0,0.0,0.0,0.0,0.0,0.0,0.0,0.0,0.0,0.0,0.0,0.0,0.0,0.0,0.0,0.0,0.0,0.0,0.0,0.0,0.0,0.0,0.0,0.0,0.0,0.0,0.0,0.0,0.0,0.0,0.0,0.0,0.0,0.0,0.0,0.0,0.0,0.0,0.0,0.0,0.0,0.0,0.0,0.0,0.0,0.0,0.0,0.0,0.0,0.0,0.0,0.0,0.0,0.0,0.0,0.0,0.0,0.0,0.0,0.0,0.0,0.0,0.0,0.0,0.0,0.0,0.0,0.0,0.0,0.0,0.0,0.0,0.0,0.0,0.0,0.0,0.0,0.0,0.0,0.0,0.0,0.0,0.0,0.0,0.0,0.0,0.0,0.0,0.0,0.0,0.0,0.0,0.0,0.0,0.0,0.0,0.0,0.0,0.0,0.0,0.0,0.0,0.0,0.0,0.0,0.0,0.0,0.0,0.0,0.0,0.0,0.0,0.0,0.0,0.0,0.0,0.0,0.0,0.0,0.0,0.0,0.0,0.0,0.0,0.0,0.0,0.0,0.0,0.0,0.0,0.0,0.0,0.0,0.0,0.0,0.0,0.0,0.0,0.0,0.0,0.0,0.0,0.0,0.0,0.0,0.0,0.0,0.0,0.0,0.0,0.0,0.0,0.0,0.0,0.0,0.0,0.0,0.0,0.0,0.0,0.0,0.0,0.0,0.0,0.0,0.0,0.0,0.0,0.0,0.0,0.0,0.0,0.0,0.0,0.0,0.0,0.0,0.0,0.0,0.0,0.0,0.0,0.0,0.0,0.0,0.5733,0.0,0.0,0.0,0.0,0.0,0.0,0.0,0.0,0.0,0.0,0.0,0.0,0.0,0.0,0.0,0.0,0.0,0.0,0.0,0.0,0.0,0.0,0.0,0.0,0.0,0.0,0.0,0.0,0.0,0.0,0.0,0.0,0.0,0.0,0.0,0.0,0.0,0.9512,0.948,1.0128,1.1339,1.3044,1.2124,0.0,0.0,0.0,0.0,0.0,0.0,0.0,0.0,0.0,0.0,0.0,0.0,0.0,0.0,0.0,0.0,0.0,0.0,0.0,0.0,0.0,0.0,0.0,0.0,0.0,0.0,0.0,0.0,0.0,0.0,0.0,0.0,0.0,0.0,0.0,0.0,0.0,0.0,0.0,0.0,0.0,0.0,0.0,0.0,0.0,0.0,0.0,0.0,0.0,0.0,0.0,0.0,0.0,0.0,0.0,0.0,0.0,0.0,0.0,0.0,0.0,0.0,0.0,0.0,0.0,0.0,0.0,0.0,0.0,0.0,0.0,0.0,0.0,0.7354,0.0,0.0,0.0,0.0,0.0,0.0,0.0,0.0,0.0,0.0,0.0,0.0,0.0,0.0,0.0,0.0,0.0,0.0,0.0,0.0,0.0,0.0,0.0,1.3844,1.4026,1.4365,1.4037,1.3779,1.3689,1.3798,1.3745,1.3436,1.2631,1.2085,1.1833,1.0815,1.0703,1.1529,1.2864,1.4599,1.6689,0.0,0.0,0.0,0.0,0.0,0.0,0.0,0.0,0.0,0.0,0.0,0.0,0.0,0.0,0.0,0.0,0.0,0.0,0.0,0.0,0.0,0.0,0.0,0.0,0.0,0.0,0.0,0.0,0.0,0.0,0.0,0.0,0.0,0.0,0.0,0.0,0.0,0.0,0.0,0.0,0.0,0.0,0.0,0.0,0.0,0.0,0.0,0.0,0.0,0.0,0.0,0.0,0.0,0.0,0.0,0.0,0.0,0.0,0.0,0.0,0.0,0.0,0.0,0.0,0.0,0.0,0.0,0.0,1.1844,1.099,1.1076,1.161,1.2409,1.1376,1.0675,0.9965,0.0,0.0,0.0,0.0,0.0,0.0,0.0,0.0,0.0,0.0,0.0,0.0,0.0,0.0,0.0,0.0,0.0,0.0,0.0,0.0,0.0,0.0,1.5048,1.5717,1.6272,1.6278,1.6065,1.5666,1.5443,1.4665,1.3218,1.3027,1.2375,1.1158,1.1356,1.1794,1.2434,1.721,2.0591,2.2592,2.3054,2.3129,2.264,1.7299,0.0,0.0,0.0,0.0,0.0,0.0,0.0,0.0,0.0,0.0,0.0,0.0,0.0,0.0,0.0,0.0,0.0,0.0,0.0,0.0,0.0,0.0,0.0,0.0,0.0,0.0,0.0,0.0,0.0,0.0,0.0,0.0,0.0,0.0,0.0,0.0,0.0,0.0,0.0,0.0,0.0,0.0,0.0,1.0,0.6965,0.0,0.0,0.0,0.0,0.0,0.0,0.0,0.0,0.0,0.0,0.0,0.0,0.0,0.0,0.9017,1.3228,1.5201,1.4916,1.4787,1.4514,1.4113,1.4301,1.4641,1.5074,1.4812,0.0,1.1061,1.0139,0.0,0.0,0.0,0.0,0.0,0.0,0.0,0.0,0.0,0.0,0.0,0.0,0.0,0.0,0.0,0.0,0.0,0.0,0.0,0.0,0.0,1.6674,1.7615,1.8384,1.9206,1.9035,1.7504,1.7744,1.7108,1.5214,1.4258,1.3538,1.3031,1.2775,1.4212,1.7382,2.1303,2.4155,2.5959,2.6347,2.6542,2.6423,2.3877,2.1034,1.8043,1.5969,0.0,0.0,0.0,0.0,0.0,0.0,0.0,0.0,0.0,0.0,0.0,0.0,0.0,0.0,0.0,0.0,0.0,0.0,0.0,0.0,0.0,0.0,0.0,0.0,0.0,0.0,0.0,0.0,0.0,0.0,0.0,0.0,0.0,0.0,0.0,0.0,0.0,0.0,0.0,0.9808,1.1006,0.6639,0.5603,0.4283,0.0,0.0,0.0,0.0,0.0,0.0,0.0,0.0,0.0,1.1626,1.2241,1.2684,1.2933,1.5317,1.6423,1.6227,1.6444,1.6531,1.6516,1.6748,1.6945,1.7114,1.706,1.6196,1.4682,1.2633,1.0876,0.9172,0.0,0.0,0.0,0.0,0.0,0.9663,0.0,0.0,0.0,0.0,0.0,0.0,0.0,0.0,0.0,0.0,0.0,0.0,1.7201,1.8531,1.9727,2.0828,2.1726,2.1553,1.9962,1.9887,1.9184,1.756,1.577,1.5028,1.5496,1.5715,1.8024,2.2506,2.5274,2.7431,2.8962,2.9345,2.949,2.941,2.9262,2.6337,2.1392,1.9324,1.6985,0.0,0.0,0.0,0.0,0.0,0.0,0.0,0.0,0.0,0.0,0.0,0.0,0.0,0.0,0.0,0.0,0.0,0.0,0.0,0.0,0.0,0.0,0.0,0.0,0.0,0.0,0.0,0.0,0.0,0.0,0.0,0.0,0.0,0.0,0.0,0.0,0.0,0.0,0.842,1.1124,0.6423,0.6651,0.6471,0.0,0.0,0.0,0.0,0.0,0.0,1.1503,1.3155,1.444,1.5349,1.5954,1.6395,1.6705,1.7266,1.747,1.7323,1.7758,1.8042,1.8241,1.8443,1.8551,1.8571,1.8551,1.8327,1.7777,1.4828,1.3055,1.1835,0.805,0.5942,0.4785,0.2633,0.7115,1.4492,0.0,0.0,0.0,0.0,0.0,0.0,0.0,0.0,0.0,0.0,0.0,1.6346,1.8973,2.0573,2.2131,2.3834,2.33,2.3054,2.35,2.1435,2.0024,1.9663,1.7433,1.6743,1.7894,2.0878,2.3697,2.6321,2.9143,3.1159,3.2367,3.2892,3.3,3.273,3.2157,3.0181,2.7089,2.4131,2.2126,2.0565,0.0,0.0,0.0,0.0,0.0,0.0,0.0,0.0,0.0,0.0,0.0,0.0,0.0,0.0,0.0,0.0,0.0,0.0,0.0,0.0,0.0,0.0,0.0,0.0,0.0,0.0,0.0,0.0,0.0,0.0,0.0,0.0,0.0,0.0,0.0,0.0,0.0,0.0,0.0,0.7965,0.8828,0.0,0.0,0.0,0.0,1.2472,1.2096,1.2689,1.4837,1.3887,1.4055,1.581,1.639,1.6943,1.7528,1.801,1.8398,1.8697,1.8859,1.9007,1.9143,1.9149,1.9222,1.9344,1.9202,1.9134,1.8958,1.6946,1.5122,1.3511,1.2557,1.0092,0.7039,0.6895,0.7869,0.9894,0.0,0.0,0.0,0.0,0.0,0.0,0.0,0.0,1.3764,1.5032,1.6634,1.8817,2.1903,2.4044,2.5818,2.7167,2.7569,2.7015,2.5338,2.3839,2.2197,2.0327,1.9152,1.9458,2.1392,2.3298,2.6,2.956,3.1525,3.308,3.4281,3.4469,3.4509,3.4402,3.3975,3.2881,3.1162,2.8005,2.507,2.2253,1.9497,1.6171,0.0,0.0,0.0,0.0,0.0,0.0,0.0,0.0,0.0,0.0,0.0,0.0,0.0,0.0,0.0,0.0,0.0,0.0,0.0,0.0,0.0,0.0,0.0,0.0,0.0,0.0,0.0,0.0,0.0,0.0,0.0,0.0,0.0,0.0,0.0,0.0,0.0,1.0014,1.1456,0.0,1.0449,1.0735,1.1599,1.2955,1.3606,1.4586,1.6093,1.6083,1.6512,1.7541,1.7968,1.8375,1.8752,1.9046,1.9306,1.9518,1.9639,1.9732,1.9786,1.9873,1.9925,1.9979,1.9925,1.9859,1.9712,1.8844,1.7531,1.6008,1.5328,1.4263,1.3174,1.3607,1.3993,1.4563,0.0,0.0,0.0,0.0,0.0,0.0,0.0,0.0,1.4199,1.5888,1.8089,2.0861,2.4418,2.7008,2.9016,3.0372,3.0526,2.9626,2.7459,2.5606,2.3796,2.1955,2.1897,2.2525,2.3874,2.6288,2.9139,3.24,3.3869,3.499,3.5778,3.5885,3.5885,3.5752,3.5445,3.4937,3.415,3.1717,2.864,2.5188,2.2703,1.9874,1.6826,0.0,0.0,0.0,0.0,0.0,0.0,0.0,0.0,0.0,0.0,0.0,0.0,0.0,0.0,0.0,0.0,0.0,0.0,0.0,0.0,0.0,0.0,0.0,0.0,0.0,0.0,0.0,0.0,0.0,0.0,0.0,0.0,0.0,0.0,0.0,1.4846,1.1471,1.3642,1.449,1.2141,1.2948,1.3841,1.4381,1.5393,1.6394,1.7358,1.7866,1.8367,1.889,1.9218,1.9481,1.9702,1.9942,2.0082,2.0098,2.0315,2.0383,2.0345,2.0476,2.0544,2.0528,2.049,2.0417,2.0315,2.001,1.9252,1.8165,1.748,1.7136,1.7096,1.7532,1.7695,1.771,0.0,0.0,0.0,0.0,0.0,0.0,0.0,1.328,1.4378,1.6487,1.9126,2.2373,2.6473,2.9328,3.1637,3.3361,3.1904,3.0608,2.9982,2.661,2.4639,2.4662,2.5512,2.577,2.5365,3.0067,3.3281,3.4869,3.6246,3.6926,3.6953,3.7289,3.7275,3.6939,3.6673,3.6407,3.6099,3.523,3.3012,2.9746,2.5876,2.4274,2.3633,0.0,0.0,0.0,0.0,0.0,0.0,0.0,0.0,0.0,0.0,0.0,0.0,0.0,0.0,0.0,0.0,0.0,0.0,0.0,0.0,0.0,0.0,0.0,0.0,0.0,0.0,0.0,0.0,0.0,0.0,0.0,0.0,0.0,1.1259,1.4669,1.598,1.244,1.5365,1.6703,1.4287,1.5754,1.6922,1.7059,1.7616,1.8207,1.8811,1.9096,1.9394,1.9723,1.9992,2.0191,2.0318,2.0643,2.0718,2.0528,2.0842,2.0933,2.0806,2.0949,2.1001,2.0984,2.0861,2.0802,2.0772,2.0451,2.0157,1.9836,1.911,1.862,1.8321,1.8321,1.8394,1.8469,0.0,0.0,0.0,0.0,0.0,0.0,0.0,1.3745,1.5234,1.7936,2.136,2.5098,2.9245,3.244,3.4737,3.5845,3.3937,3.216,3.0919,2.7328,2.5455,2.5892,2.5647,2.718,3.0753,3.2169,3.4014,3.6407,3.7182,3.769,3.7918,3.821,3.8288,3.8181,3.7929,3.7624,3.7288,3.662,3.5578,3.4082,3.0437,2.7132,2.4188,0.0,0.0,0.0,0.0,0.0,0.0,0.0,0.0,0.0,0.0,0.0,0.0,0.0,0.0,0.0,0.0,0.0,0.0,0.0,0.0,0.0,0.0,0.0,0.0,0.0,0.0,0.0,0.0,0.0,0.0,0.0,0.0,1.522,1.5314,1.634,1.7022,1.6894,1.8084,1.8556,1.7677,1.799,1.8384,1.8728,1.889,1.9257,1.9859,2.0049,2.0245,2.049,2.0664,2.077,2.0808,2.0892,2.0912,2.0862,2.0967,2.098,2.0946,2.098,2.1001,2.1001,2.0962,2.0895,2.0786,2.0698,2.0487,2.0137,1.9654,1.9199,1.8816,1.8816,1.8673,1.8482,0.0,0.0,0.0,0.0,0.0,0.0,0.0,1.3946,1.5654,1.8857,2.2829,2.6937,3.1064,3.4283,3.6352,3.6859,3.4751,3.2562,3.061,2.7592,2.6156,2.6754,0.0,2.9992,3.3468,3.4655,3.6086,3.7875,3.833,3.8651,3.8852,3.8997,3.9077,3.9062,3.8758,3.853,3.8314,3.7861,3.7328,3.6634,3.4563,3.1668,2.8354,2.5978,2.3916,2.2062,2.0483,1.914,1.7803,1.571,0.0,0.0,0.0,0.0,0.0,0.0,0.0,0.0,0.0,0.0,0.0,0.0,0.0,0.0,0.0,0.0,0.0,0.0,0.0,0.0,0.0,0.0,0.0,0.0,1.4755,1.6606,1.7834,1.7857,1.8153,1.9218,1.9642,1.9785,1.9569,1.9522,1.9644,1.9963,2.0035,2.0264,2.0738,2.083,2.0964,2.1176,2.1177,2.1211,2.1285,2.1211,2.114,2.1072,2.114,2.1177,2.1177,2.1177,2.1211,0.0,2.1143,2.1034,2.0962,2.0908,2.0736,0.0,0.0,0.0,0.0,0.0,1.9271,1.8993,0.0,0.0,0.0,0.0,0.0,0.0,0.0,1.3972,1.5847,1.9426,2.3714,2.7976,3.2027,3.5097,3.6833,3.6806,3.4657,3.2174,2.9535,2.7663,2.7011,2.786,3.1082,3.3451,3.4723,3.7102,3.8611,3.9169,3.9533,3.9691,3.9691,3.9758,3.9786,3.9786,3.9463,3.9301,3.9288,3.9022,3.8542,3.7996,3.7968,3.6539,3.4021,3.0082,2.8523,2.8073,2.5329,2.3187,2.1239,1.8543,0.0,0.0,0.0,0.0,0.0,0.0,0.0,0.0,0.0,0.0,0.0,0.0,0.0,0.0,0.0,0.0,0.0,0.0,0.0,0.0,0.0,0.0,0.0,0.0,1.6456,1.7311,1.9275,1.9306,1.9409,2.0153,2.0453,2.0546,2.044,2.0541,2.072,2.0911,2.1051,2.1228,2.1496,0.0,0.0,0.0,0.0,2.1581,2.1743,2.1581,2.1422,2.1285,2.1408,2.1476,2.1462,2.1462,2.1547,2.1685,2.1387,2.1228,2.1197,2.1068,2.0933,2.0768,2.0435,2.0225,2.0119,2.0114,1.9937,0.0,0.0,0.0,0.0,0.0,0.0,0.0,0.0,1.4172,1.6257,2.0028,2.4133,2.8126,3.1772,3.4803,3.6486,3.6273,3.4069,3.1478,2.8634,2.8278,2.9189,3.147,3.3371,3.5351,3.749,3.825,3.8905,3.949,4.0055,4.0324,4.0349,4.0771,4.097,4.096,4.068,4.0544,4.0533,4.0269,3.9801,3.9239,3.897,3.7446,3.5218,3.3918,3.2985,3.2126,3.0626,2.9515,2.8377,2.5992,2.2801,1.945,1.7216,0.0,0.0,0.0,0.0,0.0,0.0,0.0,0.0,0.0,0.0,0.0,0.0,0.0,0.0,0.0,0.0,0.0,0.0,0.0,0.0,1.4929,1.7133,1.9081,2.0345,2.0874,2.1139,2.1144,2.1198,2.1216,2.1198,2.1357,2.1526,2.1685,2.1815,2.1954,2.2109,2.2126,0.0,2.218,2.2146,2.2092,2.2025,2.2096,2.2008,2.1777,0.0,0.0,2.1794,2.1794,2.1777,2.1706,2.1638,2.1458,2.1194,2.1177,2.1021,2.0768,2.0435,2.0277,2.0243,2.0137,1.9992,1.9836,0.0,0.0,0.0,0.0,0.0,0.0,0.0,1.4082,1.6037,1.9581,2.3108,2.6543,2.9789,3.1971,3.3014,3.2573,3.0772,2.9344,2.8655,2.9856,3.1781,3.4441,3.6246,3.7891,3.936,3.9798,4.0144,4.0453,4.0746,4.0893,4.0909,4.1172,4.129,4.129,4.1172,4.1092,4.1092,4.096,4.0735,4.0438,4.0276,3.95,3.8274,3.6701,3.5805,3.5311,3.4576,3.3715,3.2609,3.0278,2.652,2.2387,1.9961,1.6491,1.3108,0.0,0.0,0.0,0.0,0.0,0.0,0.0,0.0,0.0,0.0,0.0,0.0,0.0,0.0,0.9939,1.1384,0.0,1.4886,1.6838,1.8665,2.0225,2.1299,2.1777,2.1954,2.1862,2.1845,2.1845,2.1845,2.1933,2.2076,2.2235,2.2307,2.2408,2.2536,2.255,2.2584,2.2658,2.2516,2.2445,2.2445,2.236,2.2235,2.2096,2.2164,2.2215,2.2232,2.2076,2.2004,2.1991,2.1791,2.1635,2.1546,2.1371,2.1181,2.0967,2.0668,2.049,2.0386,2.0318,2.0227,2.0085,0.0,0.0,0.0,0.0,0.0,0.0,0.0,1.3946,1.5639,1.8805,2.1649,2.4405,2.7132,2.8441,2.89,2.8292,2.7418,2.7618,2.9319,3.1848,3.4454,3.7074,3.9132,4.0401,4.0817,4.1319,4.1548,4.1477,4.1548,4.1572,4.1572,4.1623,4.1655,4.1655,4.1655,4.1679,4.173,4.173,4.169,4.1655,4.1706,4.1679,4.1345,3.9293,3.833,3.801,3.7581,3.6278,3.4528,3.318,2.8853,2.3728,2.2062,1.8482,1.464,1.339,1.2898,0.0,0.0,0.0,0.0,0.0,0.0,0.0,0.0,0.0,0.9591,1.0651,1.1177,1.2141,1.4354,1.5448,1.6824,1.926,2.0318,2.1144,2.2096,2.2374,2.2478,2.2519,2.2444,2.239,2.239,2.2428,2.2496,2.2677,2.2731,2.2802,2.2907,2.2958,2.3013,2.3079,2.287,2.2782,2.2836,2.2604,2.2444,2.239,2.2431,2.252,2.2623,2.2323,2.2231,2.2289,2.1903,2.1811,2.192,2.1581,2.1371,2.1215,2.0967,2.0756,2.0541,2.0512,2.0424,2.0331,0.0,0.0,0.0,0.0,0.0,0.0,0.0,0.0,1.5486,1.8243,2.0506,2.2559,2.4436,2.572,2.6189,2.559,2.658,2.8294,3.0785,3.3947,3.6888,3.949,4.1365,4.225,4.1999,4.237,4.2397,4.2095,4.2397,4.2544,4.2544,4.2782,4.2897,4.2897,4.2897,4.3027,4.3257,4.3257,4.311,4.2913,4.3167,4.2963,4.2544,4.2472,4.1659,4.0401,3.9585,3.6612,3.3413,3.5659,3.0101,2.2667,2.4929,2.1333,1.6085,1.5172,0.0,1.2823,1.215,1.0867,0.9845,1.0338,0.9738,0.9888,0.0,0.0,1.3032,1.4963,1.5689,1.6278,1.7284,1.8271,1.9315,2.0451,2.1353,2.2113,2.266,2.294,2.3135,2.3253,2.2957,2.2748,2.2748,2.2852,2.2923,2.2961,2.3187,2.3325,2.3327,2.3503,2.3524,2.3359,2.3325,2.3203,2.2977,2.3065,2.2977,2.2748,2.2848,2.2873,2.2761,2.2623,2.2445,2.2289,2.2004,2.195,2.2059,2.1777,2.155,2.1358,2.1215,2.1001,2.0736,2.0562,2.0494,2.0458,0.0,0.0,0.0,0.0,0.0,0.0,0.0,0.0,0.0,1.6986,1.8558,1.9988,2.1272,2.1863,2.2117,2.2026,2.4619,2.7736,3.1249,3.519,3.8705,4.167,4.2873,4.338,4.3257,4.338,4.338,4.3257,4.338,4.3461,4.3461,4.3567,4.3618,4.3618,4.3618,4.3691,4.3788,4.3788,4.3725,4.3618,4.3754,4.3658,4.342,4.3183,4.1429,3.8937,3.7674,3.5446,0.0,0.0,2.886,2.5042,2.516,2.2424,1.8788,1.6726,1.481,0.0,1.2617,1.2212,1.2063,0.0,1.272,1.3364,1.521,1.5384,1.5534,1.6872,1.7473,1.8063,1.9115,1.9859,2.0627,0.0,2.2215,2.273,2.2995,2.3201,2.3271,2.3187,2.3097,2.3117,2.3293,2.3361,2.3361,2.3237,2.3451,2.3519,2.3413,2.3485,2.3487,2.3395,2.3325,2.3241,2.3113,2.3167,2.3133,2.3024,2.3097,2.3097,2.3029,2.2886,2.2696,2.2466,2.2449,2.2307,2.2093,2.1988,2.1794,2.155,2.1299,2.1072,2.0892,2.0736,2.0598,2.0492,0.0,0.0,0.0,0.0,0.0,0.0,0.0,0.0,0.0,0.0,1.7021,1.7963,1.8812,1.8906,1.9086,1.9512,2.2904,2.6864,3.1166,3.5672,3.9629,4.2969,4.4075,4.4533,4.4369,4.4516,4.4573,4.4476,4.4476,4.4476,4.4476,4.4476,4.4476,4.4476,4.4566,4.4606,4.4606,4.469,4.4673,4.4606,4.4606,4.4516,4.4199,4.2703,4.0092,3.7039,3.5671,3.31,0.0,0.0,2.5867,2.3808,2.3378,2.1559,1.9165,1.7035,1.5051,1.345,1.301,1.3362,0.0,1.4338,1.5294,1.6296,1.6863,1.7263,1.7731,1.8478,1.8918,1.9505,2.0544,2.1055,2.1567,2.2356,2.2814,2.3099,2.3241,2.3311,2.3255,2.2974,2.2995,2.3151,2.3488,2.3537,2.3524,2.3413,2.3592,2.3646,2.3535,2.3576,2.3576,2.3535,2.3418,2.3309,2.3257,2.3221,2.3201,2.3201,2.3201,2.3201,2.3201,2.3065,2.2886,2.2711,2.2761,2.2608,2.2289,2.2143,2.195,2.1723,2.1387,2.1174,2.1039,2.0949,2.077,2.0582,0.0,0.0,0.0,0.0,0.0,0.0,0.0,0.0,0.0,0.0,0.0,0.0,0.0,1.7649,1.8003,1.8857,2.1946,2.5831,3.0526,3.5204,3.9398,4.2953,4.5041,4.5865,4.5277,4.5825,4.5972,4.5654,4.5654,4.5654,4.5654,4.5654,4.5654,4.5654,4.5982,4.6136,4.6146,4.6405,4.6373,4.6136,4.6136,4.5785,4.4845,4.1118,3.8073,3.5652,3.4741,0.0,0.0,0.0,2.0959,1.6119,1.9323,1.8231,0.0,1.5512,1.4477,1.3403,1.3383,1.3908,1.4722,1.5769,1.6796,1.7744,1.8547,1.9178,1.9761,2.0313,2.0686,2.1109,2.1743,2.1971,2.2269,2.2886,2.3099,2.3237,2.3379,2.3291,2.3117,2.2836,2.2691,2.2714,0.0,2.3133,2.3275,2.3399,2.3592,2.3752,2.3877,2.4012,2.4014,2.389,2.3752,2.3592,2.3395,2.3257,2.3201,2.3201,2.3201,2.3201,2.3201,2.3065,2.2991,2.2977,2.2852,2.2784,2.2748,2.2289,2.2025,2.1865,2.151,2.13,2.1194,2.1197,2.1021,2.0786,0.0,0.0,0.0,0.0,0.0,0.0,0.0,0.0,0.0,0.0,0.0,0.0,0.0,0.0,0.0,0.0,2.1333,2.4543,2.8494,3.3347,3.7474,4.064,4.3707,4.5335,4.5301,4.6079,4.652,4.6627,4.6627,4.6716,4.689,4.689,4.689,4.689,4.701,4.7068,4.7068,4.6965,4.6751,4.6405,4.5835,4.4271,4.1988,3.9004,3.4262,2.8845,0.0,0.0,0.0,0.0,1.7358,1.7172,1.7053,1.7071,1.6604,1.3979,1.3584,1.4021,1.4116,1.512,1.6435,1.7602,1.858,1.9468,2.0227,2.0718,2.1017,2.0964,2.0808,2.0734,2.093,2.1197,2.1564,2.2167,2.2974,2.3578,2.3714,2.377,2.3524,2.2765,2.2782,0.0,0.0,0.0,0.0,2.3571,2.3664,2.3754,2.389,2.3944,2.3944,2.389,2.3641,2.3467,2.3395,2.3275,2.3201,2.3201,2.3201,2.3201,2.3201,2.3153,2.3133,2.3133,2.3079,2.3011,2.2907,2.2571,2.2273,2.2004,2.1815,2.1509,2.1231,2.1458,2.1336,2.1034,0.0,0.0,0.0,0.0,0.0,0.0,0.0,0.0,0.0,0.0,0.0,0.0,0.0,0.0,0.0,0.0,0.0,2.3207,2.6557,3.0675,3.4389,3.7583,4.0092,4.1726,4.2314,4.2675,4.3263,4.4092,4.4623,4.5237,4.5932,4.648,4.6756,4.6863,4.6988,4.7094,4.7135,4.6422,4.5972,4.545,4.2944,4.0618,3.8169,3.37,2.8565,0.0,0.0,0.0,0.0,0.0,1.4064,1.5676,1.4318,1.4891,1.557,1.3193,1.3465,1.4665,1.5235,1.6536,1.8003,1.9212,2.0134,2.0892,2.1459,2.1757,2.1828,2.1509,2.0934,2.0494,2.044,2.0435,2.0627,2.1231,2.2164,2.2979,2.3436,2.3402,2.3151,2.2714,2.2585,2.2361,0.0,0.0,0.0,2.3402,2.3537,2.3695,2.3965,2.4014,2.4034,2.4034,2.3785,2.3623,2.3576,2.3359,2.3255,2.3201,2.3201,2.3201,2.3201,2.3201,2.3201,2.3201,2.3201,2.3099,2.2907,2.2691,2.2395,2.2093,2.1954,2.1723,2.1475,2.1635,2.1567,2.1333,0.0,0.0,0.0,0.0,0.0,0.0,0.0,0.0,0.0,0.0,0.0,0.0,0.0,0.0,0.0,0.0,0.0,0.0,2.4643,2.7293,3.0315,3.3803,3.471,3.5672,3.6862,3.638,3.6941,3.8636,4.004,4.1456,4.2873,4.4289,4.5074,4.5367,4.5678,4.5972,4.6102,4.4566,4.375,4.3015,3.7676,3.5018,3.3414,2.5779,2.1532,1.9108,0.0,0.0,1.1143,1.0838,1.1227,1.1775,1.1422,1.1965,1.2834,1.321,1.4178,1.5421,1.6754,1.8105,1.9413,2.0591,2.1404,2.2008,2.2255,2.2302,2.2218,2.1879,2.1052,2.0336,0.0,0.0,1.9544,2.0171,2.0862,2.1689,2.2748,2.2408,2.2235,0.0,0.0,0.0,0.0,0.0,0.0,2.2974,0.0,2.3609,2.4082,2.4239,2.4327,2.4327,2.4171,2.4034,2.391,2.3576,2.3341,2.3221,2.3221,2.3203,2.3203,2.3201,2.3201,2.3201,2.3201,2.3045,2.2802,2.2674,2.2408,2.2096,2.1971,2.192,2.1879,2.176,2.1706,2.1655,0.0,0.0,0.0,0.0,0.0,0.0,0.0,0.0,0.0,0.0,0.0,0.0,0.0,0.0,0.0,0.0,0.0,0.0,2.0974,2.3762,2.6554,2.9266,3.2265,3.4335,3.5337,3.6046,3.6834,3.773,3.8103,3.8705,3.9522,3.9908,4.0229,4.0493,4.056,4.0655,4.056,3.8233,3.6895,3.5995,3.2209,2.906,2.6221,2.27,1.9227,1.5947,1.3618,1.2095,1.12,1.1214,1.178,1.2502,1.2633,1.3071,1.3707,1.4703,1.5916,1.7209,1.8449,1.989,2.1159,2.1774,2.2167,2.245,2.2514,2.2411,2.197,2.0804,1.973,1.8659,1.7534,1.8097,0.0,1.9727,2.1655,0.0,2.4038,2.4085,0.0,2.3311,0.0,2.2992,2.2521,2.2626,0.0,0.0,2.3271,2.3535,2.4207,2.4419,2.4526,2.4526,2.4244,2.4082,2.4048,2.3768,2.3612,2.3576,2.3413,2.3341,2.3345,2.3255,2.3201,2.3201,2.3201,2.3099,2.294,2.2802,2.2554,2.2252,2.2218,2.2079,2.1899,2.1865,2.1794,2.1672,0.0,0.0,0.0,0.0,0.0,0.0,0.0,0.0,0.0,0.0,0.0,0.0,0.0,0.0,0.0,0.0,0.0,0.0,0.0,2.0807,2.3011,2.4905,2.7422,2.927,3.0301,3.0726,3.1226,3.1837,3.2989,3.3799,3.4281,3.4923,3.5381,3.5655,3.5265,3.5188,3.5156,3.2685,3.1331,0.0,0.0,2.3013,2.0826,1.804,1.5548,1.338,1.2381,1.2004,1.2043,1.2352,1.278,1.3298,1.396,1.4575,1.5303,1.6519,1.7656,1.8781,1.9966,2.1106,2.2059,2.2428,2.2605,2.2555,2.2025,2.1706,2.1036,1.9349,1.8171,1.7087,1.5934,1.6836,1.7982,1.8674,0.0,0.0,2.4139,2.4321,2.4263,0.0,2.3924,0.0,2.3203,2.3257,2.3418,0.0,2.3519,2.3714,2.4406,2.4601,2.4689,2.4689,2.4458,2.4229,2.4012,2.3856,2.3752,2.3698,2.3592,2.3487,2.3395,2.3325,2.3257,2.3201,0.0,2.3113,2.2995,2.2852,2.266,2.2432,2.2323,2.2218,2.2059,2.1937,2.1845,2.1757,0.0,0.0,0.0,0.0,0.0,0.0,0.0,0.0,0.0,0.0,0.0,0.0,0.0,0.0,0.0,0.0,0.0,0.0,0.0,0.0,1.9808,2.1186,2.2094,2.3138,2.4341,2.399,2.4069,2.4625,2.6932,2.8242,2.86,2.9882,3.0572,3.0692,2.9848,2.9533,2.9514,2.7138,2.5943,2.5194,1.9773,1.7312,1.6541,0.0,0.0,1.1581,1.147,1.2038,1.2955,1.3748,1.411,1.4412,1.546,1.639,1.7324,1.8502,1.9379,2.0204,2.1286,2.1991,2.2478,2.2784,2.2836,2.2483,2.1245,2.0648,1.9754,1.7751,1.6565,1.5647,1.4883,1.578,1.6889,1.7663,1.9995,2.229,2.3895,2.4017,2.4228,2.5004,2.4507,2.4105,2.4085,2.3944,2.3978,2.4224,2.4012,2.4085,2.46,2.4778,2.4826,2.4778,2.4688,2.4404,2.3965,2.3944,2.389,2.3786,2.3732,2.3612,2.3447,2.3399,2.3311,2.3201,0.0,0.0,2.2995,2.2873,2.2745,2.2586,2.2428,2.2343,2.2268,2.2038,2.1933,2.1865,0.0,0.0,0.0,0.0,0.0,0.0,0.0,0.0,0.0,0.0,1.8417,1.7949,0.0,0.0,0.0,0.0,0.0,0.0,0.0,0.0,0.0,1.9831,2.0513,2.1568,2.3162,2.3594,2.3963,2.4297,2.4955,2.5479,2.5792,2.6066,2.5818,2.5147,2.4399,2.3556,2.2543,1.9584,1.8092,1.7436,1.4528,1.3079,1.2587,0.0,0.0,0.0,1.1574,1.1766,1.2326,1.4423,1.5716,1.6598,1.7507,1.8423,1.9374,2.0438,2.1037,2.1529,2.234,2.2798,2.3065,2.3113,2.2961,2.2449,2.1142,2.0098,1.8761,1.6424,1.532,1.4482,1.3523,1.4704,1.6463,1.8443,2.0508,2.2657,2.4919,2.5204,2.5293,0.0,2.5381,2.5164,2.4984,2.4861,0.0,0.0,0.0,2.4772,2.4778,2.5003,2.4982,2.4654,2.4723,2.4596,2.422,2.4226,2.4226,2.4192,2.3856,2.3685,2.3644,2.3363,2.3221,2.3201,0.0,0.0,2.2991,2.2974,2.2816,2.2609,2.2673,2.2536,2.2285,2.2255,2.2093,2.1879,0.0,0.0,0.0,0.0,0.0,0.0,0.0,1.7896,1.8732,2.0517,2.0628,2.0185,1.9256,1.8161,1.7186,0.0,0.0,0.0,0.0,0.0,0.0,0.0,0.0,0.0,2.0761,2.1721,2.1694,2.0566,0.0,2.2417,2.2026,2.1994,2.1824,2.1474,1.955,1.8394,1.7727,1.5487,1.4396,1.406,1.254,1.18,0.0,0.0,0.0,0.0,0.0,1.2042,1.2827,1.4134,1.6003,1.7988,1.9217,2.0223,2.1085,2.1815,2.2198,2.2479,2.2977,2.3275,2.3436,2.3325,2.2995,2.213,1.9992,1.8796,1.7392,1.4645,1.3755,1.3268,1.2656,1.4099,1.5847,1.7263,1.9389,2.1668,2.3983,2.4513,2.5008,2.5938,2.5925,2.5742,2.558,2.5443,2.5355,0.0,0.0,2.5267,2.5017,2.5052,2.4982,2.4703,2.4778,2.4684,2.446,2.4348,2.4295,2.4295,2.4034,2.3841,2.368,2.3524,2.3363,2.3201,2.3201,0.0,2.3099,2.2961,2.2852,2.2784,2.2604,2.2554,2.2534,2.2286,2.2164,2.2079,0.0,0.0,0.0,0.0,0.0,0.0,0.0,1.9057,2.0025,2.2368,2.301,2.2654,2.1045,1.889,1.7222,0.0,0.0,0.0,0.0,0.0,0.0,0.0,0.0,0.0,0.0,0.0,0.0,1.7793,1.9576,0.0,0.0,0.0,0.0,0.0,1.6327,1.499,1.467,1.3182,1.2538,0.0,0.0,1.1602,0.0,0.0,0.0,0.0,0.0,1.2214,1.3108,1.3738,1.5653,1.8077,1.9673,2.098,2.2021,2.2391,2.2696,2.2995,2.3311,2.3573,2.368,2.3467,2.292,2.1726,1.8938,1.7589,1.6116,1.3258,1.2489,1.2305,1.217,1.3553,1.5055,1.6027,1.7968,2.0241,2.2801,2.3592,2.4526,2.621,2.6291,2.6163,2.6061,2.5884,0.0,2.564,0.0,0.0,2.5281,2.5111,2.4929,2.4792,2.4826,2.4772,2.4635,2.4488,2.4381,2.4366,2.4171,2.3965,2.3698,2.3664,2.3483,2.3201,2.3201,0.0,0.0,2.2974,2.292,2.2974,2.2621,2.2625,2.2761,2.2391,2.2272,2.2255,0.0,0.0,0.0,0.0,0.0,0.0,0.0,1.957,2.1227,2.4401,2.46,2.4088,2.3127,1.9878,1.721,0.0,0.0,0.0,0.0,0.0,0.0,0.0,0.0,0.0,0.0,0.0,0.0,1.9748,1.9486,0.0,0.0,0.0,0.0,0.0,0.0,1.4973,1.3896,1.2357,0.0,0.0,0.0,0.0,0.0,0.0,0.0,0.0,0.0,1.1669,1.2035,1.3823,1.4916,1.5822,1.7602,1.9678,2.1476,2.151,2.2059,2.2748,2.3257,2.3641,2.3802,2.3487,2.2672,2.1315,1.8864,1.712,1.5352,1.3003,1.217,1.1954,1.2233,1.2789,1.3913,1.6104,1.7121,1.889,2.252,2.3524,2.4526,2.621,2.6488,2.6542,2.6542,2.6257,2.6061,2.6061,0.0,0.0,2.5483,2.5179,2.4929,2.4792,2.4915,2.4915,2.4772,2.4758,2.4684,2.4567,2.4244,2.3965,2.368,2.3501,2.3345,2.3201,2.3201,0.0,0.0,2.3167,2.3099,2.3008,2.3097,2.2995,2.2784,2.2748,2.2554,2.2289,0.0,0.0,0.0,0.0,0.0,0.0,1.9004,1.9599,2.1144,2.5119,2.5524,2.5371,2.5184,2.1329,1.8061,1.6298,0.0,0.0,0.0,0.0,0.0,0.0,0.0,0.0,0.0,0.0,1.9432,1.7887,1.8732,0.0,0.0,0.0,0.0,0.0,0.0,1.4083,1.3164,1.207,0.0,0.0,0.0,0.0,0.0,0.0,0.0,0.0,0.0,0.0,1.1988,1.2559,1.3668,1.478,1.4774,1.6409,1.8693,2.0505,2.158,2.2374,2.3327,2.3858,2.4048,2.3662,2.2466,2.0786,1.8566,1.6558,1.4624,1.2663,1.1952,1.1778,1.2113,1.2466,1.3183,1.4642,1.5313,1.6666,1.9537,2.0668,2.2076,2.4492,2.5287,2.5884,2.6542,0.0,2.6325,0.0,0.0,0.0,2.5626,2.5302,2.5105,2.5037,2.5017,2.4963,2.4915,2.4757,2.4654,2.46,2.4263,2.3965,2.3698,2.363,2.3431,2.3201,2.3201,0.0,0.0,2.3113,2.3099,2.3113,2.2991,2.2995,2.3008,2.2761,2.2657,2.2554,0.0,0.0,0.0,0.0,0.0,1.6393,1.9345,1.9868,2.1325,2.5333,2.5944,2.5882,2.5577,2.1566,1.8181,1.6421,1.335,0.0,0.0,0.0,0.0,0.0,0.0,0.0,0.0,0.0,1.8067,1.6318,1.743,1.7488,0.0,0.0,1.6863,1.6132,0.0,0.0,0.0,0.0,0.0,0.0,0.0,0.0,0.0,0.0,0.0,0.0,0.0,0.0,0.0,0.0,0.0,1.3715,1.2905,1.3935,1.5995,1.8777,2.0433,2.1635,2.2836,2.37,2.4151,2.3788,2.2307,2.0419,1.837,1.6246,1.4223,1.2507,1.1731,1.1528,1.2062,1.215,1.2506,1.3621,1.4184,1.5318,1.7697,1.8742,2.0225,2.2802,2.3714,2.4616,0.0,2.6291,2.642,0.0,0.0,0.0,2.5762,2.5464,2.5268,2.5194,2.5071,2.5004,2.5004,2.4778,2.4635,2.46,2.4299,2.3994,2.3698,2.3698,2.3522,2.3201,0.0,0.0,0.0,2.3099,2.3113,2.3187,2.2995,2.3024,2.3153,2.2782,2.2714,2.2748,0.0,0.0,0.0,0.0,0.0,0.0,1.9345,2.0527,2.2143,2.5121,2.5791,2.5373,2.3703,2.0057,1.7176,1.5833,1.2711,0.0,0.0,0.0,0.0,0.0,0.0,0.0,0.0,0.0,0.0,1.5908,1.5532,1.5201,1.4946,1.6222,1.6167,1.4982,0.0,0.0,0.0,0.0,0.0,0.0,0.0,0.0,0.0,0.0,0.0,0.0,0.0,0.0,0.0,0.0,0.0,0.0,0.0,1.2929,1.3871,1.6093,1.8347,2.0383,2.1584,2.2995,2.4034,2.3773,2.2232,2.0293,1.8343,1.6246,1.4239,1.263,1.1503,1.1108,1.2105,1.1763,1.1862,1.3536,1.4184,1.5393,1.7934,1.8693,1.9679,2.1492,2.195,2.2713,2.4185,2.5586,2.6312,0.0,0.0,0.0,2.5905,2.564,2.5409,2.5214,2.5071,2.5004,2.5004,2.486,2.4724,2.46,2.4381,2.4083,2.3698,2.3698,2.3522,0.0,0.0,0.0,0.0,2.3201,2.3201,2.3201,2.3201,2.3201,2.3167,2.2904,2.2802,2.2744,0.0,0.0,0.0,0.0,0.0,0.0,0.0,1.8524,1.9774,2.2712,2.3197,2.3115,2.2721,1.9494,1.6936,1.5861,1.2849,0.0,0.0,0.0,0.0,0.0,0.0,0.0,0.0,0.0,0.0,1.5629,1.6508,1.6497,1.5675,1.6722,1.6305,1.4674,1.4934,1.3906,0.0,0.0,0.0,0.0,0.0,0.0,0.0,0.0,0.0,0.0,0.0,0.0,0.0,0.0,0.0,0.0,0.0,0.0,0.0,1.3841,1.6048,1.8403,1.9698,2.0627,2.1109,2.0609,1.934,1.7874,1.6613,1.5027,1.3522,1.2511,1.1971,1.1799,1.2161,1.21,1.2506,1.409,1.4434,1.5067,1.6707,1.8403,1.9978,2.1337,2.375,2.5498,0.0,0.0,2.6468,0.0,0.0,0.0,2.5762,2.5605,2.5463,2.5409,2.5145,2.5004,2.5004,2.4778,2.4635,2.46,2.4209,2.391,2.3698,2.3553,0.0,0.0,0.0,0.0,0.0,2.3201,2.3201,2.3201,2.3201,2.3135,2.3049,2.287,2.2745,2.2626,0.0,0.0,0.0,0.0,0.0,0.0,0.0,1.7542,1.8544,2.0724,2.0827,2.0659,2.0612,1.7687,1.5393,1.4549,1.2451,0.0,0.0,0.0,0.0,0.0,0.0,0.0,0.0,0.0,1.6746,1.6332,1.7827,1.8485,1.8328,1.9416,1.8538,1.6055,1.6077,1.4661,0.0,0.0,0.0,0.0,0.0,0.0,1.1602,0.0,0.0,0.0,0.0,0.0,0.0,0.0,0.0,0.0,0.0,0.0,0.0,0.0,1.4144,1.6,1.7778,1.889,1.9462,1.9096,1.7989,1.6748,1.5809,1.45,1.3275,1.2531,1.2063,1.1897,1.2258,1.2138,1.2463,1.3914,1.4262,1.4841,1.6248,1.8023,1.9766,2.1408,2.4104,0.0,0.0,0.0,0.0,0.0,0.0,0.0,2.5803,2.5605,2.5503,2.5503,2.5179,2.4982,2.4935,2.4703,2.4566,2.4473,2.4087,2.3822,2.368,2.3487,0.0,0.0,0.0,0.0,0.0,2.3201,2.3201,2.3201,2.3201,2.3113,2.2977,2.285,2.2711,2.2568,0.0,0.0,0.0,0.0,0.0,0.0,0.0,1.7356,1.8243,1.9153,1.8711,1.8108,1.7587,1.494,1.2909,1.219,0.0,0.0,0.0,0.0,0.0,0.0,0.0,0.0,0.0,1.3295,1.48,1.7594,1.9134,2.0671,2.2187,2.3487,2.2167,1.8629,1.7619,0.0,0.0,0.0,0.0,0.0,1.2905,1.2671,0.0,0.0,0.0,0.0,0.0,0.0,0.0,0.0,0.0,0.0,0.0,0.0,0.0,0.0,0.0,0.0,0.0,1.7494,1.8614,1.8586,1.7663,1.6516,1.5618,1.4448,0.0,1.2651,1.1863,1.1556,1.2355,1.1955,1.1913,1.3168,1.3815,1.4758,1.6465,1.7785,0.0,0.0,2.3519,0.0,0.0,0.0,0.0,0.0,0.0,0.0,2.5885,2.564,2.5484,2.5483,2.5159,2.4935,2.4792,2.4655,2.4473,2.4295,2.4014,2.382,2.368,2.3485,0.0,0.0,0.0,0.0,0.0,2.3201,2.3201,2.3201,2.3187,2.3099,2.2974,2.2836,2.2693,2.2555,0.0,0.0,0.0,0.0,0.0,0.0,0.0,0.0,0.0,0.0,1.7146,1.6079,1.4936,1.3316,1.179,0.0,0.0,0.0,0.0,0.0,0.0,0.0,0.0,0.0,0.0,1.3261,1.4693,1.6556,1.8092,2.014,2.2661,2.3695,2.2477,1.9443,1.9707,0.0,0.0,0.0,0.0,0.0,1.3484,1.3137,0.0,0.0,0.0,0.0,1.1723,1.197,0.0,0.0,0.0,0.0,0.0,0.0,0.0,0.0,1.2317,1.2613,1.3298,0.0,1.4823,1.4609,1.4398,1.4129,0.0,1.3363,0.0,0.0,0.0,1.1552,1.2349,1.195,1.1853,1.2918,1.4054,1.524,1.6526,1.9382,0.0,2.4034,0.0,0.0,0.0,0.0,0.0,0.0,0.0,2.6169,2.5762,2.5585,2.5429,2.5287,2.5003,2.4826,2.4792,2.4509,2.4348,2.4295,2.3924,2.3732,2.3685,2.3395,0.0,0.0,0.0,0.0,2.3201,2.3201,2.3201,2.3187,2.3097,2.2974,2.2836,2.2697,2.2537,2.2356,0.0,0.0,0.0,0.0,0.0,0.0,0.0,0.0,0.0,0.0,0.0,0.0,0.0,0.0,0.0,0.0,0.0,0.0,0.0,0.0,0.0,0.0,0.0,0.0,1.1517,1.265,1.4565,1.7265,1.9355,2.1938,2.4936,2.6099,2.4984,2.1952,2.0177,0.0,0.0,0.0,0.0,0.0,1.35,0.0,0.0,0.0,0.0,0.0,1.168,1.1954,0.0,1.2548,1.2803,1.2963,0.0,0.0,0.0,0.0,1.1918,1.199,1.2065,1.2875,1.3667,1.3508,1.3529,1.3515,1.3237,1.3023,0.0,0.0,0.0,1.1389,1.1668,1.17,1.2068,1.3266,1.4378,1.5837,1.7954,0.0,2.2848,2.4861,2.5742,0.0,0.0,0.0,0.0,0.0,0.0,2.6095,2.5728,2.5572,2.5375,2.5126,2.4847,2.4703,2.4703,2.4385,2.4205,2.4205,2.377,2.3612,2.3685,2.3343,2.3201,0.0,0.0,0.0,2.3201,2.3201,2.3201,2.3187,2.3045,2.292,2.2782,2.2643,2.2466,2.2302,0.0,0.0,0.0,0.0,0.0,0.0,0.0,0.0,0.0,0.0,0.0,0.0,0.0,0.0,0.0,0.0,0.0,0.0,0.0,0.0,0.0,0.0,0.0,1.2232,1.1,1.1889,1.4436,1.8677,2.126,2.4304,2.7752,2.9112,2.7961,2.4579,2.0122,0.0,0.0,0.0,0.0,0.0,1.3557,0.0,0.0,0.0,0.0,0.0,0.0,0.0,0.0,1.2737,1.3071,1.3285,1.2959,0.0,0.0,0.0,0.0,0.0,1.1744,1.2797,1.3826,1.3606,1.3633,1.364,1.3352,1.2993,0.0,0.0,0.0,0.0,0.0,1.1583,0.0,1.4076,1.5103,1.6828,2.0031,2.1478,2.294,2.493,2.5477,0.0,0.0,0.0,0.0,0.0,0.0,2.5986,2.5708,2.5538,2.5301,2.5004,2.4704,2.4547,2.4547,2.4229,2.4066,2.4034,2.3609,2.3487,2.3644,2.3347,2.3201,0.0,0.0,0.0,2.3201,2.3201,2.3187,2.3153,2.3045,2.292,2.2782,2.2643,2.2479,2.234,0.0,0.0,0.0,0.0,0.0,0.0,0.0,0.0,0.0,0.0,0.0,0.0,0.0,0.0,0.0,0.0,0.0,0.0,0.0,0.0,0.0,0.0,1.2116,1.2347,1.134,1.1604,1.429,1.9526,2.1306,2.4575,2.9201,3.0385,2.8679,2.4489,2.1145,1.8464,1.6433,0.0,0.0,1.4742,1.4742,0.0,0.0,0.0,0.0,0.0,0.0,0.0,0.0,1.2213,1.2598,1.2969,1.2411,0.0,0.0,0.0,0.0,0.0,1.2357,1.3356,1.3926,1.267,1.2826,1.321,1.2882,0.0,0.0,0.0,0.0,0.0,0.0,1.2369,1.348,0.0,0.0,1.8978,0.0,0.0,2.3944,0.0,0.0,0.0,0.0,0.0,0.0,0.0,0.0,0.0,2.5708,2.5403,2.518,2.5004,2.4577,2.4348,2.4348,2.4068,2.3877,2.3754,2.3519,2.3415,2.3447,2.3271,2.3201,0.0,0.0,2.3201,2.3201,2.3201,2.3133,2.3024,2.3008,2.292,2.2782,2.2643,2.2586,2.2514,0.0,0.0,0.0,0.0,0.0,0.0,0.0,0.0,0.0,0.0,0.0,0.0,0.0,0.0,0.0,0.0,0.0,0.0,0.0,0.0,0.0,1.1194,1.2079,1.2207,1.1424,1.2485,1.5257,1.975,2.2379,2.5764,2.9774,2.9643,2.7714,2.4268,2.1732,1.949,1.758,1.6964,1.6036,1.4946,0.0,0.0,0.0,0.0,0.0,0.0,0.0,0.0,0.0,0.0,1.2673,1.3027,1.2572,0.0,0.0,0.0,0.0,0.0,1.2012,1.284,1.3472,1.2935,1.3665,1.4328,1.3712,0.0,0.0,0.0,0.0,0.0,0.0,0.0,0.0,0.0,0.0,0.0,0.0,0.0,0.0,0.0,0.0,0.0,0.0,0.0,0.0,0.0,0.0,0.0,2.5606,2.5336,2.5071,2.4792,2.4563,2.4317,2.398,2.3856,2.3807,2.3807,2.347,2.3325,2.3395,2.3257,2.3201,2.3201,0.0,2.3201,2.3201,2.3201,2.3167,2.3099,2.3024,2.292,2.2761,2.2537,2.2445,2.2411,0.0,0.0,0.0,0.0,0.0,0.0,0.0,0.0,0.0,0.0,0.0,0.0,0.0,0.0,0.0,0.0,0.0,0.0,0.0,0.0,1.1661,1.1712,1.2514,1.275,1.23,1.4235,1.7171,2.105,2.4491,2.7771,3.0765,2.9261,2.7062,2.4318,2.2189,2.0188,1.8337,1.7466,1.648,1.539,0.0,0.0,0.0,0.0,0.0,0.0,0.0,0.0,0.0,0.0,0.0,0.0,0.0,0.0,0.0,1.2191,1.1872,1.176,1.197,1.2589,1.3248,1.3502,0.0,1.5069,0.0,0.0,0.0,0.0,0.0,0.0,0.0,0.0,0.0,0.0,0.0,0.0,0.0,0.0,0.0,0.0,0.0,0.0,0.0,0.0,0.0,0.0,0.0,0.0,2.545,2.5248,2.4982,2.462,2.4547,2.4282,2.3752,2.3719,2.3719,2.3734,2.3363,2.3255,2.3341,2.3255,2.3201,2.3201,2.3201,2.3201,2.3201,2.3201,2.3187,2.3135,2.3049,2.2904,2.2714,2.2462,2.2343,2.2286,0.0,0.0,0.0,0.0,0.0,0.0,0.0,0.0,0.0,0.0,0.0,0.0,0.0,0.0,0.0,0.0,0.0,0.0,0.0,0.0,1.2056,1.2061,1.3703,1.472,1.4916,1.7017,2.0313,2.4804,2.8047,3.0852,3.3105,3.0706,2.7967,2.494,2.2675,2.0439,1.8389,1.831,1.7765,1.6829,1.5435,0.0,0.0,0.0,0.0,0.0,0.0,0.0,0.0,0.0,0.0,0.0,0.0,0.0,1.2702,1.2648,1.2366,1.2238,1.3044,1.3498,1.3796,1.4002,0.0,0.0,0.0,0.0,0.0,0.0,0.0,0.0,0.0,0.0,0.0,0.0,0.0,0.0,0.0,0.0,0.0,0.0,0.0,0.0,0.0,0.0,0.0,0.0,0.0,0.0,2.5248,2.5092,0.0,2.462,2.4421,2.4171,2.3895,2.3754,2.3556,2.3255,2.3221,2.3201,2.3203,2.3201,2.3201,2.3201,2.3201,2.3201,2.3201,2.3201,2.3133,2.3011,2.2991,2.2832,2.2609,2.2589,2.2463,2.2251,0.0,0.0,0.0,0.0,0.0,0.0,0.0,0.0,0.0,0.0,0.0,0.0,0.0,0.0,0.0,0.0,0.0,0.0,0.0,0.0,1.119,1.1642,1.3119,1.48,1.6653,1.9784,2.3749,2.8561,3.1867,3.3445,3.3324,3.0258,2.7299,2.4433,2.1937,2.0091,1.8819,1.8518,1.7626,1.6342,1.547,1.4082,0.0,0.0,0.0,0.0,0.0,0.0,0.0,0.0,1.2067,1.24,1.229,1.2541,1.2844,1.2644,1.2348,1.2173,1.2503,1.3115,1.3738,1.4036,0.0,0.0,0.0,0.0,0.0,0.0,0.0,0.0,0.0,0.0,0.0,0.0,0.0,0.0,0.0,0.0,0.0,0.0,0.0,0.0,0.0,0.0,0.0,0.0,0.0,0.0,0.0,0.0,0.0,2.4421,2.4348,2.4136,2.3786,2.3732,2.3524,2.3201,2.3201,2.3201,2.3201,2.3201,2.3201,2.3201,2.3201,2.3201,2.3201,2.3201,2.3167,2.3117,2.294,2.2761,2.2586,2.2463,2.2374,2.2289,0.0,0.0,0.0,0.0,0.0,0.0,0.0,0.0,0.0,0.0,0.0,0.0,0.0,0.0,0.0,0.0,0.0,0.0,0.9846,1.0391,1.0956,1.1531,1.2942,1.5183,1.835,2.2156,2.6192,3.0469,3.4019,3.4817,3.2923,2.9581,2.6791,2.4507,2.1945,2.0532,2.0034,1.9511,1.8391,1.688,1.5765,1.415,0.0,0.0,0.0,0.0,0.0,0.0,0.0,0.0,1.1983,1.2305,1.2415,1.2703,1.2965,1.283,1.262,1.2438,1.2397,1.2887,1.3526,0.0,0.0,0.0,0.0,0.0,0.0,0.0,0.0,0.0,0.0,0.0,0.0,0.0,0.0,0.0,0.0,0.0,0.0,0.0,0.0,0.0,0.0,0.0,0.0,0.0,0.0,0.0,0.0,0.0,0.0,0.0,2.426,2.4068,2.3698,2.3644,2.3465,2.3201,2.3201,2.3201,2.3201,2.3201,2.3201,2.3201,2.3201,2.3201,2.3201,2.3153,2.3097,2.2995,2.2744,2.2554,2.2432,2.2286,2.2235,2.2235,0.0,0.0,0.0,0.0,0.0,0.0,0.0,0.0,0.0,0.0,0.0,0.0,0.0,0.0,0.0,0.0,0.0,0.0,0.9972,1.0992,1.1665,1.1878,1.3489,1.6196,2.0068,2.4052,2.7462,3.0242,3.4164,3.4709,3.2015,2.8867,2.6711,2.5401,2.2997,2.2029,2.216,2.1492,2.0387,1.8882,1.6545,1.4832,1.3555,0.0,0.0,0.0,0.0,0.0,0.0,0.0,1.1959,1.1974,1.2901,1.3111,1.3064,1.3319,1.3298,1.3169,1.3037,1.3003,1.3176,0.0,0.0,0.0,0.0,0.0,0.0,0.0,0.0,0.0,0.0,0.0,0.0,0.0,0.0,0.0,0.0,0.0,0.0,0.0,0.0,0.0,0.0,0.0,0.0,0.0,0.0,0.0,0.0,0.0,0.0,0.0,2.417,2.396,2.3698,2.3506,2.3327,2.3201,2.3201,2.3201,2.3201,2.3201,2.3201,2.3201,2.3201,2.3201,2.3187,2.3045,2.2832,2.2586,2.2374,2.2214,2.2096,2.2096,2.2096,2.2076,0.0,0.0,0.0,0.0,0.0,0.0,0.0,0.0,0.0,0.0,0.0,0.0,0.0,0.0,0.0,0.0,0.0,0.0,0.9704,1.0191,1.0562,1.0768,1.2243,1.4245,1.6769,2.2641,2.8228,3.3443,3.3944,3.3079,3.0849,2.8498,2.6771,2.5583,2.4306,2.3403,2.2757,2.1658,2.0008,1.7979,1.6489,1.4607,1.2665,0.0,0.0,0.0,0.0,0.0,0.0,0.0,0.0,0.0,1.2453,1.2901,1.3237,1.2976,1.2986,1.2972,1.2609,1.3024,0.0,0.0,0.0,0.0,0.0,0.0,0.0,0.0,0.0,0.0,0.0,0.0,0.0,0.0,0.0,0.0,0.0,0.0,0.0,0.0,0.0,0.0,0.0,0.0,0.0,0.0,0.0,0.0,0.0,0.0,0.0,0.0,2.3978,2.3804,2.3487,2.3433,2.3327,2.3201,2.3201,2.3201,2.3201,2.3201,2.3201,2.3201,2.3201,2.3153,2.3045,2.2907,2.2765,2.2589,2.2534,2.2391,2.2231,2.213,2.2096,2.2076,0.0,0.0,0.0,0.0,0.0,0.0,0.0,0.0,0.0,0.0,0.888,0.8818,0.0,0.0,0.0,0.0,0.0,0.0,0.0,0.9845,1.0109,1.0367,1.1282,1.3514,1.7197,2.1966,2.6788,3.1622,3.1782,3.0969,2.931,2.8298,2.7513,2.6925,2.6838,2.6133,2.4921,2.359,2.1205,1.8174,1.679,1.4689,1.2382,0.0,0.0,0.0,0.0,0.0,0.0,0.0,0.0,0.0,1.2222,1.2606,1.2942,1.2847,1.2939,1.3054,1.2929,1.3471,0.0,0.0,0.0,0.0,0.0,0.0,0.0,0.0,0.0,0.0,0.0,0.0,0.0,0.0,0.0,0.0,0.0,0.0,0.0,0.0,0.0,0.0,0.0,0.0,0.0,0.0,0.0,0.0,0.0,0.0,0.0,0.0,2.3861,2.37,2.3395,2.3341,2.3271,2.3201,2.3201,2.3201,2.3201,2.3201,2.3201,2.3201,2.3135,2.3011,2.2836,2.2748,2.2585,2.2395,2.2395,2.2289,2.213,2.2059,2.2025,2.2004,0.0,0.0,0.8088,0.8013,0.0,0.0,0.0,0.0,0.0,0.0,0.8499,0.8669,0.0,0.0,0.0,0.0,0.0,0.0,0.0,0.0,1.015,1.0488,1.0858,1.3857,1.9847,2.1705,2.3876,2.6537,2.8323,2.8655,2.7605,2.8223,2.8661,2.895,2.9881,2.9424,2.782,2.6305,2.3144,1.9003,1.7335,1.5006,1.2501,1.2501,0.0,0.0,0.0,0.0,0.0,0.0,0.0,0.0,1.2138,1.2301,1.2405,1.2795,1.3047,1.3288,1.3681,0.0,0.0,1.6876,0.0,0.0,0.0,0.0,0.0,0.0,0.0,0.0,0.0,0.0,0.0,0.0,0.0,0.0,0.0,0.0,0.0,0.0,0.0,0.0,0.0,0.0,0.0,0.0,0.0,0.0,0.0,0.0,0.0,2.3856,2.3734,2.3573,2.3375,2.3255,2.3187,0.0,2.3185,2.3167,2.3187,2.3183,2.3183,2.3167,2.3029,2.2836,2.2606,2.2586,2.2392,2.2096,2.2096,2.2025,2.192,2.1899,2.192,2.1899,0.0,0.0,0.8744,0.8113,0.0,0.0,0.0,0.0,0.0,0.0,0.0,0.0,0.0,0.0,0.0,0.0,0.0,0.0,0.0,0.0,1.015,1.0488,1.2589,1.5433,1.8997,2.0337,2.2133,2.4441,2.6219,2.6931,2.6717,2.7979,2.8967,2.9671,3.0151,2.954,2.7984,2.5619,2.2342,1.8639,1.7623,1.5333,1.2501,1.2501,1.2307,0.0,0.0,0.0,0.0,0.0,0.0,0.0,1.2025,1.229,1.2436,1.2336,1.2721,1.3258,1.3566,1.4405,0.0,0.0,2.0383,2.2604,2.377,0.0,0.0,0.0,0.0,0.0,0.0,0.0,0.0,0.0,0.0,0.0,0.0,0.0,0.0,0.0,0.0,0.0,0.0,0.0,0.0,0.0,0.0,0.0,2.4156,0.0,0.0,2.3521,2.3487,2.3399,2.3237,2.3113,2.3099,0.0,2.2995,2.294,2.3045,2.3153,2.3135,2.3024,2.2782,2.2643,2.2589,2.2432,2.2252,2.2096,2.2096,2.2076,2.2038,2.1937,2.1967,2.2025,0.0,0.0,0.0,0.0,0.0,0.0,0.0,0.0,0.0,0.0,0.0,0.0,0.0,0.0,0.0,0.0,0.0,0.0,0.0,0.0,1.021,1.0665,1.2956,1.5351,1.7791,1.902,2.0663,2.2755,2.3656,2.4677,0.0,2.7415,2.8871,3.0165,3.0593,2.9614,2.7446,2.4797,2.155,1.8048,1.6702,1.4774,1.2724,1.2556,1.2271,1.1934,1.1692,0.0,0.0,0.0,0.0,0.0,0.0,0.0,1.2088,1.2174,1.2558,1.3152,1.4034,0.0,0.0,1.9766,0.0,2.375,2.4205,2.4563,2.4724,2.4494,0.0,0.0,0.0,0.0,0.0,0.0,0.0,0.0,0.0,0.0,0.0,0.0,0.0,0.0,0.0,0.0,0.0,0.0,0.0,2.4014,2.3994,2.3877,2.368,2.3413,2.3395,2.3345,2.3201,2.3065,2.3049,2.3099,2.2904,2.2802,2.2816,2.289,2.2818,2.2658,2.2445,2.232,2.2256,2.2147,2.2021,2.192,2.1988,2.2004,2.1991,2.1845,2.1882,2.195,0.0,0.0,0.0,0.0,0.0,0.0,0.0,0.0,0.0,0.0,0.0,0.0,0.0,0.0,0.0,0.0,0.0,0.0,0.0,0.0,0.0,1.0936,1.2836,1.484,1.6878,1.8016,1.9613,2.1671,2.1459,0.0,0.0,0.0,0.0,3.0415,3.069,2.9438,2.6941,2.3971,2.0787,1.7561,1.5607,1.403,1.2809,1.2541,1.2166,1.1782,1.1656,1.1602,1.1593,1.1629,0.0,0.0,0.0,0.0,1.1712,1.2074,1.239,1.2946,1.4337,1.6122,1.8355,2.1547,2.3241,0.0,2.4273,2.4543,2.4724,2.462,2.4689,2.4778,0.0,0.0,0.0,0.0,0.0,0.0,0.0,0.0,0.0,0.0,0.0,0.0,0.0,0.0,0.0,0.0,0.0,2.3732,2.3802,2.3719,2.3553,2.3379,2.3379,2.3311,2.3167,2.3024,2.2974,2.2957,2.2798,2.2639,2.2514,2.2466,2.2374,2.2255,2.2113,2.2004,2.1899,2.1899,2.1811,2.1702,2.1811,2.1865,2.1845,2.174,2.1777,2.1865,0.0,0.0,0.0,0.0,0.0,0.0,0.0,0.0,0.0,0.0,0.8431,0.8567,0.0,0.8737,0.8798,0.8892,0.9117,0.9295,0.9396,0.0,0.0,1.1137,1.3133,1.523,1.7365,1.7914,1.9422,2.1949,0.0,0.0,0.0,0.0,0.0,3.0362,0.0,2.8662,2.7336,2.3311,2.0168,1.7699,1.5683,1.3815,1.2213,1.2173,1.2009,1.1782,0.0,1.1602,1.1622,1.1735,1.1766,0.0,0.0,0.0,1.1762,1.171,1.2013,1.2545,1.3383,1.6301,1.9663,2.1984,2.3345,2.4136,0.0,0.0,2.462,0.0,2.462,2.4634,2.4634,2.462,0.0,0.0,0.0,0.0,0.0,0.0,0.0,0.0,0.0,0.0,0.0,0.0,0.0,0.0,2.3807,2.3626,2.3487,2.3447,2.3379,2.3241,2.3241,2.3167,2.3024,2.2886,2.2836,2.2818,2.2516,2.2306,2.2167,2.1937,2.1933,2.2109,2.1991,2.192,2.1899,2.1899,2.1811,2.1706,2.1726,2.1723,2.1726,2.1706,2.1777,2.1879,0.0,0.0,0.0,0.0,0.0,0.0,0.0,0.0,0.0,0.0,0.0,0.875,0.8804,0.8811,0.8838,0.8892,0.9083,0.9288,0.9504,0.9895,1.0296,1.0674,1.2755,1.4507,1.5788,1.7172,1.8806,2.0709,0.0,0.0,0.0,2.6844,2.8235,0.0,0.0,0.0,0.0,0.0,0.0,1.6946,1.4363,1.2969,1.24,0.0,0.0,0.0,0.0,0.0,0.0,0.0,0.0,1.1701,1.1782,0.0,0.0,0.0,1.1929,1.281,1.5123,1.748,1.9873,2.2323,2.342,2.391,2.4048,2.419,2.4282,2.4126,2.4104,2.4194,2.4545,2.4438,2.4391,2.4566,2.4513,0.0,0.0,0.0,0.0,0.0,0.0,0.0,0.0,0.0,0.0,0.0,2.3558,2.3418,2.3395,2.3325,2.3257,2.3201,2.3133,2.3065,2.2991,2.2672,2.2445,2.2286,2.2147,2.2004,2.1862,2.176,2.1757,2.1862,2.1689,2.1621,2.1621,2.1621,2.1581,2.1533,2.1533,2.1597,2.1685,2.1567,2.1638,2.1757,0.0,0.0,0.0,0.0,0.0,0.0,0.0,0.0,0.0,0.0,0.0,0.8899,0.8899,0.0,0.0,0.0,0.9035,0.9239,0.953,0.9798,1.0028,1.0223,1.2305,1.3752,1.4326,1.6275,1.803,0.0,0.0,0.0,2.641,2.7018,2.8318,0.0,2.8625,0.0,0.0,0.0,0.0,0.0,0.0,1.2328,1.2563,0.0,0.0,0.0,0.0,0.0,0.0,0.0,0.0,0.0,0.0,1.1728,0.0,0.0,0.0,1.2745,1.5874,1.7514,1.9007,2.1689,2.2816,2.3345,2.37,2.389,2.3944,0.0,2.3698,2.3841,2.4282,2.4189,2.4136,2.4425,2.4346,2.426,2.426,2.4136,0.0,0.0,0.0,0.0,0.0,0.0,0.0,0.0,2.3363,2.3237,2.3345,2.3223,2.3153,2.3153,2.3029,2.2923,2.2904,2.2462,2.213,2.1899,2.1865,2.1791,2.1706,2.1655,2.1618,2.1614,2.1479,2.1408,2.1408,2.1408,2.1408,2.1408,2.1408,2.1493,2.1614,2.1459,2.1493,2.1597,0.0,0.0,0.0,0.0,0.0,0.0,0.0,0.0,0.0,0.0,0.0,0.8899,0.8899,0.8899,0.8899,0.8899,0.8912,0.9055,0.9389,0.9665,0.9873,1.0006,1.2013,0.0,1.3917,1.5352,0.0,0.0,0.0,0.0,2.641,2.7018,2.8973,3.1904,3.0423,2.8946,2.7209,0.0,0.0,0.0,0.0,0.0,0.0,0.0,0.0,0.0,0.0,0.0,0.0,0.0,0.0,0.0,0.0,0.0,0.0,0.0,0.0,0.0,1.3764,1.5161,1.6712,1.9394,2.1037,2.2252,2.3203,2.3573,2.3719,2.3698,2.3698,2.3719,2.3732,2.3841,2.3965,2.4102,2.4122,2.4104,2.4104,2.3999,2.391,2.389,0.0,0.0,0.0,0.0,0.0,0.0,2.3271,2.3201,2.3203,2.3079,2.3011,2.3011,2.289,2.2748,2.2627,2.2286,2.2038,2.1899,2.1774,2.1706,2.1689,2.1493,2.1422,2.1422,2.1408,2.1408,2.1408,2.1408,2.1408,2.1408,2.1408,2.1408,2.1405,2.1408,2.1408,2.1405,0.0,0.0,0.0,0.0,0.0,0.0,0.0,0.0,0.0,0.0,0.0,0.0,0.0,0.8899,0.8899,0.8899,0.9096,0.9273,0.9389,0.9652,1.0109,1.0798,1.2123,1.3244,1.4072,1.5178,0.0,0.0,0.0,2.1164,2.4967,2.6726,2.8599,3.0379,2.9294,2.8612,2.7941,2.2843,0.0,0.0,0.0,0.0,0.0,0.0,0.0,0.0,0.0,0.0,0.0,0.0,0.0,0.0,0.0,0.0,0.0,0.0,0.0,1.2147,1.3529,1.4602,1.5863,1.8173,1.9746,2.0946,2.1689,2.2656,2.3327,2.3155,2.3259,2.3415,2.3487,2.3641,2.3786,2.3841,2.3843,2.3843,2.3843,2.37,2.3576,2.3576,2.347,0.0,0.0,0.0,0.0,0.0,0.0,2.3065,2.3065,2.294,2.2873,2.2873,2.2745,2.25,2.2144,2.1954,2.1743,2.1581,2.1533,2.1513,2.1513,2.1422,2.1408,2.1408,2.13,2.132,2.1408,2.1408,2.1408,2.1408,2.1408,2.1408,2.1408,2.1408,2.1408,2.1408,0.0,0.0,0.0,0.0,0.0,0.0,0.0,0.0,0.0,0.0,0.0,0.0,0.0,0.0,0.9068,0.9068,0.9313,0.9463,0.9463,0.9631,1.0198,1.1246,1.216,1.3124,1.4182,1.5123,0.0,0.0,0.0,0.0,0.0,2.5839,2.774,2.943,2.8179,2.8131,0.0,0.0,0.0,1.9041,0.0,0.0,1.3152,0.0,0.0,0.0,0.0,0.0,0.0,0.0,0.0,0.0,0.0,0.0,0.0,0.0,0.0,0.0,1.2902,1.3722,1.4842,1.6971,1.8124,1.9169,2.07,2.1669,2.232,2.266,2.2907,2.3113,2.3311,2.3431,2.3576,2.3685,2.3698,2.3698,2.3698,2.3519,2.3395,2.3395,2.3271,2.3187,2.3133,0.0,0.0,0.0,0.0,0.0,2.294,2.282,2.2673,2.2571,2.2429,2.2184,2.1848,2.1743,2.1597,2.1408,2.1408,2.1408,2.1408,2.1354,2.1334,2.1337,2.1194,2.1215,2.1334,2.1334,2.1334,2.1334,2.1371,2.1408,2.1408,2.1408,2.1408,2.1408,0.0,0.0,0.0,0.0,0.0,0.0,0.0,0.0,0.0,0.0,0.0,0.0,0.0,0.0,0.0,0.9416,0.9537,0.9611,0.9604,0.9627,1.0166,1.1292,1.2117,1.3092,1.4227,1.5148,0.0,0.0,0.0,0.0,0.0,0.0,2.6483,2.931,2.7329,2.7661,2.9472,0.0,2.2837,2.1166,0.0,1.4418,1.3546,0.0,0.0,0.0,1.4387,1.4121,0.0,0.0,0.0,0.0,0.0,0.0,0.0,0.0,0.0,0.0,0.0,0.0,0.0,1.5662,1.6117,1.693,2.0275,2.0612,2.0666,2.2219,2.2643,2.2832,2.3133,2.3201,2.3309,2.363,2.3685,2.3685,2.3685,2.3519,2.3395,2.3395,2.3271,2.3135,2.3011,2.3113,0.0,0.0,2.2907,2.292,2.2802,2.2657,2.2446,2.2109,2.195,2.1831,2.1706,2.1685,2.1584,2.1408,2.1388,2.1388,2.1388,2.1262,2.1194,2.1197,2.1055,2.1068,2.1194,2.1194,2.1194,2.1215,2.1354,2.1408,2.1408,2.1408,2.1408,2.1408,0.0,0.0,0.0,0.0,0.0,0.0,0.0,0.0,0.0,0.0,0.0,0.0,0.0,0.0,0.9692,0.9692,0.9812,0.9805,0.9618,1.0374,1.1267,1.2272,1.3362,1.4427,1.5476,1.5759,0.0,0.0,0.0,0.0,0.0,0.0,0.0,0.0,2.7031,2.6707,2.5982,2.3575,0.0,0.0,1.7662,1.5669,0.0,0.0,0.0,0.0,0.0,1.506,0.0,0.0,1.3976,1.319,0.0,0.0,0.0,0.0,0.0,0.0,1.1696,0.0,0.0,0.0,0.0,0.0,1.6687,1.7806,1.8987,2.0487,2.1173,2.1815,2.2848,2.3133,2.3241,2.3327,2.3347,2.3347,2.3347,2.3289,2.3257,2.3257,2.3133,2.3049,2.2991,2.2958,0.0,0.0,2.2604,2.2536,2.2643,2.2395,2.2201,2.2096,2.1727,2.1581,2.1706,2.1353,2.1265,2.1408,2.1198,2.1161,2.1249,2.1123,2.1055,2.1055,2.1021,2.1021,2.1052,2.1161,2.1262,2.1354,2.1388,2.1408,2.1408,2.1408,2.1408,2.1408,0.0,0.0,0.9874,0.9903,0.0,0.0,0.0,0.0,0.0,0.0,0.0,0.0,0.0,0.0,0.0,1.0105,1.0158,1.0076,0.9786,1.0651,1.1626,1.2662,1.3805,1.491,1.5984,1.5635,1.5646,0.0,0.0,0.0,0.0,0.0,0.0,0.0,2.5292,2.516,0.0,0.0,0.0,0.0,1.8014,0.0,0.0,1.5619,1.6052,0.0,0.0,0.0,1.6076,1.5825,1.4966,0.0,0.0,0.0,0.0,0.0,0.0,0.0,0.0,0.0,0.0,0.0,0.0,0.0,1.5703,1.659,1.7636,1.9678,2.0471,2.1127,2.2255,2.2604,2.2798,2.292,2.2995,2.3065,2.3187,2.3201,2.3187,2.3113,2.3045,2.2923,2.2726,2.271,2.2643,2.2449,2.2303,2.2238,2.2303,2.2076,2.1886,2.1811,2.155,2.1405,2.1404,2.1197,2.1127,2.1228,2.1072,2.1034,2.1106,2.0983,2.0912,2.0908,2.0828,2.0878,2.1001,2.1021,2.1106,2.1249,2.1354,2.1374,2.132,2.1371,2.1408,2.1408,0.0,0.0,1.0848,1.0947,1.1185,1.105,0.0,0.0,0.0,0.0,0.0,0.0,0.0,0.0,0.0,0.0,1.0568,1.0404,1.0054,1.077,1.1673,1.2696,1.3889,1.5007,1.6052,1.5319,1.5296,1.6035,0.0,0.0,0.0,0.0,0.0,0.0,2.2957,2.3218,0.0,0.0,0.0,1.7492,1.7783,1.6883,0.0,0.0,1.7487,0.0,1.7656,1.7656,1.746,1.6802,1.565,0.0,0.0,0.0,0.0,0.0,1.2119,0.0,0.0,0.0,0.0,0.0,0.0,0.0,1.5892,1.6067,1.644,1.904,1.9818,2.0313,2.1214,2.1601,2.1862,2.2147,2.2449,2.2764,2.3133,2.3187,2.3135,2.2991,2.2977,2.2801,2.2343,2.2445,2.2375,2.1933,2.2004,2.2025,2.1879,2.1743,2.1584,2.1408,2.1354,2.1228,2.1001,2.1072,2.1072,2.1001,2.0967,2.0967,2.0967,2.0824,2.0772,2.0752,2.0598,2.07,2.0967,2.0874,2.0908,2.1039,2.1266,2.1286,2.1215,2.1334,2.1388,2.1408,1.0708,1.0863,1.1051,1.1332,1.1603,0.0,0.0,0.0,0.0,0.0,0.0,0.0,0.0,0.0,0.0,0.0,1.1044,1.0659,1.0271,1.1673,1.2678,1.3005,1.4885,1.6109,1.6548,1.6405,1.6293,1.6247,0.0,0.0,0.0,0.0,0.0,0.0,2.2517,2.1271,0.0,0.0,0.0,1.5468,1.6372,0.0,1.6479,1.7175,1.788,1.8492,1.8547,1.8546,1.8384,0.0,1.6482,1.5498,0.0,0.0,0.0,0.0,0.0,0.0,0.0,0.0,0.0,0.0,0.0,0.0,1.3271,1.3859,1.4803,1.6062,1.6741,1.7582,1.909,1.9591,1.9746,1.9713,2.0808,2.1991,2.2902,2.3133,2.3117,2.287,2.2832,2.2696,2.2343,2.2238,2.2113,2.192,2.1916,2.1879,2.176,2.1564,2.1442,2.1408,2.1089,2.0949,2.1001,2.0758,2.0758,2.1001,2.0734,2.0686,2.0827,2.0629,2.0562,2.0562,2.0682,2.0788,2.0856,2.1034,2.1143,2.1157,2.1109,2.1127,2.1194,2.1228,2.13,2.1408,1.0814,1.1411,1.1845,1.1853,0.0,0.0,0.0,0.0,0.0,0.0,0.0,0.0,0.0,0.0,0.0,0.0,0.0,0.0,0.0,1.1931,1.2899,1.2902,1.5079,1.6428,1.6688,1.6269,1.6256,1.6649,0.0,0.0,0.0,0.0,0.0,0.0,0.0,0.0,0.0,0.0,1.7415,1.531,1.7148,0.0,1.9671,1.9,2.0085,2.172,2.0043,1.9409,1.9125,1.7602,1.6937,0.0,0.0,1.4192,1.4154,0.0,1.3427,1.3676,0.0,0.0,0.0,1.3271,0.0,0.0,0.0,1.3475,1.4049,1.5464,1.5744,1.6157,1.7507,1.7866,1.8056,1.8404,1.9624,2.07,2.114,2.2238,2.292,2.2714,2.2551,2.2323,2.2021,2.1937,2.1828,2.1655,2.1655,2.1621,2.1547,2.1391,2.1266,2.1198,2.1001,2.0845,2.0754,2.0686,2.0686,2.0754,2.0582,2.0541,2.0648,2.0541,2.0492,2.0508,2.0612,2.0718,2.0802,2.0845,2.0917,2.1017,2.114,2.1194,2.1215,2.1283,2.1334,2.1408,1.1129,1.2055,1.2645,1.2435,0.0,0.0,0.0,0.0,0.0,0.0,0.0,0.0,0.0,0.0,0.0,0.0,0.0,0.0,0.0,0.0,0.0,1.2838,1.5109,1.6385,1.6411,1.5746,1.5909,1.6937,0.0,0.0,0.0,0.0,0.0,0.0,0.0,0.0,0.0,0.0,0.0,1.5801,0.0,2.0148,2.1247,2.0141,2.1446,2.3564,2.1077,2.0085,1.9713,1.7942,0.0,1.7216,1.5143,1.4912,0.0,0.0,0.0,0.0,0.0,0.0,0.0,0.0,0.0,1.3366,0.0,0.0,0.0,1.5152,1.5104,1.5084,1.5944,1.6101,1.6322,1.6977,1.8179,1.9002,1.8855,2.0598,2.192,2.1984,2.1971,2.1832,2.1496,2.1386,2.1315,2.132,2.1174,2.1144,2.1304,2.1212,2.1109,2.0967,2.0917,2.0774,2.0492,2.0668,2.0668,2.0492,2.0492,2.0492,2.0492,2.0492,2.0492,2.0492,2.0492,2.0598,2.0732,2.0612,2.0652,2.0827,2.111,2.1178,2.1143,2.1266,2.1334,2.1374,1.2251,1.2531,1.278,1.3043,1.4504,1.5173,1.3705,0.0,0.0,0.0,0.0,0.0,0.0,0.0,0.0,0.0,0.0,0.0,1.3387,0.0,0.0,1.3318,1.5458,1.6245,1.5389,1.5391,1.5839,1.6724,0.0,0.0,0.0,0.0,0.0,0.0,2.159,0.0,0.0,0.0,1.7832,0.0,1.8179,1.7924,0.0,1.7786,1.8817,1.9599,2.023,2.0365,2.0083,0.0,1.8424,1.7934,0.0,1.6014,1.6029,0.0,0.0,0.0,0.0,0.0,0.0,0.0,1.4539,0.0,0.0,0.0,1.3609,1.318,0.0,1.3529,1.3891,0.0,0.0,1.4074,1.5548,1.6714,1.6823,1.7866,1.8903,1.9668,2.0772,2.1266,2.0684,2.0209,2.0238,2.0984,2.0331,2.0223,2.1001,2.1034,2.0962,2.0827,2.0652,2.0541,2.0492,2.0528,2.0528,2.0492,2.0492,2.0492,2.0492,2.0492,2.0492,2.0492,2.0492,2.0512,2.0541,2.0702,2.0788,2.0786,2.065,2.07,2.0861,2.1001,2.1123,2.1249,1.2517,1.2509,1.2853,1.3938,1.44,1.4394,1.3696,1.3732,0.0,0.0,0.0,0.0,0.0,0.0,0.0,0.0,0.0,0.0,0.0,0.0,0.0,0.0,0.0,0.0,1.5802,1.568,1.581,1.6177,1.5966,0.0,0.0,0.0,0.0,0.0,2.1984,0.0,1.8424,0.0,1.7525,0.0,0.0,0.0,0.0,1.8347,1.9608,1.9854,2.0331,2.0458,2.023,0.0,1.8614,0.0,0.0,0.0,0.0,0.0,0.0,0.0,0.0,0.0,0.0,0.0,0.0,0.0,1.3268,0.0,1.2939,0.0,0.0,0.0,0.0,0.0,0.0,0.0,1.4498,1.5306,1.5126,1.6232,1.7555,1.8884,1.8992,0.0,1.9483,1.9693,1.9992,2.0438,2.0066,2.0046,2.058,2.0786,2.0861,2.0802,2.0596,2.0492,2.0492,2.0492,2.0492,2.0492,2.0492,2.0492,2.0492,2.0492,2.0492,2.0492,2.0492,2.0492,2.0508,2.0598,2.0627,2.0612,2.0528,2.0666,2.0933,2.1068,2.114,2.1215,1.2178,0.0,0.0,0.0,0.0,1.3739,1.3637,1.3732,0.0,0.0,0.0,0.0,1.4785,1.4335,0.0,0.0,0.0,1.3601,0.0,0.0,1.5141,0.0,0.0,0.0,0.0,0.0,1.5857,1.5765,1.5976,0.0,0.0,0.0,0.0,0.0,0.0,2.1997,2.0651,0.0,0.0,1.6211,1.7259,1.7687,1.7827,1.9433,2.023,2.0492,2.0492,2.0492,2.0331,1.9202,1.8933,0.0,1.8096,0.0,0.0,0.0,0.0,0.0,1.5566,0.0,0.0,0.0,0.0,0.0,0.0,0.0,0.0,0.0,0.0,0.0,0.0,0.0,0.0,0.0,0.0,1.4236,1.3943,1.4765,1.5939,1.7398,1.7242,0.0,0.0,1.8825,1.9197,1.9574,0.0,1.9449,2.0103,2.0399,2.0596,2.0718,2.0578,2.0492,2.0492,2.0492,2.0492,2.0492,2.0492,2.0492,2.0492,2.0492,2.0492,2.0492,2.0492,2.0492,2.0492,2.0492,2.0492,2.0492,2.0492,2.065,2.0892,2.1072,2.114,2.1177,1.1154,1.1777,0.0,0.0,0.0,0.0,0.0,0.0,0.0,0.0,0.0,0.0,0.0,0.0,0.0,0.0,0.0,1.4895,1.5946,0.0,1.5171,0.0,0.0,0.0,0.0,0.0,0.0,1.5691,1.7116,0.0,0.0,0.0,0.0,0.0,0.0,2.4666,2.4791,2.3049,2.2571,2.2769,2.0373,2.1722,2.4697,0.0,1.9535,2.0492,2.0492,0.0,0.0,1.9849,1.9669,0.0,0.0,0.0,0.0,0.0,0.0,0.0,0.0,0.0,0.0,1.4828,0.0,0.0,0.0,0.0,1.3684,0.0,0.0,0.0,0.0,0.0,0.0,0.0,0.0,0.0,0.0,1.3241,1.3441,1.4344,1.567,1.6816,0.0,1.7195,1.7303,0.0,1.769,0.0,1.9635,1.9851,2.0114,2.0492,2.0492,2.0492,2.0492,2.0492,2.0492,2.0492,2.0492,2.0492,2.0492,2.0492,2.0492,2.0492,2.0492,2.0492,2.0492,2.0492,2.0492,2.0492,2.0492,2.0508,2.0562,2.0892,2.1017,2.1039,1.284,0.0,0.0,0.0,0.0,0.0,0.0,1.3866,0.0,0.0,0.0,0.0,0.0,0.0,1.7168,0.0,0.0,1.6544,1.6874,1.7392,0.0,0.0,0.0,1.8051,0.0,0.0,0.0,0.0,0.0,0.0,2.0034,0.0,0.0,0.0,0.0,2.594,0.0,0.0,0.0,0.0,0.0,2.0474,2.2873,0.0,0.0,2.3527,2.1294,2.0492,0.0,2.03,1.9992,1.971,1.9696,1.9051,1.8307,1.8375,1.8159,0.0,0.0,0.0,1.811,1.6111,0.0,0.0,0.0,0.0,0.0,0.0,0.0,0.0,0.0,0.0,0.0,0.0,0.0,0.0,0.0,1.2467,1.2465,1.3159,1.4742,1.5746,1.5694,0.0,0.0,0.0,1.7128,0.0,0.0,1.9409,1.9871,2.01,2.0368,2.0492,2.0492,2.0492,2.0492,2.0492,2.0492,2.0492,2.0492,2.0492,2.0492,2.0492,2.0492,2.0492,2.0492,2.0492,2.0492,2.0492,2.0492,2.0492,2.0541,2.0876,2.1001,2.1034,1.3533,0.0,0.0,0.0,0.0,0.0,0.0,0.0,0.0,0.0,1.5715,0.0,1.7968,0.0,1.8424,0.0,1.8199,1.7945,1.771,1.8303,0.0,1.7345,1.8955,0.0,0.0,0.0,0.0,0.0,0.0,1.9911,2.1491,2.2191,2.3278,0.0,0.0,2.6884,2.828,2.5188,2.4203,0.0,0.0,2.0734,0.0,0.0,2.2046,2.3896,0.0,2.0492,2.0492,2.0492,2.0264,2.001,2.023,1.9642,1.8884,1.8934,1.8703,1.8384,1.8105,1.8565,0.0,1.7094,1.6762,0.0,1.4473,0.0,0.0,0.0,0.0,0.0,0.0,0.0,0.0,0.0,0.0,0.0,0.0,1.2051,1.2085,1.257,1.381,1.4613,1.4636,1.525,1.5813,1.6208,0.0,0.0,0.0,0.0,1.9356,1.9817,2.0227,2.0453,2.0492,2.0492,2.0492,2.0492,2.0492,2.0492,2.0492,2.0492,2.0492,2.0492,2.0492,2.0492,2.0492,2.0492,2.0492,2.0492,2.0492,2.0492,2.0541,2.0876,2.1052,2.1177,1.326,1.232,0.0,0.0,1.1438,0.0,0.0,0.0,1.4044,0.0,1.6187,1.7284,1.8488,1.8903,1.9188,1.9437,1.933,0.0,1.8477,1.8997,0.0,0.0,1.816,1.8626,1.7866,0.0,0.0,0.0,0.0,0.0,2.364,2.3755,2.4386,2.5394,2.5201,0.0,3.1057,2.5914,2.5914,2.8865,2.29,2.2445,2.4967,2.1732,0.0,2.1788,2.0841,2.0492,2.0492,2.0492,2.0492,2.0478,2.0352,2.0139,1.9831,1.9379,1.933,1.9275,1.8571,1.8728,1.8816,1.7758,0.0,0.0,0.0,0.0,1.6497,0.0,0.0,0.0,0.0,0.0,0.0,1.5284,1.4213,1.3,1.1971,1.1981,1.2204,1.2474,1.2884,1.3492,1.4328,1.4208,1.4423,1.525,1.5097,1.5598,1.7059,0.0,1.8546,1.9606,2.0069,2.035,2.0492,2.0492,2.0492,2.0492,2.0492,2.0492,2.0492,2.0492,2.0492,2.0492,2.0492,2.0492,2.0492,2.0492,2.0492,2.0492,2.0492,2.0512,2.0562,2.0876,2.1174,2.1408,1.4243,1.2541,1.1601,0.0,1.1661,1.1545,0.0,0.0,0.0,0.0,1.7778,1.9027,2.0225,2.0438,2.0401,2.0228,1.9995,0.0,0.0,0.0,0.0,2.1087,2.3035,2.3758,2.2873,2.172,0.0,2.2783,0.0,0.0,2.4192,2.4123,2.404,2.3994,2.5117,2.6161,2.7089,2.7065,2.676,2.5923,2.2048,2.1421,0.0,0.0,2.108,2.1788,2.0841,2.0492,2.0492,2.0492,2.0492,2.0492,2.0458,2.0331,2.0157,1.9927,1.9888,1.9873,1.9698,1.9805,1.979,1.9065,1.8557,1.7994,0.0,0.0,0.0,0.0,0.0,0.0,0.0,0.0,0.0,0.0,0.0,0.0,0.0,0.0,0.0,1.2604,1.2576,1.2701,1.3125,1.3515,1.3816,1.4046,1.4315,1.4989,1.6174,0.0,0.0,1.8781,1.9785,2.035,2.0492,2.0492,2.0492,2.0492,2.0492,2.0492,2.0492,2.0492,2.0492,2.0492,2.0492,2.0492,2.0492,2.0492,2.0492,2.0492,2.0492,2.065,2.0876,2.0967,2.1174,2.1408,1.5666,0.0,0.0,1.2654,0.0,0.0,1.4789,0.0,0.0,1.7709,1.9064,0.0,2.1004,2.1135,2.1072,2.0826,2.056,0.0,0.0,0.0,0.0,2.387,2.5959,2.716,2.7185,2.5274,0.0,2.5795,0.0,0.0,2.486,2.453,2.4044,2.3474,2.4424,2.4871,2.4983,2.5898,2.4917,2.2612,2.1099,2.0826,0.0,2.07,2.0826,2.1219,2.0684,2.0492,2.0492,2.0492,2.0492,2.0492,2.0492,2.0453,2.035,2.0225,2.0225,2.0259,2.0196,2.03,2.0318,1.9966,1.9627,1.9207,1.8543,1.8482,1.8517,0.0,0.0,0.0,0.0,0.0,0.0,0.0,0.0,0.0,0.0,0.0,0.0,0.0,1.2467,1.2428,1.2317,1.2685,1.3078,1.3403,0.0,0.0,0.0,0.0,0.0,1.8307,1.9501,2.0245,2.0492,2.0598,2.0598,2.0492,2.0492,2.0492,2.0492,2.0492,2.0492,2.0492,2.0492,2.0492,2.0492,2.0492,2.0492,2.0508,2.0598,2.0774,2.1017,2.1068,2.1212,2.1408,1.7169,0.0,0.0,0.0,0.0,0.0,0.0,1.7174,0.0,2.0106,0.0,2.1687,2.197,2.1641,2.135,2.1215,0.0,2.094,2.1227,2.3719,2.5424,2.5921,2.7719,2.9512,3.1205,2.8829,0.0,0.0,0.0,0.0,2.5495,2.4809,2.4086,2.3322,2.3328,2.3616,2.4059,2.3326,2.1963,2.0301,2.0425,2.0478,2.0492,2.0492,2.0492,2.0492,2.0492,2.0492,2.0492,2.0492,2.0492,2.0492,2.0492,2.0492,2.0478,2.035,2.0404,2.0474,2.0368,2.0404,2.0492,2.0492,2.0492,2.0336,1.9715,1.9466,1.9413,1.9554,1.8713,0.0,0.0,0.0,0.0,1.3407,0.0,0.0,0.0,0.0,0.0,0.0,0.0,0.0,1.1933,1.2056,1.2422,0.0,0.0,0.0,0.0,0.0,0.0,1.8002,1.9212,2.0051,2.0492,0.0,2.0682,2.0541,2.0512,2.0492,2.0492,2.0492,2.0492,2.0492,2.0492,2.0492,2.0492,2.0492,2.0492,2.0528,2.0682,2.0861,2.1021,2.1127,2.1266,2.1408,0.0,0.0,0.0,0.0,0.0,1.8326,1.9762,2.1606,2.4094,2.7598,2.6942,2.6172,2.6239,2.3334,2.135,2.1215,2.1055,0.0,0.0,0.0,0.0,2.8771,2.9481,3.1675,3.5661,3.1293,2.9539,0.0,0.0,0.0,2.5482,2.4431,2.3397,2.2407,2.2049,2.2519,2.3441,2.0607,0.0,2.3227,2.117,2.0406,2.0492,2.0492,2.0492,2.0492,2.0492,2.0492,2.0492,2.0492,2.0492,2.0492,2.0492,2.0492,2.0492,2.0474,2.0478,2.0492,2.0474,2.0478,2.0492,2.0492,2.0492,2.0508,2.0539,2.0401,2.0334,2.0521,2.0173,1.9593,1.8849,0.0,0.0,0.0,0.0,0.0,0.0,0.0,0.0,0.0,0.0,1.3003,0.0,0.0,1.2515,1.2315,0.0,0.0,0.0,0.0,0.0,0.0,1.8855,0.0,0.0,0.0,2.0612,2.0752,2.0578,2.0492,2.0492,2.0492,2.0492,2.0492,2.0492,2.0492,2.0492,2.0492,2.0492,2.0492,2.0541,2.074,2.1001,2.1034,2.1194,2.1408,0.0,0.0,0.0,0.0,0.0,0.0,0.0,2.8066,0.0,2.5773,2.6619,2.7306,2.7061,2.5428,2.4999,2.6555,2.4909,2.3769,2.3701,2.5013,2.635,2.7574,3.0843,0.0,3.546,3.3744,3.2456,3.1665,0.0,0.0,0.0,0.0,2.1946,2.0775,1.8907,1.901,2.0479,0.0,0.0,2.1336,2.0669,2.0437,2.0492,2.0492,2.0492,2.0492,2.0492,2.0492,2.0492,2.0492,2.0562,2.0648,2.0528,2.0492,2.0492,2.0492,2.0492,2.0492,2.0492,2.0492,2.0492,2.0492,2.0492,2.0541,2.0752,2.0648,2.0564,2.0752,2.0523,1.9893,1.8537,1.691,0.0,0.0,0.0,0.0,0.0,0.0,0.0,0.0,0.0,0.0,0.0,0.0,1.2495,1.1979,1.223,0.0,0.0,0.0,0.0,0.0,0.0,0.0,0.0,0.0,0.0,2.0648,2.0541,2.0492,2.0492,2.0492,2.0492,2.0492,2.0492,2.0492,2.0492,2.0492,2.0492,2.0528,2.0684,2.0862,2.1021,2.1161,2.1286,2.1408,0.0,2.3007,0.0,0.0,2.4995,0.0,3.2961,3.3369,3.0988,2.5524,2.7012,2.8411,2.8011,2.7422,2.8348,3.1516,2.9193,2.7231,2.6443,2.609,2.6165,2.6811,3.1468,3.4418,3.5219,3.5923,3.491,0.0,0.0,0.0,0.0,0.0,2.0422,0.0,0.0,0.0,0.0,0.0,1.8036,1.8988,2.0035,2.0474,2.0492,2.0492,2.0492,2.0492,2.0492,2.0528,2.0564,2.0512,2.0612,2.0718,2.0541,2.0492,2.0492,2.0492,2.0492,2.0492,2.0492,2.0492,2.0492,2.0492,2.0492,2.0541,2.0702,2.0612,2.0541,2.0702,2.0505,1.9878,1.8498,1.7405,0.0,0.0,0.0,0.0,0.0,0.0,0.0,0.0,0.0,0.0,1.2378,0.0,0.0,0.0,0.0,0.0,1.3176,0.0,0.0,0.0,0.0,1.9075,1.9908,0.0,2.0682,0.0,2.0528,2.0492,2.0492,2.0492,2.0492,2.0492,2.0492,2.0492,2.0492,2.0492,2.0492,2.0525,2.0845,2.0967,2.1034,2.1266,2.1374,2.1408,0.0,0.0,0.0,0.0,0.0,0.0,0.0,3.4537,3.6536,3.6051,3.3676,3.1974,3.181,2.887,2.8239,3.15,3.1483,2.9895,2.6613,2.6248,2.7378,3.0123,3.0681,3.3337,3.8542,3.7451,3.5271,0.0,0.0,0.0,0.0,0.0,0.0,0.0,0.0,0.0,0.0,1.7268,1.837,1.9237,2.0015,2.0386,2.0492,2.0492,2.0492,2.0492,2.0492,2.0612,2.0736,2.0562,2.0512,2.0528,2.0508,2.0492,2.0492,2.0492,2.0492,2.0492,2.0492,2.0492,2.0492,2.0492,2.0492,2.0492,2.0528,2.0512,2.0508,2.0528,2.0406,1.9981,1.8934,1.8722,1.8253,0.0,0.0,0.0,0.0,0.0,1.6126,1.4995,0.0,0.0,1.2834,1.3169,0.0,0.0,1.1943,0.0,0.0,0.0,0.0,1.6136,0.0,1.8654,1.9271,2.0108,2.0612,2.0772,2.0598,2.0492,2.0492,2.0492,2.0492,2.0492,2.0492,2.0492,2.0492,2.0492,2.0492,2.0528,2.0732,2.0895,2.1021,2.1161,2.1303,2.1408,0.0,0.0,0.0,0.0,0.0,0.0,0.0,3.7434,3.7241,3.7669,3.4677,3.2474,3.2422,3.0986,3.2338,3.8082,3.4423,3.1279,3.0017,2.5631,2.4524,2.775,2.9562,3.2524,3.685,3.7258,3.6299,0.0,0.0,0.0,0.0,0.0,0.0,0.0,0.0,1.5802,1.6504,1.7663,1.8668,1.955,2.0171,2.0453,2.0492,2.0492,2.0492,2.0492,2.0492,2.0541,2.0612,2.0528,2.0578,2.0668,2.0541,2.0492,2.0492,2.0492,2.0492,2.0492,2.0492,2.0492,2.0492,2.0492,2.0492,2.0492,2.0492,2.0492,2.0492,2.0492,2.0453,2.0243,1.9678,1.9094,1.8557,0.0,0.0,0.0,0.0,0.0,0.0,1.5357,0.0,1.4308,1.3007,1.3095,0.0,0.0,0.0,0.0,0.0,0.0,0.0,1.5642,0.0,1.8185,1.9075,1.9947,2.0453,2.0612,2.0541,2.0492,2.0492,2.0492,2.0492,2.0492,2.0492,2.0492,2.0492,2.0492,2.0492,2.0528,2.0804,2.0946,2.1034,2.1249,2.1354,2.1408,3.4149,0.0,3.5364,0.0,3.665,3.684,4.1388,4.0149,3.8434,3.7733,3.5497,3.3935,3.3833,3.3647,3.6093,4.2443,3.8008,3.4126,3.2412,2.7153,2.512,2.7373,2.9446,0.0,3.6736,3.7644,3.7155,3.5324,3.2799,0.0,0.0,0.0,0.0,0.0,1.4922,1.5997,1.7243,1.8165,1.904,1.9856,2.0313,2.0492,2.0492,2.0492,2.0492,2.0492,2.0492,2.0492,2.0492,2.0492,2.0598,2.0682,2.0541,2.0492,2.0492,2.0492,2.0492,2.0492,2.0492,2.0492,2.0492,2.0492,2.0492,2.0492,2.0492,2.0492,2.0492,2.0492,2.0492,2.044,2.0243,1.9525,1.8978,1.9007,0.0,0.0,0.0,0.0,0.0,0.0,1.4884,1.412,1.3149,1.3095,0.0,0.0,0.0,0.0,0.0,0.0,0.0,0.0,0.0,0.0,0.0,1.9818,2.0365,2.0492,2.0492,2.0492,2.0492,2.0492,2.0492,2.0492,2.0492,2.0492,2.0492,2.0492,2.0492,2.0525,2.0878,2.1001,2.1034,2.13,2.1408,2.1408,3.6059,3.6941,3.801,4.011,4.1147,4.1706,4.179,4.2282,4.128,3.7492,3.7252,3.7322,3.6972,3.6949,3.8501,4.2363,4.2312,3.9281,3.2728,3.1774,3.1322,0.0,0.0,3.36,3.9815,3.9115,3.7674,3.5605,0.0,0.0,2.5497,0.0,1.668,1.522,1.6234,1.7014,1.7663,1.8727,1.9535,2.0119,2.0386,2.0492,2.0492,2.0492,2.0492,2.0492,2.0492,2.0492,2.0492,2.0492,2.0492,2.0492,2.0492,2.0492,2.0492,2.0492,2.0492,2.0492,2.0492,2.0492,2.0492,2.0492,2.0492,2.0492,2.0492,2.0492,2.0492,2.0492,2.0492,2.0492,2.0492,2.0264,1.9834,1.9115,0.0,0.0,0.0,0.0,0.0,1.5741,1.5235,1.4522,1.3309,1.3319,0.0,0.0,0.0,0.0,0.0,0.0,0.0,1.5179,1.6762,0.0,1.8503,1.9702,2.0365,2.0492,2.0492,2.0492,2.0492,2.0492,2.0492,2.0492,2.0492,2.0492,2.0492,2.0492,2.0492,2.0525,2.0878,2.1001,2.1034,2.13,2.1408,2.1408,3.8397,3.9106,3.9776,4.063,4.135,4.1857,4.2044,4.2242,4.201,4.1021,4.0983,4.0922,4.0575,3.8427,3.8622,0.0,4.0336,3.6845,0.0,2.9631,2.8941,3.0914,3.081,3.3731,4.0196,3.9666,3.8705,3.745,0.0,0.0,0.0,2.0105,1.7442,1.6255,1.7229,1.8097,1.8875,1.9535,2.0035,2.0386,2.0474,2.0492,2.0492,2.0492,2.0492,2.0492,2.0492,2.0492,2.0492,2.0492,2.0492,2.0492,2.0492,2.0492,2.0492,2.0492,2.0492,2.0492,2.0492,2.0492,2.0492,2.0492,2.0492,2.0492,2.0492,2.0492,2.0492,2.0492,2.0492,2.0492,2.0492,2.0279,1.9963,1.9552,1.9124,0.0,0.0,0.0,0.0,1.5425,1.4577,1.3865,0.0,1.3454,0.0,0.0,0.0,0.0,0.0,0.0,0.0,0.0,1.6858,0.0,1.8972,1.9771,2.0279,2.0492,2.0492,2.0492,2.0492,2.0492,2.0492,2.0492,2.0492,2.0492,2.0492,2.0492,2.0582,2.0716,2.0917,2.1055,2.1161,2.1334,2.1408,2.1408,3.9651,4.0242,4.0735,4.1,4.1548,4.2004,4.2162,4.2309,4.1949,4.071,4.1815,4.1581,3.8619,3.8686,0.0,4.2709,4.0499,3.705,3.2586,3.1107,3.0608,3.1136,3.2268,3.534,4.0535,0.0,0.0,3.8599,3.452,2.9997,2.5036,2.0387,1.7953,1.7521,1.8253,1.8958,1.9608,2.001,2.0298,2.0492,2.0492,2.0492,2.0492,2.0492,2.0492,2.0492,2.0492,2.0492,2.0492,2.0492,2.0492,2.0492,2.0492,2.0492,2.0492,2.0492,2.0492,2.0492,2.0492,2.0492,2.0492,2.0492,2.0492,2.0492,2.0492,2.0492,2.0492,2.0492,2.0492,2.0478,2.0424,2.0245,1.9992,1.9639,1.9075,1.8403,1.7575,0.0,0.0,0.0,0.0,0.0,0.0,1.3766,1.3877,0.0,0.0,0.0,0.0,0.0,0.0,1.5848,1.7155,0.0,1.9374,1.9908,2.0277,2.0492,2.0492,2.0492,2.0492,2.0492,2.0492,2.0492,2.0492,2.0492,2.0492,2.0492,2.0562,2.0718,2.0912,2.1055,2.114,2.1334,2.1408,2.1408,3.9997,4.0533,0.0,0.0,4.181,0.0,4.2202,4.2472,4.1411,3.7864,4.0509,4.0056,3.2978,3.802,4.1933,4.195,0.0,0.0,0.0,3.5376,3.5434,3.1914,3.4863,3.7953,4.0843,4.0655,4.0067,3.9127,3.1349,2.746,2.717,2.091,1.8295,1.8859,1.9256,1.9624,1.9937,2.0196,2.0386,2.0492,2.0492,2.0492,2.0492,2.0492,2.0492,2.0492,2.0492,2.0492,2.0492,2.0492,2.0492,2.0492,2.0492,2.0492,2.0492,2.0492,2.0492,2.0492,2.0492,2.0492,2.0492,2.0492,2.0492,2.0492,2.0492,2.0492,2.0492,2.0492,2.0492,2.0458,2.0318,2.0191,1.9942,1.9451,1.8875,1.8165,1.7283,0.0,1.5563,0.0,0.0,0.0,0.0,1.4195,1.4464,0.0,0.0,0.0,0.0,0.0,1.5654,1.6369,1.7656,1.8796,1.9708,2.0103,2.0365,2.0492,2.0492,2.0492,2.0492,2.0492,2.0492,2.0492,2.0492,2.0492,2.0492,2.0492,2.0512,2.0562,2.0876,2.1021,2.1052,2.13,2.1408,2.1408,0.0,0.0,4.1305,4.1644,4.1964,4.2202,4.2202,4.2472,4.2379,4.1472,4.2493,4.1513,3.682,3.7951,3.7858,3.4869,3.927,4.0397,3.6168,3.6587,3.6516,3.5426,3.6165,3.7953,4.0843,4.0842,4.0361,3.9478,3.2386,2.8731,2.8217,2.1862,1.9027,1.9276,1.9624,1.9942,2.0225,2.0386,2.0474,2.0492,2.0492,2.0492,2.0492,2.0492,2.0492,2.0492,2.0492,2.0492,2.0492,2.0492,2.0492,2.0492,2.0492,2.0492,2.0492,2.0492,2.0492,2.0492,2.0492,2.0492,2.0492,2.0492,2.0492,2.0492,2.0492,2.0492,2.0492,2.0492,2.0492,2.0458,2.0318,2.0191,1.9908,1.9345,1.8654,1.7846,1.6809,1.6217,0.0,0.0,1.4941,1.4941,1.4828,1.4728,1.4638,0.0,0.0,0.0,0.0,1.6019,1.6795,1.7277,1.8301,1.9188,1.9913,2.0174,2.0365,2.0492,2.0492,2.0492,2.0492,2.0492,2.0492,2.0492,2.0492,2.0492,2.0492,2.0492,2.065,2.0892,2.0967,2.1127,2.1304,2.1371,2.1408,2.1408,4.0798,4.1122,4.141,4.175,4.2015,4.2258,4.2405,4.2584,4.2131,4.0524,4.1966,4.1125,3.5807,3.8062,3.7869,3.2649,3.6948,3.8445,3.4867,3.7604,3.8601,3.6865,3.8319,3.9842,4.1279,4.1163,4.0651,3.9786,3.3086,2.9596,2.9058,2.2618,1.9642,1.973,1.9976,2.0157,2.0318,2.0437,2.0492,2.0492,2.0492,2.0492,2.0492,2.0492,2.0492,2.0492,2.0492,2.0492,2.0512,2.0612,2.0648,2.0648,2.0648,2.0648,2.0612,2.0528,2.0492,2.0492,2.0492,2.0492,2.0492,2.0492,2.0492,2.0492,2.0492,2.0492,2.0492,2.0492,2.0492,2.044,2.0245,2.0051,1.9673,1.8903,1.8219,1.7378,1.6248,1.5894,0.0,1.5143,1.5401,1.5646,1.5701,1.5725,1.5609,1.5276,0.0,0.0,1.56,1.6808,1.7521,1.7595,1.8728,1.9556,2.0036,2.0277,2.0424,2.0492,2.0492,2.0494,2.0497,2.0494,2.0494,2.0513,2.06,2.0582,2.0508,2.0598,2.074,2.0908,2.0983,2.1127,2.132,2.1371,2.1408,2.1408,4.0909,4.1187,4.1481,4.1806,4.2087,4.2365,4.2651,4.2771,4.1758,3.8781,4.097,4.0373,3.3942,3.82,3.8826,3.2135,3.4587,3.5397,3.2753,3.814,4.0327,3.7884,4.0613,4.2055,4.1726,4.1361,4.0827,4.0077,3.3523,3.0164,2.9728,2.3183,2.0139,2.0155,2.0778,2.0799,2.0419,2.1049,2.1023,2.0566,2.0541,2.0562,2.0566,2.0528,2.0528,2.0541,2.0541,2.0528,2.0528,2.0732,2.0788,2.0752,2.0752,2.0752,2.0716,2.0541,2.0492,2.0492,2.0492,2.0492,2.0492,2.0492,2.0492,2.0492,2.0492,2.0492,2.0492,2.0492,2.0492,2.0419,2.0153,1.9885,1.9389,1.8429,1.7724,1.6897,1.5712,0.0,1.553,1.5321,1.5871,1.6346,1.6545,1.6856,1.6801,1.6236,1.6712,1.6889,0.0,1.7609,1.8091,1.7852,1.9075,1.9871,2.0157,2.0386,2.0492,2.0492,2.0528,2.0532,2.0505,2.0584,2.0581,2.0505,2.0742,2.0732,2.0562,2.0752,2.084,2.0858,2.098,2.1106,2.1249,2.1354,2.1408,2.1408,4.1183,4.1492,4.1802,4.2095,4.2405,4.2635,4.2691,4.307,4.3182,4.2651,4.3039,4.1914,3.8041,3.8091,3.5612,2.8682,3.1048,3.3844,3.6051,3.7209,3.8886,4.1292,4.1917,4.1948,4.1385,4.0869,4.0563,4.0416,3.3746,3.0376,3.0077,2.3387,2.0264,2.0389,2.3247,2.3111,2.0917,2.3761,2.3405,2.0912,2.0806,2.082,2.0892,2.0616,2.0612,2.0752,2.0752,2.0648,2.0528,2.0732,2.0682,2.0541,2.0541,2.0541,2.0541,2.0508,2.0492,2.0492,2.0492,2.0492,2.0492,2.0492,2.0492,2.0492,2.0492,2.0492,2.0492,2.0492,2.0492,2.0419,2.0153,1.9885,1.9355,1.8301,1.7426,1.6508,1.5416,0.0,1.5657,1.5773,1.6516,1.7242,1.7772,1.7433,1.7297,1.7575,1.7337,1.731,1.7629,1.8316,1.8771,1.8952,1.955,2.0051,2.0424,2.0478,2.0492,2.0492,2.0668,2.0666,2.0525,2.1024,2.0972,2.0514,2.089,2.0943,2.0756,2.0908,2.1002,2.1054,2.1144,2.1249,2.1374,2.1392,2.1408,2.1408,4.1481,4.1686,4.1882,4.2146,4.2472,4.2747,4.2889,4.3263,4.3495,4.3495,4.3495,4.2917,4.1392,4.0862,3.7809,3.0821,3.143,3.1988,3.1435,3.4915,3.7728,3.9328,4.1207,4.1908,4.1305,4.0924,3.9762,3.7817,3.2897,2.9536,2.7617,2.2703,2.0406,2.0548,2.3904,2.363,2.0858,2.4222,2.3738,2.0734,2.0786,2.0843,2.0878,2.0804,2.0828,2.0908,2.0908,2.0845,2.0788,2.0967,2.095,2.086,2.0788,2.0828,2.0846,2.07,2.0582,2.0492,2.0492,2.0492,2.0492,2.0492,2.0492,2.0492,2.0492,2.0492,2.0492,2.0492,2.0492,2.0419,2.0153,1.9732,1.9199,1.8443,1.7311,0.0,0.0,1.5874,1.6049,1.6542,1.7242,1.7894,1.8424,1.8124,1.7935,1.8003,1.7874,1.786,1.8003,1.8654,1.915,1.9464,1.9888,2.0245,2.0492,2.0492,2.0492,2.0492,2.0598,2.0648,2.0668,2.0955,2.0925,2.0675,2.1086,2.1084,2.0822,2.1021,2.107,2.1053,2.1128,2.125,2.1408,2.1408,2.1408,2.1408,4.1686,4.1857,4.1964,4.2162,4.2528,4.2862,4.3076,4.3388,4.3642,4.3692,4.3591,4.3551,4.3698,4.3354,4.0281,3.3309,3.245,3.0327,2.5681,3.1918,3.6152,3.6965,4.0279,4.1853,4.1305,4.104,3.9134,3.5504,3.2129,2.8776,2.5423,2.2116,2.0955,2.1817,2.5288,2.4925,2.1939,2.5376,2.4436,2.067,2.0806,2.0874,2.0949,2.098,2.1021,2.1055,2.1055,2.1034,2.1021,2.114,2.1181,2.1143,2.1034,2.1068,2.1106,2.0908,2.0736,2.0616,2.0582,2.0562,2.0562,2.0562,2.0562,2.0562,2.0562,2.0528,2.0492,2.0492,2.0492,2.0435,2.0191,1.9698,1.9115,1.8517,0.0,0.0,0.0,1.6368,1.6564,1.7276,1.7914,1.8478,1.8899,1.8802,1.8611,1.8375,1.8449,1.8483,1.8409,1.8972,1.9483,1.9831,2.0171,2.0406,2.0492,2.0492,2.0492,2.0492,2.0582,2.0668,2.0732,2.084,2.086,2.0814,2.1192,2.117,2.0908,2.114,2.1197,2.1109,2.1142,2.127,2.1404,2.1405,2.1405,2.1404,4.1726,4.2004,4.2178,4.2202,4.267,4.3076,4.31,4.3591,4.4059,4.4296,4.3855,4.3708,4.4272,4.3607,4.0281,3.3309,3.245,2.9303,2.2246,2.8308,3.3621,3.6857,4.01,4.1655,4.1305,4.104,3.9134,3.5504,3.2129,2.8776,2.5423,2.2257,2.2338,2.5298,2.9082,2.8745,2.5558,2.9234,2.7057,2.114,2.1034,2.1127,2.1334,2.1093,2.1072,2.1197,2.1197,2.1109,2.1021,2.114,2.1123,2.1021,2.1001,2.1017,2.1021,2.098,2.0964,2.0949,2.0806,2.0788,2.0788,2.0788,2.0788,2.0788,2.0788,2.0632,2.0492,2.0492,2.0492,2.0453,2.0318,1.9942,1.9336,1.8301,0.0,0.0,1.6389,1.6666,1.7167,1.7779,1.8491,1.904,1.9329,1.9349,1.9276,1.9128,1.9128,1.9188,1.9295,1.9537,1.9851,2.0245,2.0406,2.0494,2.0492,2.0492,2.0492,2.0492,2.0808,2.0808,2.0541,2.0964,2.1034,2.082,2.1089,2.1197,2.1181,2.1337,2.1371,2.1374,2.1371,2.1386,2.1399,2.1404,2.1403,2.1399,4.1948,4.2135,4.2202,4.2202,4.2568,4.2918,4.3076,4.3444,4.3805,4.4115,4.3952,4.3901,4.4125,4.3674,4.0472,3.3314,3.245,2.9206,2.1882,2.7932,3.4314,3.9993,4.1235,4.175,4.1599,4.1305,3.8355,3.2648,3.1365,2.7884,2.2365,2.1167,2.236,2.5651,2.9355,2.9066,2.5996,2.9647,2.7289,2.1072,2.1106,2.1197,2.1266,2.1262,2.1283,2.132,2.132,2.1286,2.1262,2.13,2.1286,2.1232,2.114,2.1181,2.1246,2.1246,2.1194,2.1106,2.1055,2.098,2.0912,2.0912,2.0861,2.0802,2.0802,2.0648,2.0492,2.0492,2.0492,2.0458,2.0318,2.0046,1.9695,1.9287,0.0,1.7806,1.7948,1.7806,1.7948,1.862,1.9144,1.9518,1.9693,1.9712,1.961,1.9344,1.9522,1.9625,1.9591,1.9903,2.0171,2.0419,2.0474,2.0492,2.0492,2.0492,2.0492,2.0492,2.0756,2.074,2.0512,2.0896,2.0983,2.0806,2.1072,2.114,2.1093,2.13,2.1354,2.1283,2.1365,2.1402,2.1403,2.1402,2.1402,2.1407,4.2095,4.2202,4.2202,4.2202,4.2552,4.2889,4.3076,4.342,4.3765,4.4082,4.4059,4.4018,4.4115,4.3861,4.1128,3.4874,3.3148,2.9755,2.3455,2.8545,3.4915,4.1902,4.2015,4.1897,4.1806,4.0492,3.6919,3.0978,2.9838,2.6298,2.0614,2.1676,2.3929,2.7226,3.1002,3.1308,2.9066,3.062,2.7944,2.2592,2.1564,2.1197,2.1266,2.1358,2.1408,2.1408,2.1408,2.1408,2.1408,2.1408,2.1408,2.1371,2.1286,2.1337,2.1408,2.1408,2.1334,2.1262,2.1262,2.1194,2.1123,2.1068,2.098,2.0929,2.0929,2.079,2.0652,2.0596,2.0598,2.0541,2.0386,2.0171,1.9976,1.9856,1.9096,1.864,1.9006,1.8742,1.8727,1.9345,1.9693,1.9903,1.9958,1.9997,1.9908,1.9642,1.9834,1.9937,1.989,2.0191,2.0406,2.0492,2.0492,2.0492,2.0492,2.0492,2.0492,2.0492,2.0702,2.0682,2.0508,2.0804,2.0895,2.0806,2.098,2.1055,2.1021,2.1249,2.1262,2.1143,2.1328,2.1349,2.128,2.1365,2.1399,2.1402,4.2151,4.2202,4.2202,4.2202,4.2699,4.31,4.31,4.3607,4.4099,4.4362,4.4165,4.4099,4.4362,4.4165,4.2352,3.8256,3.4743,3.1001,2.6961,2.9921,3.4931,4.1902,4.2202,4.2071,4.1806,3.84,3.4828,3.1201,2.751,2.4023,2.0873,2.423,2.7488,3.0677,3.4764,3.6339,3.5706,3.2683,2.9465,2.6085,2.2463,2.1161,2.1408,2.1408,2.1408,2.1408,2.1408,2.1408,2.1408,2.1408,2.1408,2.1408,2.1408,2.1408,2.1408,2.1408,2.1408,2.1408,2.1408,2.1408,2.1374,2.1228,2.1194,2.1194,2.1194,2.1109,2.0967,2.0827,2.0802,2.0732,2.0541,2.0386,2.0171,1.9763,1.9535,1.9364,1.9237,1.933,1.9535,1.9856,2.0139,2.0243,2.0103,2.0225,2.0245,2.0103,2.0098,2.0157,2.0298,2.0424,2.0492,2.0492,2.0492,2.0492,2.0492,2.0492,2.0492,2.0492,2.0702,2.0682,2.0508,2.0718,2.0802,2.0802,2.0802,2.0874,2.1021,2.114,2.1123,2.1037,2.1294,2.1236,2.102,2.1305,2.1391,2.1406,4.2151,4.2202,4.2202,4.2202,4.2552,4.2878,4.3076,4.3404,4.3765,4.4075,4.4051,4.4018,4.4115,4.3845,4.209,3.8236,3.6786,3.5453,3.3992,3.4867,3.7472,4.201,4.2202,4.2162,4.2071,3.8663,3.5109,3.1478,2.7821,2.4253,2.0873,2.4087,2.7447,3.0947,3.4761,3.6429,3.617,3.2912,2.9604,2.6213,2.2591,2.1249,2.1408,2.1408,2.1408,2.1408,2.1408,2.1408,2.1408,2.1408,2.1408,2.1408,2.1408,2.1408,2.1408,2.1408,2.1408,2.1408,2.1408,2.1408,2.1388,2.1354,2.1266,2.1194,2.1194,2.1109,2.0967,2.0827,2.0802,2.0732,2.0541,2.0474,2.0365,2.0157,2.0069,1.9979,1.9854,1.9875,1.9961,2.0157,2.0243,2.0277,2.0245,2.0279,2.0245,2.0103,2.0191,2.0298,2.0424,2.0478,2.0492,2.0492,2.0492,2.0492,2.0492,2.0492,2.0492,2.0492,2.0702,2.0682,2.0508,2.0718,2.0716,2.0598,2.0732,2.0822,2.0874,2.1001,2.1051,2.1065,2.1111,2.1194,2.1247,2.0896,2.1033,2.1392,4.0381,4.0149,4.0149,4.0149,4.0515,4.1314,4.2863,4.3444,4.3765,4.3968,4.4008,4.4008,4.4008,4.3821,4.2734,4.0317,3.8601,3.7533,3.7225,3.7193,3.8697,4.2041,4.2202,4.2202,4.2202,3.7424,3.3873,3.1689,2.6629,2.301,2.0978,2.5531,2.8794,3.1123,3.6241,3.8579,3.834,3.3614,3.0454,2.8217,2.3206,2.1283,2.1408,2.1408,2.1442,2.1513,2.1513,2.1513,2.1513,2.1513,2.1479,2.1408,2.1408,2.1408,2.1408,2.1408,2.1408,2.1408,2.1408,2.1408,2.1408,2.1408,2.1334,2.1283,2.1283,2.1215,2.1106,2.0912,2.0874,2.0806,2.0541,2.0492,2.0474,2.039,2.0386,2.0352,2.0264,2.0259,2.03,2.0365,2.0386,2.0386,2.0386,2.0386,2.0352,2.0259,2.0331,2.0404,2.0492,2.0492,2.0492,2.0492,2.0492,2.0492,2.0492,2.0492,2.0492,2.0492,2.0612,2.0612,2.0492,2.0627,2.0612,2.0508,2.0632,2.0682,2.0686,2.0845,2.0895,2.0872,2.0958,2.1022,2.1004,2.0623,2.0732,2.1078,3.762,3.6752,3.6628,3.6949,3.7484,3.9048,4.2533,4.3567,4.3968,4.3968,4.3978,4.4008,4.4008,4.4008,4.3878,4.3535,4.0325,3.8224,3.799,3.7938,3.9205,4.2113,4.2218,4.2202,4.2202,3.537,3.1794,3.1794,2.4552,2.1021,2.117,2.7816,3.0939,3.1278,3.8564,4.1806,4.1412,3.4847,3.1952,3.1217,2.4506,2.1654,2.1408,2.1408,2.1513,2.1668,2.1668,2.1685,2.1706,2.1706,2.1564,2.1408,2.1408,2.1408,2.1408,2.1408,2.1408,2.1408,2.1408,2.1408,2.1408,2.1408,2.1408,2.1408,2.1408,2.1408,2.1337,2.1068,2.1021,2.0917,2.0598,2.0528,2.0528,2.0492,2.0492,2.0492,2.0492,2.0492,2.0492,2.0492,2.0492,2.0492,2.0492,2.0492,2.0492,2.0492,2.0492,2.0492,2.0492,2.0492,2.0492,2.0492,2.0492,2.0492,2.0492,2.0492,2.0492,2.0492,2.0492,2.0492,2.0492,2.0492,2.0492,2.0492,2.0492,2.0492,2.0512,2.0702,2.0668,2.0528,2.083,2.0764,2.0496,2.0503,2.0496,2.0585,3.7152,3.4791,3.3787,3.652,3.7319,3.8757,4.2258,4.3263,4.3601,4.3601,4.3845,4.4008,4.4008,4.4008,4.3878,4.3535,4.2368,4.1625,4.1576,4.1323,4.1599,4.2552,4.2341,4.2202,4.2202,3.537,3.1794,3.1794,2.4655,2.1157,2.1294,2.799,3.1253,3.175,3.8694,4.1929,4.1827,3.7512,3.4176,3.1499,2.8009,2.4503,2.1408,2.1408,2.1422,2.1479,2.1479,2.1564,2.1706,2.1706,2.1564,2.1408,2.1408,2.1408,2.1408,2.1408,2.1408,2.1408,2.1408,2.1408,2.1408,2.1408,2.1408,2.1408,2.1408,2.1408,2.1354,2.1194,2.1157,2.1068,2.0786,2.0732,2.0682,2.0528,2.0492,2.0492,2.0492,2.0492,2.0492,2.0492,2.0492,2.0492,2.0492,2.0492,2.0492,2.0492,2.0492,2.0492,2.0492,2.0492,2.0492,2.0492,2.0492,2.0492,2.0492,2.0492,2.0492,2.0492,2.0492,2.0492,2.0492,2.0492,2.0492,2.0492,2.0492,2.0492,2.0492,2.0541,2.0541,2.0508,2.058,2.0564,2.0492,2.0494,2.0506,2.0582,3.5168,3.3045,3.1326,2.983,3.2447,3.6528,4.1681,4.3036,4.3511,4.3717,4.39,4.4008,4.4008,4.4008,4.3928,4.3748,4.3354,4.302,4.2889,4.2608,4.2461,4.2461,4.2461,4.2365,4.2202,3.5526,3.1954,3.1794,2.4678,2.1194,2.1345,2.8184,3.1462,3.1899,3.8883,4.2071,4.197,3.8396,3.5877,3.3879,2.9251,2.5976,2.3705,2.2041,2.1462,2.155,2.155,2.1614,2.1685,2.1584,2.1493,2.1408,2.1408,2.1408,2.1408,2.1408,2.1408,2.1408,2.1408,2.1408,2.1408,2.1408,2.1408,2.1408,2.1408,2.1408,2.1358,2.1228,2.1194,2.1143,2.0933,2.084,2.0772,2.0668,2.0562,2.0492,2.0492,2.0492,2.0492,2.0492,2.0492,2.0492,2.0492,2.0492,2.0492,2.0492,2.0492,2.0492,2.0492,2.0492,2.0492,2.0492,2.0492,2.0492,2.0492,2.0492,2.0492,2.0492,2.0492,2.0492,2.0492,2.0492,2.0492,2.0492,2.0492,2.0492,2.0492,2.0492,2.0492,2.0492,2.0492,2.0492,2.0492,2.0492,2.0682,2.0965,3.293,3.0843,2.8198,2.2412,2.6173,3.277,4.0952,4.2759,4.3348,4.3794,4.3938,4.4007,4.4008,4.4008,4.4001,4.4007,4.3753,4.342,4.3072,4.2835,4.2627,4.24,4.2603,4.2579,4.2314,3.685,3.3269,3.1794,2.4701,2.1228,2.1383,2.8372,3.1624,3.1933,3.9029,4.2202,4.201,3.9112,3.7548,3.6488,3.0487,2.7485,2.6223,2.2738,2.1493,2.1655,2.1655,2.1655,2.1635,2.1493,2.1426,2.1408,2.1408,2.1408,2.1408,2.1408,2.1408,2.1408,2.1408,2.1408,2.1408,2.1408,2.1408,2.1408,2.1408,2.1408,2.1374,2.1262,2.1228,2.1194,2.1052,2.0912,2.0827,2.0802,2.0632,2.0492,2.0492,2.0492,2.0492,2.0492,2.0492,2.0492,2.0492,2.0492,2.0492,2.0492,2.0492,2.0492,2.0492,2.0492,2.0492,2.0492,2.0492,2.0492,2.0492,2.0492,2.0492,2.0492,2.0492,2.0492,2.0492,2.0492,2.0492,2.0492,2.0492,2.0492,2.0492,2.0492,2.0492,2.0492,2.0492,2.0492,2.0492,2.0494,2.0812,2.1254,3.1997,2.6945,2.2516,2.1569,2.2178,2.7194,4.0204,4.2296,4.2573,4.3143,4.3675,4.3987,4.4001,4.4008,4.4,4.3991,4.395,4.3622,4.2889,4.2814,4.2906,4.3227,4.2946,4.2771,4.2712,4.1495,3.7883,3.1794,2.4794,2.1374,2.1523,2.8516,3.176,3.2083,3.908,4.2202,4.2171,4.1701,3.9755,3.6832,3.4903,3.1095,2.6223,2.2738,2.1422,2.1442,2.1442,2.1442,2.1459,2.1605,2.1534,2.1408,2.1408,2.1408,2.1408,2.1408,2.1408,2.1408,2.1408,2.1408,2.1408,2.1408,2.1408,2.1408,2.1408,2.1408,2.1392,2.1374,2.1374,2.1334,2.1194,2.1052,2.0933,2.0822,2.0632,2.0492,2.0492,2.0492,2.0492,2.0492,2.0492,2.0492,2.0492,2.0492,2.0492,2.0492,2.0492,2.0492,2.0492,2.0492,2.0492,2.0492,2.0492,2.0492,2.0492,2.0492,2.0492,2.0492,2.0492,2.0492,2.0492,2.0492,2.0492,2.0492,2.0492,2.0492,2.0492,2.0492,2.0492,2.0492,2.0492,2.0492,2.0496,2.0499,2.0557,2.0623,2.7528,2.3507,2.1405,2.1403,2.1391,2.6092,4.0069,4.221,4.2296,4.2571,4.3419,4.3998,4.4001,4.4008,4.4007,4.4012,4.3998,4.3845,4.3495,4.3263,4.3199,4.3384,4.3235,4.3078,4.2971,4.2677,4.092,3.7616,2.8663,2.3316,2.1541,2.8545,3.1794,3.2102,3.9096,4.2202,4.2202,4.2202,4.1308,3.9691,3.7239,3.3534,2.9123,2.5632,2.3094,2.1408,2.1408,2.1529,2.1667,2.1568,2.1477,2.1408,2.1408,2.1408,2.1408,2.1408,2.1408,2.1408,2.1408,2.1408,2.1408,2.1408,2.1408,2.1408,2.1408,2.1408,2.1408,2.1408,2.1408,2.1354,2.1212,2.1089,2.0962,2.0822,2.0632,2.0492,2.0492,2.0492,2.0492,2.0492,2.0492,2.0492,2.0492,2.0492,2.0492,2.0492,2.0492,2.0492,2.0492,2.0492,2.0492,2.0492,2.0492,2.0492,2.0492,2.0492,2.0492,2.0492,2.0492,2.0492,2.0492,2.0492,2.0492,2.0492,2.0492,2.0492,2.0492,2.0492,2.0492,2.0492,2.0492,2.0492,2.0492,2.0496,2.0497,2.0497]}]]